[[{"header":{"parameterUnit":"m.s-1","parameterCategory":1,"la1":31.0,"la2":29.5877,"lo1":-88.7671,"lo2":-86.6584,"dy":0.0162,"dx":0.0185,"nx":115,"ny":88,"refTime":"2023-09-26T12:00:00:Z","depth":0,"parameterNumber":2,"parameterNumberName":"U-component_of_WINDS"},"data":[0.0,0.0,0.0,0.0,0.0,0.0,0.0,0.0,0.0,0.0,0.0,0.0,0.0,0.0,0.0,0.0,0.0,0.0,0.0,0.0,0.0,0.0,0.0,0.0,0.0,0.0,0.0,0.0,0.0,0.0,0.0,0.0,0.0,0.0,0.0,0.0,0.0,0.0,0.0,0.0,0.0,0.0,0.0,0.0,0.0,0.0,0.0,0.0,0.0,0.0,0.0,0.0,0.0,0.0,0.0,0.0,0.0,0.0,0.0,0.0,0.0,0.0,0.0,0.0,0.0,0.0,0.0,0.0,0.0,0.0,0.0,0.0,0.0,0.0,0.0,0.0,0.0,0.0,0.0,0.0,0.0,0.0,0.0,0.0,0.0,0.0,0.0,0.0,0.0,0.0,0.0,0.0,0.0,0.0,0.0,0.0,0.0,0.0,0.0,0.0,0.0,0.0,0.0,0.0,0.0,0.0,0.0,0.0,0.0,0.0,0.0,0.0,0.0,0.0,0.0,0.0,0.0,0.0,0.0,0.0,0.0,0.0,0.0,0.0,0.0,0.0,0.0,0.0,0.0,0.0,0.0,0.0,0.0,0.0,0.0,0.0,0.0,0.0,0.0,0.0,0.0,0.0,0.0,0.0,0.0,0.0,0.0,0.0,0.0,0.0,0.0,0.0,0.0,0.0,0.0,0.0,0.0,0.0,0.0,0.0,0.0,0.0,0.0,0.0,0.0,0.0,0.0,0.0,0.0,0.0,0.0,0.0,0.0,0.0,0.0,0.0,0.0,0.0,0.0,0.0,0.0,0.0,0.0,0.0,0.0,0.0,0.0,0.0,0.0,0.0,0.0,0.0,0.0,0.0,0.0,0.0,0.0,0.0,0.0,0.0,0.0,0.0,0.0,0.0,0.0,0.0,0.0,0.0,0.0,0.0,0.0,0.0,0.0,0.0,0.0,0.0,0.0,0.0,0.0,0.0,0.0,0.0,0.0,0.0,0.0,0.0,0.0,0.0,0.0,0.0,0.0,0.0,0.0,0.0,0.0,0.0,0.0,0.0,0.0,0.0,0.0,0.0,0.0,0.0,0.0,0.0,0.0,0.0,0.0,0.0,0.0,0.0,0.0,0.0,0.0,0.0,0.0,0.0,0.0,0.0,0.0,0.0,0.0,0.0,0.0,0.0,0.0,0.0,0.0,0.0,0.0,0.0,0.0,0.0,0.0,0.0,0.0,0.0,0.0,0.0,0.0,0.0,0.0,0.0,0.0,0.0,0.0,0.0,0.0,0.0,0.0,0.0,0.0,0.0,0.0,0.0,0.0,0.0,0.0,0.0,0.0,0.0,0.0,0.0,0.0,0.0,0.0,0.0,0.0,0.0,0.0,0.0,0.0,0.0,0.0,0.0,0.0,0.0,0.0,0.0,0.0,0.0,0.0,0.0,0.0,0.0,0.0,0.0,0.0,0.0,0.0,0.0,0.0,0.0,0.0,0.0,0.0,0.0,0.0,0.0,0.0,0.0,0.0,0.0,0.0,0.0,0.0,0.0,0.0,0.0,0.0,0.0,0.0,0.0,0.0,0.0,0.0,0.0,0.0,0.0,0.0,0.0,0.0,0.0,0.0,0.0,0.0,0.0,0.0,0.0,0.0,0.0,0.0,0.0,0.0,0.0,0.0,0.0,0.0,0.0,0.0,0.0,0.0,0.0,0.0,0.0,0.0,0.0,0.0,0.0,0.0,0.0,0.0,0.0,0.0,0.0,0.0,0.0,0.0,0.0,0.0,0.0,0.0,0.0,0.0,0.0,0.0,0.0,0.0,0.0,0.0,0.0,0.0,0.0,0.0,0.0,0.0,0.0,0.0,0.0,0.0,0.0,0.0,0.0,0.0,0.0,0.0,0.0,0.0,0.0,0.0,0.0,0.0,0.0,0.0,0.0,0.0,0.0,0.0,0.0,0.0,0.0,0.0,0.0,0.0,0.0,0.0,0.0,0.0,0.0,0.0,0.0,0.0,0.0,0.0,0.0,0.0,0.0,0.0,0.0,0.0,0.0,0.0,0.0,0.0,0.0,0.0,0.0,0.0,0.0,0.0,0.0,0.0,0.0,0.0,0.0,0.0,0.0,0.0,0.0,0.0,0.0,0.0,0.0,0.0,0.0,0.0,0.0,0.0,0.0,0.0,0.0,0.0,0.0,0.0,0.0,0.0,0.0,0.0,0.0,0.0,0.0,0.0,0.0,0.0,0.0,0.0,0.0,0.0,0.0,0.0,0.0,0.0,0.0,0.0,0.0,0.0,0.0,0.0,0.0,0.0,0.0,0.0,0.0,0.0,0.0,0.0,0.0,0.0,0.0,0.0,0.0,0.0,0.0,0.0,0.0,0.0,0.0,0.0,0.0,0.0,0.0,0.0,0.0,0.0,0.0,0.0,0.0,0.0,0.0,0.0,0.0,0.0,0.0,0.0,0.0,0.0,0.0,0.0,0.0,0.0,0.0,0.0,0.0,0.0,0.0,0.0,0.0,0.0,0.0,0.0,0.0,0.0,0.0,0.0,0.0,0.0,0.0,0.0,0.0,0.0,0.0,0.0,0.0,0.0,0.0,0.0,0.0,0.0,0.0,0.0,0.0,0.0,0.0,0.0,0.0,0.0,0.0,0.0,0.0,0.0,0.0,0.0,0.0,0.0,0.0,0.0,0.0,0.0,0.0,0.0,0.0,0.0,0.0,0.0,0.0,0.0,0.0,0.0,0.0,0.0,0.0,0.0,0.0,0.0,0.0,0.0,0.0,0.0,0.0,0.0,0.0,0.0,0.0,0.0,0.0,0.0,0.0,0.0,0.0,0.0,0.0,0.0,0.0,0.0,0.0,0.0,0.0,0.0,0.0,0.0,0.0,0.0,0.0,0.0,0.0,0.0,0.0,0.0,0.0,0.0,0.0,0.0,0.0,0.0,0.0,0.0,0.0,0.0,0.0,0.0,0.0,0.0,0.0,0.0,0.0,0.0,0.0,0.0,0.0,0.0,0.0,0.0,0.0,0.0,0.0,0.0,0.0,0.0,0.0,0.0,0.0,0.0,0.0,0.0,0.0,0.0,0.0,0.0,0.0,0.0,0.0,0.0,0.0,0.0,0.0,0.0,0.0,0.0,0.0,0.0,0.0,0.0,0.0,0.0,0.0,0.0,0.0,0.0,0.0,0.0,0.0,0.0,0.0,0.0,0.0,0.0,0.0,0.0,0.0,0.0,0.0,0.0,0.0,0.0,0.0,0.0,0.0,0.0,0.0,0.0,0.0,0.0,0.0,0.0,0.0,0.0,0.0,0.0,0.0,0.0,0.0,0.0,0.0,0.0,0.0,0.0,0.0,0.0,0.0,0.0,0.0,0.0,0.0,0.0,0.0,0.0,0.0,0.0,0.0,0.0,0.0,0.0,0.0,0.0,0.0,0.0,0.0,0.0,0.0,0.0,0.0,0.0,0.0,0.0,0.0,0.0,0.0,0.0,0.0,0.0,0.0,0.0,0.0,0.0,0.0,0.0,0.0,0.0,0.0,0.0,0.0,0.0,0.0,0.0,0.0,0.0,0.0,0.0,0.0,0.0,0.0,0.0,0.0,0.0,0.0,0.0,0.0,0.0,0.0,0.0,0.0,0.0,0.0,0.0,0.0,0.0,0.0,0.0,0.0,0.0,0.0,0.0,0.0,0.0,0.0,0.0,0.0,0.0,0.0,0.0,0.0,0.0,0.0,0.0,0.0,0.0,0.0,0.0,0.0,0.0,0.0,0.0,0.0,0.0,0.0,0.0,0.0,0.0,0.0,0.0,0.0,0.0,0.0,0.0,0.0,0.0,0.0,0.0,0.0,0.0,0.0,0.0,0.0,0.0,0.0,0.0,0.0,0.0,0.0,0.0,0.0,0.0,0.0,0.0,0.0,0.0,0.0,0.0,0.0,0.0,0.0,0.0,0.0,0.0,0.0,0.0,0.0,0.0,0.0,0.0,0.0,0.0,0.0,0.0,0.0,0.0,0.0,0.0,0.0,0.0,0.0,0.0,0.0,0.0,0.0,0.0,0.0,0.0,0.0,0.0,0.0,0.0,0.0,0.0,0.0,0.0,0.0,0.0,0.0,0.0,0.0,0.0,0.0,0.0,0.0,0.0,0.0,0.0,0.0,0.0,0.0,0.0,0.0,0.0,0.0,0.0,0.0,0.0,0.0,0.0,0.0,0.0,0.0,0.0,0.0,0.0,0.0,0.0,0.0,0.0,0.0,0.0,0.0,0.0,0.0,0.9842,0.0,0.0,0.0,0.0,0.0,0.0,0.0,0.0,0.0,0.0,0.0,0.0,0.0,0.0,0.0,0.0,0.0,0.0,0.0,0.0,0.0,0.0,0.0,0.0,0.0,0.0,0.0,0.0,0.0,0.0,0.0,0.0,0.0,0.0,0.0,0.0,0.0,0.0,0.0,0.0,0.0,0.0,0.0,0.0,0.0,0.0,0.0,0.0,0.0,0.0,0.0,0.0,0.0,0.0,0.0,0.0,0.0,0.0,0.0,0.0,0.0,0.0,0.0,0.0,0.0,0.0,0.0,0.0,0.0,0.0,0.0,0.0,0.0,0.0,0.0,0.0,0.0,0.0,0.0,0.0,0.0,0.0,0.0,0.0,0.0,0.0,0.0,0.0,0.0,0.0,0.0,0.0,0.0,0.0,0.0,0.0,0.0,0.0,0.0,0.0,0.0,0.0,0.0,0.0,0.0,0.0,0.0,0.0,0.0,0.0,1.0496,1.0496,1.0496,1.0416,1.0232,0.0,0.0,0.0,0.0,0.0,0.0,0.0,0.0,0.0,0.0,0.0,0.0,0.0,0.0,0.0,0.0,0.0,0.0,0.0,0.0,0.0,0.0,0.0,0.0,0.0,0.0,0.0,0.0,0.0,0.0,0.0,0.0,0.0,0.0,0.0,0.0,0.0,0.0,0.0,0.0,0.0,0.0,0.0,0.0,0.0,0.0,0.0,0.0,0.0,0.0,0.0,0.0,0.0,0.0,0.0,0.0,0.0,0.0,0.0,0.0,0.0,0.0,0.0,0.0,0.0,0.0,0.0,0.0,0.0,0.0,0.0,0.0,0.0,0.0,0.0,0.0,0.0,0.0,0.0,0.0,0.0,0.0,0.0,0.0,0.0,0.0,0.0,0.0,0.0,0.0,0.0,0.0,0.0,0.0,0.0,0.0,0.0,0.0,0.0,0.0,0.0,0.0,0.0,0.0,0.0,0.0,0.0,0.0,0.0,0.0,0.0,0.0,1.0719,1.0687,1.0607,0.0,0.0,0.0,0.0,0.0,0.0,0.0,0.0,0.0,0.0,0.0,0.0,0.0,0.0,0.0,0.0,0.0,0.0,0.0,0.0,0.0,0.0,0.0,0.0,0.0,0.0,0.0,0.0,0.0,0.0,0.0,0.0,0.0,0.0,0.0,0.0,0.0,0.0,0.0,0.0,0.0,0.0,0.0,0.0,0.0,0.0,0.0,0.0,0.0,0.0,0.0,0.0,0.0,0.0,0.0,0.0,0.0,0.0,0.0,0.0,0.0,0.0,0.0,0.0,0.0,0.0,0.0,0.0,0.0,0.0,0.0,0.0,0.0,0.0,0.0,0.0,0.0,0.0,0.0,0.0,0.0,0.0,0.0,0.0,0.0,0.0,0.0,0.0,0.0,0.0,0.0,0.0,0.0,0.0,0.0,0.0,0.0,0.0,0.0,0.0,0.0,0.0,0.0,0.0,0.0,0.0,0.0,0.0,0.0,0.0,1.1103,1.1376,1.1406,0.0,1.0947,0.0,0.0,0.0,0.0,0.0,0.0,0.0,0.0,0.0,0.0,0.0,0.0,0.0,0.0,0.0,0.0,0.0,0.0,0.0,0.0,0.0,0.0,0.0,0.0,0.0,0.0,0.0,0.0,0.0,0.0,0.0,0.0,0.0,0.0,0.0,0.0,0.0,0.0,0.0,0.0,0.0,0.0,0.0,0.0,0.0,0.0,0.0,0.0,0.0,0.0,0.0,0.0,0.0,0.0,0.0,0.0,0.0,0.0,0.0,0.0,0.0,0.0,0.0,0.0,0.0,0.0,0.0,0.0,0.0,0.0,0.0,0.0,0.0,0.0,0.0,0.0,0.0,0.0,0.0,0.0,0.0,0.0,0.0,0.0,0.0,0.0,0.0,0.0,0.0,0.0,0.0,0.0,0.0,0.0,0.0,0.0,0.0,0.0,0.0,0.0,0.0,0.0,0.0,0.0,0.0,0.0,0.0,0.0,0.0,0.0,1.1374,1.1501,1.1501,1.1328,0.0,0.0,0.0,0.0,0.0,0.0,0.0,0.0,0.0,0.0,0.0,0.0,0.0,0.0,0.0,0.0,0.0,0.0,0.0,0.0,0.0,0.0,0.0,0.0,0.0,0.0,0.0,0.0,0.0,0.0,0.0,0.0,0.0,0.0,0.0,0.0,0.0,0.0,0.0,0.0,0.0,0.0,0.0,0.0,0.0,0.0,0.0,0.0,0.0,0.0,0.0,0.0,0.0,0.0,0.0,0.0,0.0,0.0,0.0,0.0,0.0,0.0,0.0,0.0,0.0,0.0,0.0,0.0,0.0,0.0,0.0,0.0,0.0,0.0,0.0,0.0,0.0,0.0,0.0,0.0,0.0,0.0,0.0,0.0,0.0,0.0,0.0,0.0,0.0,0.0,0.0,0.0,0.0,0.0,0.0,0.0,0.0,0.0,0.0,0.0,0.0,0.0,0.0,0.0,0.0,0.0,0.0,0.0,0.0,0.0,1.1567,1.1866,1.1931,1.1851,1.1597,1.1167,0.0,0.0,0.0,0.0,0.0,0.0,0.0,0.0,0.0,0.0,0.0,0.0,0.0,0.0,0.0,0.0,0.0,0.0,0.0,0.0,0.0,0.0,0.0,0.0,0.0,0.0,0.0,0.0,0.0,0.0,0.0,0.0,0.0,0.0,0.0,0.0,0.0,0.0,0.0,0.0,0.0,0.0,0.0,0.0,0.0,0.0,0.0,0.0,0.0,0.0,0.0,0.0,0.0,0.0,0.0,0.0,0.0,0.0,0.0,0.0,0.0,0.0,0.0,0.0,0.0,0.0,0.0,0.0,0.0,0.0,0.0,0.0,0.0,0.0,0.0,0.0,0.0,0.0,0.0,0.0,0.0,0.0,0.0,0.0,0.0,0.0,0.0,0.0,0.0,0.0,0.0,0.0,0.0,0.0,0.0,0.0,0.0,0.0,0.0,0.0,0.0,0.0,0.0,0.0,0.0,0.0,0.0,0.0,1.1485,1.2184,1.2694,1.2996,1.271,1.2216,0.0,0.0,0.0,0.0,0.0,0.0,0.0,0.0,0.0,0.0,0.0,0.0,0.0,0.0,0.0,0.0,0.0,0.0,0.0,0.0,0.0,0.0,0.0,0.0,0.0,0.0,0.0,0.0,0.0,0.0,0.0,0.0,0.0,0.0,0.0,0.0,0.0,0.0,0.0,0.0,0.0,0.0,0.0,0.0,0.0,0.0,0.0,0.0,0.0,0.0,0.0,0.0,0.0,0.0,0.0,0.0,0.0,0.0,0.0,0.0,0.0,0.0,0.0,0.0,0.0,0.0,0.0,0.0,0.0,0.0,0.0,0.0,0.0,0.0,0.0,0.0,0.0,0.0,0.0,0.0,0.0,0.0,0.0,0.0,0.0,0.0,0.0,0.0,0.0,0.0,0.0,0.0,0.0,0.0,0.0,0.0,0.0,0.0,0.0,0.0,0.0,0.0,0.0,0.0,0.0,0.0,0.0,0.0,0.0,1.1851,1.2536,1.3076,1.3394,1.3092,1.2694,0.0,0.0,0.0,0.0,0.0,0.0,0.0,0.0,0.0,0.0,0.0,0.0,0.0,0.0,0.0,0.0,0.0,0.0,0.0,0.0,0.0,0.0,0.0,0.0,0.0,0.0,0.0,0.0,0.0,0.0,0.0,0.0,0.0,0.0,0.0,0.0,0.0,0.0,0.0,0.0,0.0,0.0,0.0,0.0,0.0,0.0,0.0,0.0,0.0,0.0,0.0,0.0,0.0,0.0,0.0,0.0,0.0,0.0,0.0,0.0,0.0,0.0,0.0,0.0,0.0,0.0,0.0,0.0,0.0,0.0,0.0,0.0,0.0,0.0,0.0,0.0,0.0,0.0,0.0,0.0,0.0,0.0,0.0,0.0,0.0,0.0,0.0,0.0,0.0,0.0,0.0,0.0,0.0,0.0,0.0,0.0,0.0,0.0,0.0,0.0,0.0,0.0,0.0,0.0,0.0,0.0,0.0,0.0,0.0,1.2504,0.0,1.3537,1.3727,1.3425,1.306,0.0,0.0,0.0,0.0,0.0,0.0,0.0,0.0,0.0,0.0,0.0,0.0,0.0,0.0,0.0,0.0,0.0,0.0,0.0,0.0,0.0,0.0,0.0,0.0,0.0,0.0,0.0,0.0,0.0,0.0,0.0,0.0,0.0,0.0,0.0,0.0,0.0,0.0,0.0,0.0,0.0,0.0,0.0,0.0,0.0,0.0,0.0,0.0,0.0,0.0,0.0,0.0,0.0,0.0,0.0,0.0,0.0,0.0,0.0,0.0,0.0,0.0,0.0,0.0,0.0,0.0,0.0,0.0,0.0,0.0,0.0,0.0,0.0,0.0,0.0,0.0,0.0,0.0,0.0,0.0,0.0,0.0,0.0,0.0,0.0,0.0,0.0,0.0,0.0,0.0,0.0,0.0,0.0,0.0,0.0,0.0,0.0,0.0,0.0,0.0,0.0,0.0,0.0,0.0,0.0,0.0,0.0,0.0,1.2488,1.3554,1.3901,1.4091,1.4109,1.3808,1.3299,0.0,0.0,0.0,0.0,0.0,0.0,0.0,0.0,0.0,0.0,0.0,0.0,0.0,0.0,0.0,0.0,0.0,0.0,0.0,0.0,0.0,0.0,0.0,0.0,0.0,0.0,0.0,0.0,0.0,0.0,0.0,0.0,0.0,0.0,0.0,0.0,0.0,0.0,0.0,0.0,0.0,0.0,0.0,0.0,0.0,0.0,0.0,0.0,0.0,0.0,0.0,0.0,0.0,0.0,0.0,0.0,0.0,0.0,0.0,0.0,0.0,0.0,0.0,0.0,0.0,0.0,0.0,0.0,0.0,0.0,0.0,0.0,0.0,0.0,0.0,0.0,0.0,0.0,0.0,0.0,0.0,0.0,0.0,0.0,0.0,0.0,0.0,0.0,0.0,0.0,0.0,0.0,0.0,0.0,0.0,0.0,0.0,0.0,0.0,0.0,0.0,0.0,0.0,0.0,0.0,0.0,0.0,0.0,0.0,1.3934,1.4282,1.4439,1.4456,1.4344,1.3982,0.0,0.0,0.0,0.0,0.0,0.0,0.0,0.0,0.0,0.0,0.0,0.0,0.0,0.0,0.0,0.0,0.0,0.0,0.0,0.0,0.0,0.0,0.0,0.0,0.0,0.0,0.0,0.0,0.0,0.0,0.0,0.0,0.0,0.0,0.0,0.0,0.0,0.0,0.0,0.0,0.0,0.0,0.0,0.0,0.0,0.0,0.0,0.0,0.0,0.0,0.0,0.0,0.0,0.0,0.0,0.0,0.0,0.0,0.0,0.0,0.0,0.0,0.0,0.0,0.0,0.0,0.0,0.0,0.0,0.0,0.0,0.0,0.0,0.0,0.0,0.0,0.0,0.0,0.0,0.0,0.0,0.0,0.0,0.0,0.0,0.0,0.0,0.0,0.0,0.0,0.0,0.0,0.0,0.0,0.0,0.0,0.0,0.0,0.0,0.0,0.0,0.0,0.0,0.0,0.0,0.0,0.0,0.0,0.0,1.4552,1.4864,1.503,1.5012,1.474,1.4409,1.3982,0.0,0.0,0.0,0.0,0.0,0.0,0.0,0.0,0.0,0.0,0.0,0.0,0.0,0.0,0.0,0.0,0.0,0.0,0.0,0.0,0.0,0.0,0.0,0.0,0.0,0.0,0.0,0.0,0.0,0.0,0.0,0.0,0.0,0.0,0.0,0.0,0.0,0.0,0.0,0.0,0.0,0.0,0.0,0.0,0.0,0.0,0.0,0.0,0.0,0.0,0.0,0.0,0.0,0.0,0.0,0.0,0.0,0.0,0.0,0.0,0.0,0.0,0.0,0.0,0.0,0.0,0.0,0.0,0.0,0.0,0.0,0.0,0.0,0.0,0.0,0.0,0.0,0.0,0.0,0.0,0.0,0.0,0.0,0.0,0.0,0.0,0.0,0.0,0.0,0.0,0.0,0.0,0.0,0.0,0.0,0.0,0.0,0.0,0.0,0.0,0.0,0.0,0.0,0.0,0.0,0.0,0.0,0.0,1.5324,1.5622,1.5758,1.5678,1.5073,1.464,0.0,0.0,0.0,0.0,0.0,0.0,0.0,0.0,0.0,0.0,0.0,0.0,0.0,0.0,0.0,0.0,0.0,0.0,0.0,0.0,0.0,0.0,0.0,0.0,0.0,0.0,0.0,0.0,0.0,0.0,0.0,0.0,0.0,0.0,0.0,0.0,0.0,0.0,0.0,0.0,0.0,0.0,0.0,0.0,0.0,0.0,0.0,0.0,0.0,0.0,0.0,0.0,0.0,0.0,0.0,0.0,0.0,0.0,0.0,0.0,0.0,0.0,0.0,0.0,0.0,0.0,0.0,0.0,0.0,0.0,0.0,0.0,0.0,0.0,0.0,0.0,0.0,0.0,0.0,0.0,0.0,0.0,0.0,0.0,0.0,0.0,0.0,0.0,0.0,0.0,0.0,0.0,0.0,0.0,0.0,0.0,0.0,0.0,0.0,0.0,0.0,0.0,0.0,0.0,0.0,0.0,0.0,0.0,0.0,1.5817,1.6364,1.6396,1.5794,1.5881,1.5463,0.0,0.0,0.0,0.0,0.0,0.0,0.0,0.0,0.0,0.0,0.0,0.0,0.0,0.0,0.0,0.0,0.0,0.0,0.0,0.0,0.0,0.0,0.0,0.0,0.0,0.0,0.0,0.0,0.0,0.0,0.0,0.0,0.0,0.0,0.0,0.0,0.0,0.0,0.0,0.0,0.0,0.0,0.0,0.0,0.0,0.0,0.0,0.0,0.0,0.0,0.0,0.0,0.0,0.0,0.0,0.0,0.0,0.0,0.0,0.0,0.0,0.0,0.0,0.0,0.0,0.0,0.0,0.0,0.0,0.0,0.0,0.0,0.0,0.0,0.0,0.0,0.0,0.0,0.0,0.0,0.0,0.0,0.0,0.0,0.0,0.0,0.0,0.0,0.0,0.0,0.0,0.0,0.0,0.0,0.0,0.0,0.0,0.0,0.0,0.0,0.0,0.0,0.0,0.0,0.0,0.0,0.0,0.0,1.5828,1.6293,1.6799,1.6865,1.6396,1.6292,1.5862,0.0,0.0,0.0,0.0,0.0,0.0,0.0,0.0,0.0,0.0,0.0,0.0,0.0,0.0,0.0,0.0,0.0,0.0,0.0,0.0,0.0,0.0,0.0,0.0,0.0,0.0,0.0,0.0,0.0,0.0,0.0,0.0,0.0,0.0,0.0,0.0,0.0,0.0,0.0,0.0,0.0,0.0,0.0,0.0,0.0,0.0,0.0,0.0,0.0,0.0,0.0,0.0,0.0,0.0,0.0,0.0,0.0,0.0,0.0,0.0,0.0,0.0,0.0,0.0,0.0,0.0,0.0,0.0,0.0,0.0,0.0,0.0,0.0,0.0,0.0,0.0,0.0,0.0,0.0,0.0,0.0,0.0,0.0,0.0,0.0,0.0,0.0,0.0,0.0,0.0,0.0,0.0,0.0,0.0,0.0,0.0,0.0,0.0,0.0,0.0,0.0,0.0,0.0,0.0,0.0,0.0,0.0,0.0,1.6308,1.6751,1.7123,1.7302,1.7227,1.6528,1.6075,0.0,0.0,0.0,0.0,0.0,0.0,0.0,0.0,0.0,0.0,0.0,0.0,0.0,0.0,0.0,0.0,0.0,0.0,0.0,0.0,0.0,0.0,0.0,0.0,0.0,0.0,0.0,0.0,0.0,0.0,0.0,0.0,0.0,0.0,0.0,0.0,0.0,0.0,0.0,0.0,0.0,0.0,0.0,0.0,0.0,0.0,0.0,0.0,0.0,0.0,0.0,0.0,0.0,0.0,0.0,0.0,0.0,0.0,0.0,0.0,0.0,0.0,0.0,0.0,0.0,0.0,0.0,0.0,0.0,0.0,0.0,0.0,0.0,0.0,0.0,0.0,0.0,0.0,0.0,0.0,0.0,0.0,0.0,0.0,0.0,0.0,0.0,0.0,0.0,0.0,0.0,0.0,0.0,0.0,0.0,0.0,0.0,0.0,0.0,0.0,0.0,0.0,0.0,0.0,0.0,0.0,0.0,0.0,1.6743,1.7152,1.7739,1.7939,1.769,1.7204,1.6577,0.0,0.0,0.0,0.0,0.0,0.0,0.0,0.0,0.0,0.0,0.0,0.0,0.0,0.0,0.0,0.0,0.0,0.0,0.0,0.0,0.0,0.0,0.0,0.0,0.0,0.0,0.0,0.0,0.0,0.0,0.0,0.0,0.0,0.0,0.0,0.0,0.0,0.0,0.0,0.0,0.0,0.0,0.0,0.0,0.0,0.0,0.0,0.0,1.9589,0.0,0.0,0.0,0.0,0.0,0.0,0.0,0.0,0.0,0.0,0.0,0.0,0.0,0.0,0.0,0.0,0.0,0.0,0.0,0.0,0.0,0.0,0.0,0.0,0.0,0.0,0.0,0.0,0.0,0.0,0.0,0.0,0.0,0.0,0.0,0.0,0.0,0.0,0.0,0.0,0.0,0.0,0.0,0.0,0.0,0.0,0.0,0.0,0.0,0.0,0.0,0.0,0.0,0.0,0.0,0.0,0.0,0.0,0.0,1.7154,1.7521,1.8018,1.8218,1.8028,1.7669,1.7024,0.0,0.0,0.0,0.0,0.0,0.0,0.0,0.0,0.0,0.0,0.0,0.0,0.0,0.0,0.0,0.0,0.0,0.0,0.0,0.0,0.0,0.0,0.0,0.0,0.0,0.0,0.0,0.0,0.0,0.0,0.0,0.0,0.0,0.0,0.0,0.0,0.0,0.0,0.0,0.0,0.0,0.0,0.0,0.0,0.0,0.0,0.0,0.0,0.0,0.0,0.0,0.0,0.0,0.0,0.0,0.0,0.0,0.0,0.0,0.0,0.0,0.0,0.0,0.0,0.0,0.0,0.0,0.0,0.0,0.0,0.0,0.0,0.0,0.0,0.0,0.0,0.0,0.0,0.0,0.0,0.0,0.0,0.0,0.0,0.0,0.0,0.0,0.0,0.0,0.0,0.0,0.0,0.0,0.0,0.0,0.0,0.0,0.0,0.0,0.0,0.0,0.0,0.0,0.0,0.0,0.0,0.0,1.7007,1.7565,1.7955,1.8277,1.8423,1.8379,1.8033,1.7428,1.6521,0.0,0.0,0.0,0.0,0.0,0.0,0.0,0.0,0.0,0.0,0.0,0.0,0.0,0.0,0.0,0.0,0.0,0.0,0.0,0.0,0.0,0.0,0.0,0.0,0.0,0.0,0.0,0.0,0.0,0.0,0.0,0.0,0.0,0.0,0.0,0.0,0.0,0.0,1.8281,1.9442,0.0,0.0,0.0,0.0,0.0,0.0,0.0,0.0,2.0408,0.0,0.0,0.0,0.0,0.0,0.0,0.0,0.0,0.0,0.0,0.0,0.0,0.0,0.0,0.0,0.0,0.0,0.0,0.0,0.0,0.0,0.0,0.0,0.0,0.0,0.0,0.0,0.0,0.0,0.0,0.0,0.0,0.0,0.0,0.0,0.0,0.0,0.0,0.0,0.0,0.0,0.0,0.0,0.0,0.0,0.0,0.0,0.0,0.0,0.0,0.0,0.0,0.0,0.0,0.0,0.0,1.6594,1.7331,1.8028,1.8613,1.895,1.9005,1.8716,1.8394,1.7788,1.6836,0.0,0.0,0.0,0.0,0.0,0.0,0.0,0.0,0.0,0.0,0.0,0.0,0.0,0.0,0.0,0.0,0.0,0.0,0.0,0.0,0.0,0.0,0.0,0.0,0.0,0.0,0.0,0.0,0.0,0.0,0.0,0.0,0.0,0.0,0.0,0.0,0.0,0.0,0.0,1.9851,2.0387,0.0,0.0,0.0,0.0,0.0,0.0,0.0,0.0,2.071,0.0,0.0,0.0,0.0,0.0,0.0,0.0,0.0,0.0,0.0,0.0,0.0,0.0,0.0,0.0,0.0,0.0,0.0,0.0,0.0,0.0,0.0,0.0,0.0,0.0,0.0,0.0,0.0,0.0,0.0,0.0,0.0,0.0,0.0,0.0,0.0,0.0,0.0,0.0,0.0,0.0,0.0,0.0,0.0,0.0,0.0,0.0,0.0,0.0,0.0,0.0,0.0,0.0,0.0,0.0,1.6825,1.7622,1.8306,1.88,1.9137,1.9224,1.9063,1.8569,1.7925,0.0,0.0,0.0,0.0,0.0,0.0,0.0,0.0,0.0,0.0,0.0,0.0,0.0,0.0,0.0,0.0,0.0,0.0,0.0,0.0,0.0,0.0,0.0,0.0,0.0,0.0,0.0,0.0,0.0,0.0,0.0,0.0,0.0,0.0,0.0,0.0,0.0,0.0,0.0,0.0,2.0168,2.0471,2.0799,0.0,0.0,0.0,0.0,0.0,0.0,2.0619,2.0662,0.0,0.0,0.0,0.0,0.0,0.0,0.0,0.0,0.0,0.0,0.0,0.0,0.0,0.0,0.0,0.0,0.0,0.0,0.0,0.0,0.0,0.0,0.0,0.0,0.0,0.0,0.0,0.0,0.0,0.0,0.0,0.0,0.0,0.0,0.0,0.0,0.0,0.0,0.0,0.0,0.0,0.0,0.0,0.0,0.0,0.0,0.0,0.0,0.0,0.0,0.0,0.0,0.0,0.0,0.0,1.6991,1.7838,1.8496,1.8902,1.9166,1.9298,1.9283,1.8668,1.7999,0.0,0.0,0.0,0.0,0.0,0.0,0.0,0.0,0.0,0.0,0.0,0.0,0.0,0.0,0.0,0.0,0.0,0.0,0.0,0.0,0.0,0.0,0.0,0.0,0.0,0.0,0.0,0.0,0.0,0.0,0.0,0.0,0.0,0.0,0.0,0.0,0.0,0.0,0.0,0.0,0.0,2.0711,2.0673,2.0668,0.0,0.0,0.0,0.0,2.0158,2.0457,0.0,0.0,0.0,0.0,0.0,0.0,0.0,0.0,0.0,0.0,0.0,0.0,0.0,0.0,0.0,0.0,0.0,0.0,0.0,0.0,0.0,0.0,0.0,0.0,0.0,0.0,0.0,0.0,0.0,0.0,0.0,0.0,0.0,0.0,0.0,0.0,0.0,0.0,0.0,0.0,0.0,0.0,0.0,0.0,0.0,0.0,0.0,0.0,0.0,0.0,0.0,0.0,0.0,0.0,0.0,0.0,1.7238,1.7955,1.8599,1.921,1.9283,1.9298,1.9298,1.8642,1.7974,0.0,0.0,0.0,0.0,0.0,0.0,0.0,0.0,0.0,0.0,0.0,0.0,0.0,0.0,0.0,0.0,0.0,0.0,0.0,0.0,0.0,0.0,0.0,0.0,0.0,0.0,0.0,0.0,0.0,0.0,0.0,0.0,0.0,0.0,0.0,0.0,0.0,0.0,0.0,0.0,0.0,2.1463,2.1169,2.1357,2.1442,0.0,0.0,2.0986,2.1084,2.104,0.0,0.0,0.0,0.0,0.0,0.0,0.0,0.0,0.0,0.0,0.0,0.0,0.0,0.0,0.0,0.0,0.0,0.0,0.0,0.0,0.0,0.0,0.0,0.0,0.0,0.0,0.0,0.0,0.0,0.0,0.0,0.0,0.0,0.0,0.0,0.0,0.0,0.0,0.0,0.0,0.0,0.0,0.0,0.0,0.0,0.0,0.0,0.0,0.0,0.0,0.0,0.0,0.0,0.0,0.0,1.6232,1.7273,1.7969,1.8701,1.9532,1.9576,1.9603,1.9576,1.8921,1.8277,0.0,0.0,0.0,0.0,0.0,0.0,0.0,0.0,0.0,0.0,0.0,0.0,0.0,0.0,0.0,0.0,0.0,0.0,0.0,0.0,0.0,0.0,0.0,0.0,0.0,0.0,0.0,0.0,0.0,0.0,0.0,0.0,0.0,0.0,0.0,0.0,0.0,0.0,0.0,0.0,0.0,0.0,2.1299,2.1361,0.0,0.0,0.0,2.1393,2.1279,0.0,0.0,0.0,0.0,0.0,0.0,0.0,0.0,0.0,0.0,0.0,0.0,0.0,0.0,0.0,0.0,0.0,0.0,0.0,0.0,0.0,0.0,0.0,0.0,0.0,0.0,0.0,0.0,0.0,0.0,0.0,0.0,0.0,0.0,0.0,0.0,0.0,0.0,0.0,0.0,0.0,0.0,0.0,0.0,0.0,0.0,0.0,0.0,0.0,0.0,0.0,0.0,0.0,0.0,0.0,0.0,0.0,1.7288,1.8057,1.8862,1.9752,1.9869,1.9913,1.9898,1.9283,0.0,0.0,0.0,0.0,0.0,0.0,0.0,0.0,0.0,0.0,0.0,0.0,0.0,0.0,0.0,0.0,0.0,0.0,0.0,0.0,0.0,0.0,0.0,0.0,0.0,0.0,0.0,1.5915,0.0,0.0,0.0,0.0,0.0,0.0,0.0,0.0,0.0,0.0,0.0,0.0,0.0,0.0,2.0779,2.1379,2.1317,2.1285,0.0,0.0,2.1533,2.1237,2.1007,2.0711,0.0,0.0,0.0,0.0,0.0,0.0,0.0,0.0,0.0,0.0,0.0,0.0,0.0,0.0,0.0,0.0,0.0,0.0,0.0,0.0,0.0,0.0,0.0,0.0,0.0,0.0,0.0,0.0,0.0,0.0,0.0,0.0,0.0,0.0,0.0,0.0,0.0,0.0,0.0,0.0,0.0,0.0,0.0,0.0,0.0,0.0,0.0,0.0,0.0,0.0,0.0,0.0,0.0,0.0,1.636,1.7302,1.8262,1.9122,1.9767,2.0047,2.0181,2.0166,1.9579,1.8961,0.0,0.0,0.0,0.0,0.0,0.0,0.0,0.0,0.0,0.0,0.0,0.0,0.0,0.0,0.0,0.0,0.0,0.0,0.0,0.0,0.0,0.0,0.0,0.0,0.0,0.0,0.0,0.0,0.0,0.0,0.0,0.0,0.0,0.0,0.0,0.0,0.0,0.0,0.0,0.0,0.0,2.1496,2.1426,2.1427,2.1406,0.0,2.1156,2.1129,2.1113,2.1086,2.0872,2.0203,0.0,0.0,0.0,0.0,0.0,0.0,0.0,0.0,0.0,0.0,0.0,0.0,0.0,0.0,0.0,0.0,0.0,0.0,0.0,0.0,0.0,0.0,0.0,0.0,0.0,0.0,0.0,0.0,0.0,0.0,0.0,0.0,0.0,0.0,0.0,0.0,0.0,0.0,0.0,0.0,0.0,0.0,0.0,0.0,0.0,0.0,0.0,0.0,0.0,0.0,0.0,0.0,0.0,1.6769,1.7887,1.8701,1.9491,2.0311,2.0444,2.0502,2.0517,1.9916,1.9386,0.0,0.0,0.0,0.0,0.0,0.0,0.0,0.0,0.0,0.0,0.0,0.0,0.0,0.0,0.0,0.0,0.0,0.0,0.0,0.0,0.0,0.0,0.0,0.0,0.0,0.0,0.0,0.0,1.6951,1.7056,1.7231,0.0,0.0,0.0,0.0,0.0,0.0,0.0,0.0,0.0,0.0,2.158,2.1818,2.1979,0.0,0.0,2.2144,2.1953,2.1758,2.1406,2.1011,2.0538,2.0163,0.0,0.0,0.0,0.0,0.0,0.0,0.0,0.0,0.0,0.0,0.0,0.0,0.0,0.0,0.0,0.0,0.0,0.0,0.0,0.0,0.0,0.0,0.0,0.0,0.0,0.0,0.0,0.0,0.0,0.0,0.0,0.0,0.0,0.0,0.0,0.0,0.0,0.0,0.0,0.0,0.0,0.0,0.0,0.0,0.0,0.0,0.0,0.0,0.0,0.0,0.0,0.0,1.7194,1.8291,1.9038,1.9869,2.0678,2.0795,2.0867,2.0824,2.034,1.9928,0.0,0.0,0.0,0.0,0.0,0.0,0.0,0.0,0.0,0.0,0.0,0.0,0.0,0.0,0.0,0.0,0.0,0.0,0.0,0.0,0.0,0.0,0.0,0.0,0.0,0.0,0.0,0.0,1.7236,1.7281,1.7486,0.0,0.0,0.0,0.0,0.0,0.0,0.0,0.0,0.0,0.0,2.1643,2.2171,2.2358,2.2525,2.2796,2.2617,2.2394,2.2157,2.1788,2.1393,2.1029,0.0,0.0,0.0,0.0,0.0,0.0,0.0,0.0,0.0,0.0,0.0,0.0,0.0,0.0,0.0,0.0,0.0,0.0,0.0,0.0,0.0,0.0,0.0,0.0,0.0,0.0,0.0,0.0,0.0,0.0,1.5877,0.0,0.0,0.0,0.0,0.0,0.0,0.0,0.0,0.0,0.0,0.0,0.0,0.0,0.0,0.0,0.0,0.0,0.0,0.0,0.0,0.0,0.0,1.7647,1.8306,1.9327,2.0118,2.072,2.1042,2.1203,2.1203,2.0881,2.0517,2.0181,0.0,0.0,0.0,0.0,0.0,0.0,0.0,0.0,0.0,0.0,0.0,0.0,0.0,0.0,0.0,0.0,0.0,0.0,0.0,0.0,0.0,0.0,0.0,0.0,0.0,0.0,1.6996,1.7035,1.7051,0.0,0.0,0.0,0.0,0.0,0.0,0.0,0.0,0.0,0.0,2.1562,2.1856,2.2483,2.2393,2.2288,2.2288,2.2243,2.2243,2.2228,2.2184,2.2052,0.0,0.0,0.0,0.0,0.0,0.0,0.0,0.0,0.0,0.0,0.0,0.0,0.0,0.0,0.0,0.0,0.0,0.0,0.0,0.0,0.0,0.0,0.0,0.0,0.0,0.0,0.0,1.7473,1.7377,0.0,0.0,0.0,0.0,0.0,0.0,0.0,0.0,0.0,0.0,0.0,1.95,1.9879,0.0,0.0,0.0,0.0,0.0,0.0,0.0,0.0,0.0,0.0,0.0,0.0,1.8408,1.9298,2.0223,2.094,2.1364,2.1686,2.1862,2.1847,2.154,2.0985,2.0225,0.0,0.0,0.0,0.0,0.0,0.0,0.0,0.0,0.0,0.0,0.0,0.0,0.0,0.0,0.0,0.0,0.0,0.0,0.0,0.0,0.0,0.0,0.0,0.0,0.0,1.7265,0.0,0.0,0.0,0.0,0.0,0.0,0.0,0.0,0.0,0.0,0.0,2.0792,2.152,2.2171,2.2671,2.2923,2.3227,2.3442,0.0,0.0,0.0,0.0,0.0,0.0,0.0,0.0,0.0,0.0,0.0,0.0,0.0,0.0,2.1584,2.0818,2.0656,2.0698,2.0781,0.0,0.0,0.0,0.0,0.0,0.0,0.0,0.0,0.0,0.0,0.0,0.0,0.0,0.0,1.8423,0.0,1.79,0.0,0.0,0.0,0.0,0.0,0.0,0.0,0.0,1.9372,1.9887,1.9934,2.0317,2.0333,0.0,1.9725,1.8939,0.0,0.0,0.0,0.0,0.0,0.0,0.0,0.0,1.9151,2.0077,2.0823,2.1423,2.1847,2.2067,2.2184,2.2184,2.1979,2.1511,2.0736,1.9916,1.9316,0.0,0.0,0.0,0.0,0.0,0.0,0.0,0.0,0.0,0.0,0.0,0.0,0.0,0.0,0.0,0.0,0.0,0.0,0.0,0.0,0.0,0.0,0.0,1.7955,0.0,0.0,0.0,0.0,0.0,0.0,0.0,0.0,0.0,2.0133,2.0626,2.1235,2.1896,2.2515,2.2932,2.3047,0.0,0.0,0.0,0.0,0.0,0.0,0.0,2.3307,2.3091,2.3062,2.3062,2.3062,2.3062,2.3062,2.3062,0.0,0.0,2.2007,2.1862,2.1862,2.1847,2.1876,2.1935,2.2068,2.2216,2.2453,0.0,0.0,0.0,0.0,0.0,0.0,0.0,0.0,1.9619,1.9435,0.0,1.8884,0.0,0.0,0.0,0.0,0.0,1.8242,0.0,0.0,1.9721,2.0166,2.0231,2.0501,2.0514,2.0239,2.024,1.9919,1.9305,1.8372,0.0,0.0,0.0,0.0,0.0,0.0,1.9757,2.0636,2.1044,2.154,2.2139,2.2183,2.2198,2.2228,2.2213,2.2022,2.1715,2.1086,2.0561,2.0239,1.9052,0.0,0.0,0.0,0.0,0.0,0.0,0.0,0.0,0.0,0.0,0.0,0.0,0.0,0.0,0.0,0.0,0.0,0.0,0.0,0.0,1.796,0.0,0.0,0.0,0.0,0.0,0.0,0.0,0.0,0.0,0.0,2.0828,2.1286,2.1848,2.244,0.0,0.0,0.0,0.0,2.3051,2.3051,2.3051,2.3065,2.3098,2.3065,2.3098,2.3098,0.0,0.0,2.3098,2.3051,2.3098,2.3084,2.3112,2.3097,2.3151,2.3056,2.3043,2.3043,2.2997,2.3072,2.3102,2.3231,2.351,2.2017,0.0,0.0,0.0,0.0,2.056,2.0564,2.0503,2.0574,2.0267,1.9742,1.952,0.0,0.0,0.0,0.0,0.0,0.0,1.9312,1.9808,2.0316,2.064,2.092,2.1005,2.0988,2.0928,2.0898,2.0703,2.0311,2.0005,1.9243,1.8034,0.0,0.0,0.0,0.0,1.9991,2.0684,2.1222,2.159,2.176,2.2018,2.2255,2.2472,2.2256,2.2189,2.2329,2.1745,2.1262,2.094,2.0108,0.0,0.0,0.0,0.0,0.0,0.0,0.0,0.0,0.0,0.0,0.0,0.0,0.0,0.0,0.0,0.0,0.0,0.0,0.0,1.8671,1.9132,1.9341,0.0,0.0,0.0,0.0,0.0,0.0,0.0,0.0,0.0,2.2231,2.2247,2.2388,0.0,0.0,2.3219,2.335,2.3728,2.4022,2.4022,2.4155,0.0,2.4275,2.4261,2.4275,2.4275,2.4275,2.4309,2.4275,2.4275,2.4261,2.4295,2.4275,2.4308,2.4283,2.3601,2.3077,2.302,2.302,2.3091,2.3271,2.3398,2.3629,2.2766,2.1716,2.1694,2.1426,2.1071,2.1137,2.1123,2.1028,2.1064,2.0752,2.0294,2.0141,1.9803,1.9273,1.9137,0.0,0.0,0.0,1.9981,2.0205,2.0786,2.1159,2.1369,2.1462,2.1517,2.1517,2.1517,2.1365,2.1063,2.1063,2.0495,1.9424,0.0,0.0,1.985,2.0157,2.0633,2.1234,2.1723,2.2031,2.2156,2.2352,2.2532,2.2723,2.2571,2.2509,2.2599,2.2246,2.1901,2.1568,2.1074,2.04,0.0,0.0,0.0,0.0,0.0,0.0,0.0,0.0,0.0,0.0,0.0,1.7077,1.7437,0.0,0.0,0.0,1.8498,1.8945,1.9608,1.992,0.0,0.0,0.0,0.0,0.0,0.0,0.0,2.1423,2.2024,2.2478,2.2576,2.27,2.2923,2.3269,2.3495,2.3605,2.3605,0.0,2.4155,2.4155,2.4306,2.4429,2.4416,2.4394,2.4416,2.4416,2.4416,2.4416,2.4394,2.438,2.4394,2.4416,2.4429,2.4416,2.4416,2.3776,2.3432,2.3655,2.3722,2.3758,2.3926,2.3954,2.4079,2.3103,2.2514,2.2468,2.2127,2.1638,2.1671,2.1552,2.1314,2.1329,2.1136,2.0813,2.0813,2.063,2.0264,2.0235,0.0,1.9926,2.0441,2.053,2.0279,2.1152,2.1558,2.1571,2.1792,2.1925,2.1912,2.1958,2.1811,2.1577,2.1577,2.1411,2.1131,2.0558,2.0429,2.0753,2.1016,2.146,2.2079,2.2326,2.2605,2.2916,2.293,2.293,2.2962,2.2962,2.2855,2.2654,2.2613,2.2457,2.2115,2.1872,2.1452,2.0781,0.0,0.0,0.0,0.0,0.0,0.0,0.0,0.0,0.0,0.0,0.0,0.0,0.0,0.0,0.0,1.9247,0.0,2.0208,2.0455,0.0,0.0,0.0,2.1548,2.1562,2.1847,2.1986,2.1905,0.0,0.0,2.2195,2.2782,2.3308,2.3727,2.3808,2.3817,2.3817,2.3817,2.383,2.3866,2.387,2.3884,2.3995,2.3959,2.3959,2.3973,2.3884,2.391,2.3946,2.3946,2.3884,2.3946,2.3884,2.3897,2.3884,2.3906,2.4049,2.4634,2.4685,2.4657,2.4636,2.465,2.4614,2.3271,2.2888,2.2876,2.248,2.1942,2.2162,2.2258,2.2223,2.2454,2.2267,2.1768,2.1754,2.1433,2.0881,2.0633,2.0597,2.0713,2.0604,2.0625,2.0766,2.0972,2.1062,2.1062,2.1139,2.1165,2.1165,2.1417,2.1509,2.1457,2.1457,2.1418,2.1306,2.0916,2.0963,2.1389,2.1457,2.1673,2.2038,2.2073,2.214,2.2241,2.2254,2.2372,2.2635,2.2602,2.2705,2.2897,2.2911,2.2662,2.2159,2.23,2.2011,2.1133,2.0759,0.0,0.0,0.0,0.0,0.0,0.0,0.0,0.0,0.0,1.896,1.9073,0.0,1.9948,0.0,2.0435,2.0642,2.0809,2.0624,0.0,0.0,2.0812,2.1097,2.1363,2.1781,2.2065,2.2025,2.2345,2.2594,2.2766,2.2928,2.3164,2.3467,2.3688,2.3817,2.3817,2.3968,2.4102,2.4115,2.4239,2.4422,2.4372,2.4436,2.4386,2.4422,2.4422,2.4399,2.4436,2.4399,2.4399,2.4436,2.4436,2.4422,2.4399,2.4399,2.4459,2.4578,2.4327,2.4084,2.4287,2.4341,2.4408,2.3543,2.3358,2.3358,2.3018,2.2538,2.252,2.2484,2.2498,2.2533,2.2244,2.177,2.1639,2.1364,2.1026,2.0799,2.0889,2.1113,2.1076,2.1192,2.1437,2.1585,2.1649,2.1649,2.1649,2.1649,2.1683,2.1821,2.1924,2.1924,2.1924,2.1911,2.1924,2.1752,2.1778,2.2018,2.1673,2.1555,2.1679,2.1977,2.2244,2.2412,2.2412,2.2479,2.268,2.268,2.2712,2.2742,2.2874,2.2752,2.2295,2.2588,2.2482,2.1815,2.1491,2.1023,0.0,0.0,0.0,0.0,0.0,0.0,0.0,0.0,0.0,0.0,0.0,2.0557,2.0548,2.0768,2.0991,2.1104,2.1167,2.1232,2.1217,2.1437,2.1665,2.1865,2.2157,2.2291,2.2239,2.249,2.2716,2.2843,2.3092,2.3292,2.348,2.3776,2.3886,2.3664,2.3742,2.3846,2.3846,2.3977,2.4119,2.4304,2.4483,2.4613,2.4813,2.4943,2.4986,2.4986,2.4986,2.5024,2.4986,2.4986,2.4986,2.5024,2.4999,2.4986,2.4946,2.4783,2.4543,2.4422,2.4396,2.4439,2.3696,2.3732,2.3661,2.3447,2.3083,2.2679,2.2504,2.2504,2.2205,2.1885,2.1538,2.125,2.1116,2.1116,2.1082,2.1175,2.1382,2.1575,2.1792,2.2044,2.2332,2.2445,2.2481,2.2445,2.2481,2.2445,2.2517,2.2517,2.2517,2.2517,2.254,2.2504,2.2481,2.2445,2.2443,2.1701,2.1356,2.142,2.2005,2.2453,2.2756,2.2791,2.2825,2.2825,2.2859,2.2773,2.2485,2.2741,2.2773,2.252,2.2788,2.2846,2.2507,2.2201,2.178,0.0,2.0812,0.0,0.0,0.0,0.0,0.0,0.0,0.0,0.0,2.1123,2.098,2.0638,2.0772,2.1003,2.1241,2.1602,2.1855,2.1867,2.2176,2.2364,2.2389,2.2427,2.2407,2.235,2.2583,2.2703,2.2695,2.3167,2.3533,2.3535,2.3779,2.382,2.3467,2.3478,2.3578,2.3515,2.3515,2.3766,2.4027,2.4271,2.4565,2.4931,2.5076,2.5313,2.5249,2.5325,2.5376,2.5376,2.5388,2.5491,2.5518,2.5491,2.5504,2.5464,2.5438,2.5277,2.4853,2.4733,2.4836,2.3304,2.3304,2.2982,2.2791,2.2706,2.2595,2.2576,2.2589,2.2505,2.2435,2.2377,2.2306,2.2294,2.2258,2.194,2.1836,2.185,2.165,2.1568,2.1617,2.1666,2.169,2.1703,2.169,2.1726,2.1726,2.1978,2.2122,2.2122,2.2122,2.2122,2.211,2.1834,2.169,2.1678,0.0,0.0,0.0,2.2147,2.2163,2.2014,2.2276,2.2413,2.2413,2.2722,0.0,2.2813,2.2847,2.2734,2.2452,2.2726,0.0,0.0,0.0,0.0,0.0,0.0,0.0,0.0,0.0,0.0,0.0,2.1087,2.1196,2.0921,2.1509,2.1741,2.1341,2.1308,2.116,2.0924,2.0732,2.0634,2.0634,2.0892,2.1125,2.1298,2.1508,2.1691,2.1897,2.2247,2.2475,2.2496,2.2903,2.3198,2.3222,2.3275,2.3277,2.318,2.3641,2.4023,2.4036,2.396,2.4023,2.4151,2.4227,2.4316,2.4393,2.4419,2.447,2.4534,2.4803,2.502,2.5033,2.5275,2.5493,2.5531,2.5518,2.552,2.5518,2.5531,2.5478,2.5371,2.5306,2.5358,2.3608,0.0,2.3272,2.3048,0.0,2.2739,2.263,2.2459,2.2559,2.2481,2.2302,2.2122,2.205,2.205,2.1834,2.1836,2.1922,2.1776,2.1776,2.1897,2.1897,2.1897,2.1909,2.1897,2.1909,2.1909,2.2044,2.2154,2.2154,2.2154,2.2154,2.2154,2.1971,2.1897,2.1897,2.1897,2.1958,2.2111,2.2111,2.212,2.2192,2.2355,2.2361,2.2254,2.2449,0.0,0.0,0.0,0.0,0.0,0.0,0.0,0.0,2.1848,0.0,2.18,2.1186,2.0721,2.0568,2.0761,2.0825,2.062,2.0922,2.1031,2.0816,2.1192,2.1293,2.0924,2.0981,2.0952,2.0781,2.0817,2.0854,2.0866,2.1083,2.1288,2.1376,2.1501,2.1665,2.1779,2.21,2.231,2.231,2.2623,2.2851,2.2851,2.2851,2.2839,2.2894,2.3317,2.3661,2.3649,2.3649,2.3688,2.3905,2.4057,2.4248,2.4404,2.4557,2.4646,2.4658,2.4854,2.4971,2.501,2.5166,2.5374,2.5595,2.5634,2.5712,2.5906,2.5945,2.5945,2.5932,2.5718,2.5558,2.3947,2.3745,2.3707,2.3392,2.293,2.293,2.2705,2.237,0.0,0.0,0.0,2.1764,2.1655,2.1655,2.1655,2.174,2.1859,2.1859,2.1943,2.2109,2.2072,2.2121,2.2109,2.2072,2.2109,2.2184,2.2184,2.2221,2.2308,2.2308,2.2308,2.2308,2.2308,2.2308,2.2308,2.2308,2.2226,2.2066,2.2005,2.2123,2.2409,2.2481,2.239,2.2198,2.222,2.2176,2.196,2.1947,2.196,2.1947,2.1947,2.2014,2.223,2.1922,2.1805,2.1948,2.1702,2.1356,2.1008,2.0969,2.0769,2.0396,2.0467,2.0629,2.0808,2.0831,2.0658,2.0385,2.0455,2.0542,2.0467,2.0787,2.1033,2.1033,2.1212,2.1335,2.138,2.1441,2.1385,2.1548,2.1817,2.21,2.2151,2.2419,2.2608,2.2596,2.2642,2.2631,2.2688,2.2961,2.3198,2.3198,2.33,2.338,2.3675,2.3953,2.4246,2.4596,2.4811,2.5029,2.5029,2.5069,2.5122,2.5109,2.5162,2.543,2.5749,2.5829,2.5936,2.6228,2.6387,2.6427,2.6387,2.6133,2.5919,2.3675,2.3587,2.333,2.3152,2.3089,2.3089,2.2917,2.2648,2.2433,2.2299,2.2262,2.2187,2.2187,2.2187,2.2187,2.2013,2.1725,2.1725,2.1562,2.1297,2.1248,2.1259,2.1259,2.1259,2.1435,2.1784,2.1773,2.196,2.2271,2.2308,2.2308,2.2308,2.2308,2.2308,2.2308,2.2308,2.2297,2.2262,2.2043,2.1849,2.1667,2.1942,2.2061,2.206,2.2382,2.2535,2.251,2.2449,2.2497,2.251,2.2497,2.2523,2.2512,2.2166,2.1831,2.1533,2.121,2.0839,2.0455,2.0602,2.0615,2.0277,2.0109,2.0297,2.089,2.0887,2.0708,2.0483,2.0195,1.987,1.9569,1.961,1.9691,1.9662,1.9643,1.9736,1.9961,2.0032,2.0224,2.0774,2.116,2.1596,2.1849,2.2245,2.2492,2.2539,2.2405,2.2578,2.2703,2.3039,2.3197,2.3213,2.3492,2.3788,2.4001,2.4162,2.4288,2.4555,2.4649,2.4702,2.4702,2.4989,2.5193,2.5243,2.5451,2.5709,2.5832,2.5883,2.5914,2.601,2.6268,2.6484,2.6512,2.6691,2.6774,2.3629,2.3456,2.3339,2.3215,2.3082,2.2811,2.2662,2.2505,2.2168,2.1994,2.1972,2.196,2.1847,2.166,2.1623,2.1559,2.136,2.136,2.1297,2.1109,2.1071,2.1178,2.1254,2.1265,2.1448,2.1766,2.1766,2.1842,2.2033,2.2262,2.2338,2.2377,2.2605,2.2719,2.2719,2.2719,2.2757,2.2707,2.232,2.2054,2.1946,2.208,2.2081,2.1946,2.2128,2.2163,2.2014,2.2014,2.1894,2.1678,2.1666,2.1631,2.1583,2.1413,2.1301,2.1247,2.1214,2.0911,2.0287,2.0054,1.986,1.9733,1.9612,1.975,2.0203,2.0065,1.9941,1.985,1.9664,1.9507,1.932,1.9382,1.9492,1.9453,1.9593,1.9705,1.9796,1.9816,1.9988,2.0395,2.0611,2.0857,2.1137,2.1405,2.1529,2.1529,2.1529,2.1654,2.2,2.2295,2.2669,2.3131,2.3429,2.3669,2.4021,2.4115,2.4216,2.4542,2.4583,2.4583,2.4583,2.4843,2.4885,2.4914,2.5091,2.5298,2.5504,2.5586,2.5668,2.5915,2.6039,2.6203,2.6285,2.6572,2.6889,2.3413,2.3222,2.3222,2.3103,2.2951,2.26,2.2408,2.2311,2.1999,2.1758,2.1607,2.1685,2.1572,2.1269,2.1269,2.1193,2.1118,2.1118,2.1053,2.1004,2.0966,2.1067,2.1187,2.1209,2.1388,2.1624,2.1647,2.1713,2.183,2.2113,2.2307,2.2412,2.2773,2.3005,2.3121,2.3005,2.2927,2.2903,2.2455,2.2289,2.2478,2.2478,2.2369,2.2187,2.2064,2.1882,2.1702,2.1604,2.1421,2.1115,2.1115,2.1061,2.0949,2.096,2.1014,2.1118,2.1185,2.0863,2.0036,1.9534,1.9194,1.9075,1.9036,1.9055,1.9073,1.8965,1.9026,1.9224,1.9125,1.8996,1.8996,1.9023,1.914,1.915,1.9377,1.9422,1.9504,1.9617,1.981,1.9979,2.0133,2.0328,2.0542,2.0583,2.0656,2.0688,2.0583,2.0771,2.1148,2.1505,2.202,2.2609,2.3067,2.3469,2.3867,2.3932,2.4092,2.4449,2.4496,2.452,2.4562,2.4621,2.4693,2.4812,2.4842,2.5021,2.5246,2.533,2.5479,2.5712,2.5878,2.6019,2.6198,2.6447,2.6715,2.2717,2.2694,2.2746,2.2682,2.2648,2.2568,2.2442,2.2207,2.2156,2.1811,2.1318,2.1617,2.1761,2.1734,2.1672,2.1478,2.1168,2.119,2.0985,2.0674,2.0656,2.0667,2.0717,2.0689,2.0895,2.124,2.129,2.1458,2.177,2.1825,2.2047,2.2373,2.2451,2.2707,2.3017,2.2668,2.2462,2.2451,2.2067,2.2237,2.2971,2.301,2.2997,2.2973,2.2576,2.2333,2.2251,2.1974,2.1731,2.1742,2.1669,2.1654,2.1638,2.1688,2.1506,2.1179,2.0823,2.022,1.9457,1.9175,1.8854,1.8453,1.8251,1.8037,1.7705,1.7647,1.8087,1.8851,1.8566,1.8181,1.8128,1.7996,1.7939,1.8022,1.8109,1.8093,1.8235,1.8473,1.8894,1.9259,1.9596,2.0068,2.0328,2.0433,2.0497,2.0368,2.0336,2.0512,2.0823,2.0938,2.117,2.1647,2.2457,2.3272,2.3595,2.3695,2.3848,2.4117,2.4186,2.4322,2.45,2.4651,2.4795,2.4865,2.5131,2.5149,2.5258,2.5361,2.5367,2.5507,2.5761,2.6161,2.658,2.6669,2.6713,2.3013,2.3013,2.3013,2.2921,2.2744,2.254,2.2272,2.2019,2.1778,2.1512,2.1304,2.1424,2.1377,2.1112,2.1101,2.0984,2.0828,2.0839,2.075,2.0604,2.0604,2.063,2.0759,2.077,2.0953,2.1213,2.1264,2.1344,2.1532,2.1731,2.2089,2.2486,2.2525,2.2605,2.2763,2.2616,2.2525,2.2525,2.2367,2.2446,2.2728,2.2498,2.2334,2.2307,2.214,2.2024,2.2035,2.188,2.1569,2.1101,2.1023,2.0828,2.0369,2.032,2.0252,2.0067,1.9787,1.9404,1.8982,1.8625,1.8216,1.781,1.7786,1.7687,1.753,1.7627,1.7948,1.8273,1.8049,1.7805,1.793,1.781,1.7769,1.7778,1.7848,1.7901,1.7935,1.8062,1.8309,1.8587,1.8785,1.9002,1.9275,1.9346,1.9346,1.9355,1.9389,1.9632,2.0149,2.0298,2.0596,2.1208,2.1817,2.2364,2.2953,2.3349,2.3619,2.3986,2.4106,2.4235,2.4278,2.4364,2.4407,2.4621,2.4664,2.4792,2.494,2.5006,2.5049,2.5263,2.5476,2.5775,2.5945,2.6201,2.6318,2.2655,2.2727,2.2863,2.2834,2.2624,2.2336,2.2113,2.1929,2.1633,2.15,2.151,2.151,2.1327,2.1003,2.0863,2.0798,2.0798,2.0798,2.0798,2.0798,2.0798,2.0856,2.0996,2.1007,2.1103,2.1295,2.1305,2.1305,2.1316,2.1559,2.1952,2.2326,2.2406,2.2487,2.2567,2.2487,2.2366,2.2245,2.2124,2.2003,2.1827,2.1517,2.1525,2.1929,2.1772,2.1654,2.1654,2.1418,2.1024,2.0393,2.0353,2.0116,1.9532,1.9492,1.9383,1.9155,1.9003,1.8784,1.8411,1.8092,1.7749,1.7397,1.7436,1.7422,1.7364,1.7476,1.7536,1.7579,1.7459,1.7442,1.7654,1.7647,1.7588,1.7596,1.7631,1.7665,1.7674,1.7751,1.7948,1.8061,1.8304,1.8348,1.8471,1.8541,1.8619,1.8619,1.8584,1.8689,1.9335,1.9544,1.9815,2.0598,2.0815,2.1379,2.2298,2.2751,2.3204,2.3548,2.3677,2.3677,2.3849,2.3892,2.4064,2.4235,2.4106,2.4192,2.445,2.4578,2.4633,2.4921,2.5158,2.5256,2.5263,2.5604,2.5848,2.0971,2.1442,2.1861,2.2081,2.2038,2.2038,2.1985,2.1953,2.1963,2.1963,2.1942,2.1953,2.1953,2.1866,2.1456,2.1243,2.1284,2.1243,2.1284,2.1284,2.1284,2.1295,2.1305,2.1305,2.1316,2.1381,2.1381,2.137,2.1349,2.1338,2.1518,2.1933,2.1956,2.2147,2.2411,2.2088,2.1731,2.1411,2.1045,2.0567,2.0272,2.0201,2.095,2.2171,2.1757,2.1303,2.1233,2.0545,2.0099,2.0018,2.0018,1.9978,1.9897,1.9897,1.95,1.8808,1.8705,1.8389,1.78,1.7627,1.7479,1.7256,1.7171,1.7069,1.678,1.6822,1.6861,1.6863,1.6949,1.7013,1.7204,1.7141,1.6966,1.6974,1.7069,1.7178,1.7159,1.7555,1.7745,1.7841,1.813,1.8261,1.8427,1.8514,1.8383,1.8383,1.8427,1.8514,1.8558,1.8602,1.8864,1.9335,1.9815,2.0414,2.1682,2.2254,2.2427,2.2729,2.2988,2.2988,2.3247,2.3462,2.372,2.3892,2.3849,2.3935,2.4064,2.4161,2.4227,2.4422,2.4726,2.4812,2.4949,2.5206,2.5408,2.1145,2.1316,2.1498,2.1448,2.1324,2.161,2.1695,2.1557,2.1881,2.2017,2.2028,2.2017,2.2007,2.1996,2.1834,2.1769,2.1739,2.1769,2.1758,2.1758,2.1728,2.1728,2.1758,2.1728,2.1739,2.1728,2.1769,2.1728,2.1728,2.1769,2.18,2.1852,2.1645,2.1593,2.1676,2.1304,2.0973,2.0848,2.0651,2.0517,2.033,2.0392,2.0724,2.1252,2.0879,2.0642,2.0642,2.0477,2.0101,1.9519,1.9477,1.9227,1.8727,1.8644,1.8518,1.8235,1.8193,1.7927,1.7433,1.7357,1.7171,1.6865,1.6896,1.6918,1.6771,1.6852,1.695,1.6955,1.6971,1.7061,1.708,1.7026,1.6971,1.6987,1.7071,1.7112,1.7112,1.7244,1.7332,1.7375,1.7507,1.7595,1.7699,1.7595,1.7595,1.7595,1.7595,1.7787,1.7998,1.8085,1.8234,1.8689,1.9161,1.9728,2.0467,2.1519,2.2081,2.2254,2.246,2.2729,2.2945,2.3031,2.3204,2.3247,2.3333,2.3484,2.3581,2.3964,2.4019,2.4228,2.4479,2.4603,2.4762,2.505,2.5208,2.0858,2.0902,2.1172,2.1178,2.109,2.1337,2.1415,2.1356,2.1779,2.199,2.2043,2.2159,2.2244,2.2244,2.2244,2.2202,2.2191,2.2093,2.2007,2.2007,2.2017,2.2028,2.2007,2.1986,2.1997,2.1986,2.2017,2.1934,2.1777,2.1766,2.1683,2.1515,2.1222,2.1086,2.1002,2.0593,2.0331,2.0162,1.9994,1.9868,1.9742,1.9751,1.9742,1.969,1.9674,1.9732,1.9923,1.98,1.9456,1.8908,1.8781,1.8485,1.7977,1.7892,1.7807,1.768,1.7672,1.7502,1.7161,1.7042,1.6989,1.6798,1.686,1.689,1.6898,1.6995,1.706,1.7112,1.7112,1.7112,1.712,1.7161,1.7177,1.7128,1.7112,1.7112,1.7112,1.7112,1.7145,1.7193,1.7254,1.727,1.7266,1.7283,1.7291,1.7283,1.7283,1.7416,1.7646,1.7734,1.7903,1.8345,1.8902,1.9308,2.0019,2.1017,2.1841,2.2113,2.2427,2.2643,2.2686,2.2686,2.2686,2.2686,2.2783,2.2945,2.3249,2.3674,2.3917,2.4094,2.4249,2.4405,2.4605,2.4916,2.5044,1.9921,2.0017,2.0911,2.1125,2.1115,2.1202,2.1269,2.1325,2.1801,2.1943,2.1954,2.2428,2.2557,2.2643,2.2589,2.2643,2.2546,2.2265,2.2093,2.2082,2.2071,2.2071,2.2082,2.2104,2.203,2.1978,2.1966,2.1746,2.1369,2.1379,2.1158,2.0749,2.0695,2.0589,2.0613,2.0073,1.9621,1.926,1.893,1.8479,1.7986,1.8157,1.8209,1.8124,1.8247,1.859,1.9156,1.8479,1.8157,1.8021,1.7978,1.791,1.7817,1.7817,1.7664,1.7298,1.723,1.7101,1.6871,1.6852,1.6961,1.7023,1.7088,1.7036,1.7036,1.7096,1.712,1.7145,1.7145,1.7136,1.7177,1.7291,1.7323,1.7153,1.7161,1.7177,1.7153,1.7128,1.7185,1.7339,1.7388,1.7461,1.753,1.7538,1.7514,1.7522,1.753,1.7567,1.7649,1.7641,1.7833,1.8248,1.881,1.9267,1.9915,2.0646,2.1353,2.2035,2.2416,2.2686,2.2686,2.2686,2.2686,2.2686,2.2686,2.2859,2.3021,2.3414,2.3534,2.3709,2.393,2.4219,2.442,2.4632,2.4931,1.9258,1.9303,1.9579,1.9927,2.0292,2.0594,2.0881,2.1052,2.1524,2.1651,2.1626,2.1995,2.2211,2.2298,2.2557,2.2686,2.2665,2.2525,2.246,2.2449,2.2449,2.2449,2.2449,2.246,2.23,2.2,2.1658,2.1476,2.1294,2.1294,2.1218,2.1004,2.0392,2.0134,2.0081,1.9368,1.8858,1.8728,1.859,1.8417,1.833,1.8287,1.833,1.8295,1.8096,1.8044,1.8217,1.8295,1.8165,1.7853,1.7818,1.7688,1.7419,1.7376,1.7289,1.7159,1.7115,1.7088,1.7015,1.7023,1.7003,1.7052,1.7112,1.7112,1.7112,1.712,1.7169,1.7266,1.7299,1.7339,1.7408,1.7473,1.7486,1.7323,1.7404,1.7453,1.74,1.7408,1.7449,1.7543,1.7559,1.7546,1.7587,1.7611,1.7627,1.7627,1.7619,1.7619,1.7611,1.7681,1.7829,1.8282,1.8815,1.9473,2.02,2.0982,2.1737,2.2223,2.2533,2.2708,2.2697,2.2686,2.2686,2.2718,2.2718,2.2837,2.2987,2.317,2.3386,2.3591,2.3956,2.4088,2.4143,2.4371,2.4722,1.8733,1.8779,1.8905,1.9176,1.9536,1.9851,2.0137,2.0514,2.0993,2.1225,2.1345,2.1774,2.1931,2.1913,2.2164,2.2242,2.2178,2.2211,2.2201,2.2201,2.2384,2.2341,2.2211,2.2168,2.2038,2.1735,2.1432,2.1085,2.0771,2.0771,2.0598,2.0163,1.9684,1.937,1.9335,1.8646,1.8252,1.8217,1.8068,1.7989,1.7981,1.7989,1.7989,1.7945,1.7682,1.7559,1.7551,1.7858,1.7858,1.7595,1.7551,1.7375,1.7112,1.7104,1.7112,1.7112,1.7112,1.7104,1.7112,1.7104,1.7112,1.7112,1.7112,1.7112,1.7128,1.7161,1.7274,1.7364,1.7445,1.7481,1.757,1.7668,1.7681,1.7599,1.7599,1.7603,1.7595,1.7595,1.7635,1.7668,1.77,1.7724,1.7819,1.7843,1.7797,1.7835,1.7835,1.7843,1.7835,1.7989,1.8301,1.8666,1.9304,1.9916,2.0577,2.1321,2.2124,2.2407,2.2681,2.2739,2.2718,2.2697,2.2697,2.2837,2.288,2.3095,2.33,2.344,2.3646,2.3862,2.4,2.4056,2.4148,2.4215,2.4503,1.827,1.836,1.8759,1.8975,1.902,1.9065,1.9364,1.9825,2.022,2.0651,2.1089,2.1497,2.1684,2.1588,2.169,2.1686,2.1426,2.1524,2.1403,2.1426,2.1623,2.1646,2.1486,2.1345,2.1172,2.1172,2.0998,2.0564,1.9858,1.9815,1.9379,1.8777,1.8646,1.8471,1.8427,1.7998,1.7735,1.7691,1.7375,1.72,1.72,1.7156,1.7156,1.7156,1.7156,1.7156,1.72,1.72,1.7156,1.7112,1.7156,1.7156,1.7112,1.7112,1.7112,1.7112,1.7112,1.7084,1.7128,1.7161,1.7169,1.7193,1.7201,1.7145,1.721,1.7331,1.7421,1.7478,1.7583,1.7627,1.7684,1.7789,1.7916,1.7908,1.7811,1.7692,1.7643,1.766,1.7741,1.79,1.794,1.7981,1.8103,1.8127,1.8127,1.8127,1.8166,1.8149,1.8297,1.8504,1.8803,1.9297,1.9875,2.0566,2.1276,2.1939,2.2684,2.2936,2.3091,2.3018,2.2912,2.2869,2.2869,2.2988,2.3051,2.3332,2.3549,2.3668,2.3819,2.3978,2.4075,2.4107,2.4164,2.4199,2.4237,1.8223,1.8223,1.8362,1.8593,1.8916,1.8925,1.9116,1.9505,1.9633,1.9907,2.0248,2.066,2.1054,2.1299,2.1611,2.1793,2.16,2.1644,2.1299,2.0771,2.0636,2.0963,2.1062,2.0598,2.025,2.0206,1.9693,1.9117,1.8908,1.8908,1.8733,1.8514,1.8121,1.7998,1.791,1.7507,1.7288,1.7288,1.72,1.7112,1.7112,1.7112,1.7112,1.7112,1.7112,1.7112,1.7112,1.7112,1.7112,1.7112,1.7112,1.7112,1.712,1.712,1.7136,1.7145,1.7136,1.7185,1.7283,1.7315,1.7364,1.7441,1.7461,1.7457,1.7457,1.7497,1.764,1.7737,1.7827,1.7892,1.7997,1.8062,1.8103,1.8103,1.803,1.8005,1.8014,1.8038,1.8062,1.8103,1.8103,1.8127,1.8152,1.8176,1.8176,1.8176,1.8223,1.8316,1.8604,1.8922,1.9209,1.9944,2.0603,2.1342,2.2014,2.2693,2.3195,2.346,2.3535,2.3449,2.3321,2.3214,2.3235,2.33,2.33,2.3517,2.3646,2.3765,2.3914,2.4097,2.4107,2.4118,2.4118,2.4153,2.4056,1.8176,1.8176,1.8176,1.8363,1.8604,1.8604,1.8824,1.9156,1.9185,1.9409,1.976,2.0016,2.0243,2.0496,2.0712,2.0781,2.067,2.0715,2.0336,1.9959,1.9777,1.9841,1.9934,1.9466,1.9292,1.9292,1.8777,1.8427,1.8252,1.8208,1.8121,1.7858,1.7639,1.7515,1.7515,1.7244,1.7112,1.7112,1.7112,1.7112,1.7112,1.7112,1.7112,1.7112,1.7112,1.7112,1.7112,1.7112,1.7112,1.7112,1.7112,1.7145,1.7218,1.7226,1.7258,1.7315,1.7287,1.7396,1.7461,1.7494,1.7534,1.757,1.7595,1.7595,1.7603,1.7651,1.7773,1.7838,1.7973,1.807,1.8144,1.8176,1.8176,1.8168,1.8176,1.8176,1.8176,1.816,1.8176,1.8176,1.8176,1.8176,1.8176,1.8176,1.8176,1.8223,1.8409,1.8604,1.8837,1.9209,1.9759,2.0501,2.1195,2.1879,2.2478,2.3066,2.3479,2.3756,2.3828,2.3808,2.3646,2.3483,2.3494,2.3504,2.3571,2.3635,2.3797,2.3916,2.3978,2.4097,2.4107,2.4118,2.4118,2.4118,2.4011,1.8176,1.8176,1.8176,1.8176,1.8223,1.8223,1.8456,1.8735,1.882,1.9137,1.95,1.961,1.9635,1.942,1.9786,1.9414,1.9219,1.9481,1.9201,1.9102,1.8959,1.8856,1.862,1.869,1.8593,1.8593,1.8453,1.8163,1.7888,1.7827,1.7565,1.7397,1.7205,1.7128,1.7164,1.7112,1.7112,1.7112,1.7112,1.7112,1.7112,1.7112,1.7112,1.7112,1.7112,1.7136,1.7153,1.7161,1.7161,1.7133,1.7153,1.7242,1.7388,1.7413,1.7469,1.753,1.7538,1.7562,1.7619,1.7627,1.7643,1.7684,1.7692,1.7651,1.7716,1.7822,1.7957,1.7973,1.8133,1.8152,1.8168,1.8176,1.8176,1.8176,1.8176,1.8176,1.8176,1.8176,1.8176,1.8176,1.8176,1.8176,1.8176,1.8176,1.8223,1.8456,1.8642,1.8922,1.9395,1.9944,2.0455,2.1103,2.1806,2.2416,2.2913,2.3419,2.3694,2.3962,2.3986,2.3957,2.3752,2.3655,2.3722,2.3743,2.3763,2.386,2.3978,2.4075,2.4097,2.4097,2.4118,2.4118,2.4118,2.4118,2.4054,1.8176,1.8176,1.8176,1.8176,1.8176,1.8176,1.8269,1.8363,1.8363,1.8642,1.8977,1.907,1.9276,1.9604,1.9503,1.9578,1.9424,1.9407,1.9288,1.8729,1.8317,1.8056,1.7919,1.8155,1.8335,1.8273,1.7922,1.7743,1.7653,1.7657,1.7543,1.7384,1.7315,1.725,1.7136,1.7136,1.7112,1.7112,1.7112,1.7112,1.7112,1.7112,1.712,1.7128,1.7128,1.7193,1.7299,1.7331,1.7396,1.7461,1.7421,1.7429,1.7506,1.7546,1.7624,1.7611,1.7627,1.7668,1.7819,1.7859,1.7916,1.8005,1.8014,1.8062,1.8062,1.807,1.8111,1.8119,1.8198,1.8176,1.8176,1.8176,1.8176,1.8176,1.8176,1.8176,1.8176,1.8176,1.8176,1.8176,1.8176,1.8176,1.8176,1.8223,1.8363,1.865,1.9023,1.9294,1.9898,2.0594,2.1195,2.1796,2.236,2.2923,2.3245,2.3659,2.3843,2.4026,2.4072,2.4107,2.3903,2.3849,2.3871,2.3946,2.4021,2.4097,2.4118,2.4118,2.4107,2.4118,2.4118,2.4118,2.4118,2.4118,2.4097,1.8176,1.8176,1.8176,1.8176,1.8176,1.8176,1.8176,1.8176,1.8176,1.8316,1.8511,1.8557,1.8735,1.9015,1.8968,1.8968,1.9015,1.8968,1.8824,1.8463,1.8169,1.7981,1.7916,1.8051,1.8201,1.7961,1.773,1.7595,1.7595,1.7603,1.7583,1.7518,1.7502,1.7413,1.7266,1.7242,1.7193,1.712,1.7112,1.7112,1.7112,1.7112,1.7169,1.7226,1.725,1.7323,1.7486,1.751,1.7599,1.7651,1.7689,1.7672,1.77,1.7724,1.7757,1.7875,1.7892,1.7924,1.8014,1.8038,1.8079,1.8206,1.8176,1.8176,1.8176,1.8176,1.8176,1.8176,1.8176,1.8176,1.8176,1.8176,1.8176,1.8176,1.8176,1.8176,1.8176,1.8176,1.8176,1.8176,1.8176,1.8176,1.8223,1.8363,1.8596,1.8883,1.9666,1.9991,2.0501,2.1195,2.1898,2.2498,2.2969,2.3383,2.3659,2.3889,2.3981,2.4072,2.4072,2.4118,2.4043,2.4043,2.4086,2.4107,2.4097,2.4107,2.4118,2.4118,2.4118,2.4118,2.4118,2.4118,2.4118,2.4118,2.4097,1.8176,1.8176,1.8176,1.8176,1.8176,1.8176,1.8176,1.8176,1.8176,1.8223,1.8176,1.8176,1.8316,1.8223,1.8269,1.8223,1.8223,1.8269,1.8291,1.8245,1.819,1.8135,1.8166,1.8141,1.8106,1.7692,1.7716,1.7762,1.7708,1.7676,1.7754,1.7651,1.7635,1.7546,1.7461,1.7421,1.7372,1.7222,1.7206,1.7198,1.719,1.719,1.7307,1.7388,1.7429,1.751,1.7603,1.7651,1.7724,1.794,1.7957,1.7957,1.7957,1.7965,1.8005,1.8206,1.8127,1.8127,1.8135,1.8152,1.8168,1.8176,1.8176,1.8176,1.8176,1.8176,1.8176,1.8176,1.8176,1.8176,1.8176,1.8176,1.8176,1.8176,1.8176,1.8176,1.8176,1.8176,1.8176,1.8176,1.8223,1.8223,1.8409,1.8596,1.8837,1.9209,1.9991,2.0733,2.1242,2.1806,2.2498,2.2959,2.3383,2.3659,2.3889,2.3981,2.4072,2.4118,2.4118,2.4118,2.4118,2.4118,2.4118,2.4118,2.4118,2.4118,2.4118,2.4118,2.4118,2.4118,2.4118,2.4118,2.4118,2.4118,2.4097,1.8176,1.8176,1.8176,1.8176,1.8176,1.8176,1.8176,1.8176,1.8176,1.8176,1.8176,1.8176,1.8176,1.8176,1.8176,1.8176,1.8176,1.8176,1.8176,1.8176,1.8176,1.8176,1.8176,1.8176,1.8127,1.8157,1.8062,1.8038,1.8046,1.8079,1.7965,1.7846,1.7822,1.7778,1.7603,1.7554,1.753,1.7449,1.7449,1.7449,1.7457,1.7457,1.7489,1.7546,1.7599,1.7697,1.7781,1.7838,1.7957,1.8111,1.8174,1.8127,1.8111,1.8111,1.8182,1.8206,1.8176,1.8176,1.8176,1.8176,1.8176,1.8176,1.8176,1.8176,1.8176,1.8176,1.8176,1.8176,1.8176,1.8176,1.8176,1.8176,1.8176,1.8176,1.8176,1.8176,1.8176,1.8176,1.8176,1.8176,1.8223,1.8316,1.8596,1.8977,1.9395,1.986,2.0594,2.1288,2.1898,2.2452,2.3097,2.3429,2.374,2.3935,2.4072,2.4072,2.4118,2.4118,2.4118,2.4118,2.4118,2.4118,2.4118,2.4118,2.4118,2.4118,2.4118,2.4118,2.4118,2.4118,2.4118,2.4118,2.4118,2.4118,2.4118,1.8176,1.8176,1.8176,1.8176,1.8176,1.8176,1.8176,1.8176,1.8176,1.8176,1.8176,1.8176,1.8176,1.8176,1.8176,1.8176,1.8176,1.8176,1.8176,1.8176,1.8176,1.8176,1.8176,1.8176,1.8176,1.8168,1.8176,1.8176,1.8176,1.8168,1.8119,1.8079,1.8054,1.7965,1.7781,1.7732,1.7684,1.7643,1.7611,1.7611,1.7603,1.7603,1.7635,1.7716,1.7749,1.7875,1.8014,1.8054,1.8087,1.8206,1.8176,1.8176,1.8176,1.8176,1.8176,1.8176,1.8176,1.8176,1.8176,1.8176,1.8176,1.8176,1.8176,1.8176,1.8176,1.8176,1.8176,1.8176,1.8176,1.8176,1.8176,1.8176,1.8176,1.8176,1.8176,1.8176,1.8176,1.8176,1.8223,1.8223,1.8269,1.8456,1.8837,1.9256,1.986,2.0501,2.1195,2.1852,2.2452,2.3005,2.3521,2.3751,2.3935,2.3981,2.4118,2.4118,2.4118,2.4118,2.4118,2.4118,2.4118,2.4118,2.4118,2.4118,2.4118,2.4118,2.4118,2.4118,2.4118,2.4118,2.4118,2.4118,2.4118,2.4118,2.4118,1.8176,1.8176,1.8176,1.8176,1.8176,1.8176,1.8176,1.8176,1.8176,1.8176,1.8176,1.8176,1.8176,1.8176,1.8176,1.8176,1.8176,1.8176,1.8176,1.8176,1.8176,1.8176,1.8176,1.8176,1.8176,1.8176,1.8176,1.8176,1.8176,1.8176,1.8176,1.816,1.8168,1.8119,1.7989,1.7965,1.7859,1.7802,1.77,1.77,1.77,1.7708,1.7765,1.7949,1.7973,1.803,1.8135,1.8152,1.8152,1.8176,1.8176,1.8176,1.8176,1.8176,1.8176,1.8176,1.8176,1.8176,1.8176,1.8176,1.8176,1.8176,1.8176,1.8176,1.8176,1.8176,1.8176,1.8176,1.8176,1.8176,1.8176,1.8176,1.8176,1.8176,1.8176,1.8223,1.8269,1.8316,1.8409,1.8409,1.8409,1.8735,1.9209,1.9628,2.0223,2.102,2.176,2.2314,2.2923,2.3291,2.3751,2.3935,2.4072,2.4072,2.4118,2.4118,2.4118,2.4118,2.4118,2.4118,2.4118,2.4118,2.4118,2.4118,2.4118,2.4118,2.4118,2.4118,2.4118,2.4118,2.4118,2.4118,2.4118,2.4118,2.4118,1.8176,1.8176,1.8176,1.8176,1.8176,1.8176,1.8176,1.8176,1.8176,1.8176,1.8176,1.8176,1.8176,1.8176,1.8176,1.8176,1.8176,1.8176,1.8176,1.8176,1.8176,1.8176,1.8176,1.8176,1.8176,1.8176,1.8176,1.8176,1.8176,1.8176,1.8176,1.8176,1.8176,1.8152,1.8119,1.8103,1.8135,1.8103,1.8095,1.8087,1.8079,1.807,1.8095,1.8119,1.8127,1.8135,1.8168,1.8176,1.8176,1.8176,1.8176,1.8176,1.8176,1.8176,1.8176,1.8176,1.8176,1.8176,1.8176,1.8176,1.8176,1.8176,1.8176,1.8176,1.8176,1.8176,1.8176,1.8176,1.8176,1.8176,1.8176,1.8176,1.8176,1.8176,1.8176,1.8223,1.8269,1.8502,1.865,1.9061,1.9201,1.9387,1.9767,2.0176,2.0686,2.1483,2.2222,2.2775,2.3291,2.3659,2.3843,2.4026,2.4118,2.4118,2.4118,2.4118,2.4118,2.4118,2.4118,2.4118,2.4118,2.4118,2.4118,2.4118,2.4118,2.4118,2.4118,2.4118,2.4118,2.4118,2.4118,2.4118,2.4118,2.4118,2.4118,1.8176,1.8176,1.8176,1.8176,1.8176,1.8176,1.8176,1.8176,1.8176,1.8176,1.8176,1.8176,1.8176,1.8176,1.8176,1.8176,1.8176,1.8176,1.8176,1.8176,1.8176,1.8176,1.8176,1.8176,1.8176,1.8176,1.8176,1.8176,1.8176,1.8176,1.8176,1.8176,1.8176,1.8176,1.8176,1.8176,1.8176,1.8168,1.8168,1.8176,1.8176,1.8176,1.8176,1.8176,1.8176,1.8176,1.8176,1.8176,1.8176,1.8176,1.8176,1.8176,1.8176,1.8176,1.8176,1.8176,1.8176,1.8176,1.8176,1.8176,1.8176,1.8176,1.8176,1.8176,1.8176,1.8176,1.8176,1.8176,1.8176,1.8176,1.8176,1.8176,1.8176,1.8176,1.8223,1.8409,1.8502,1.8697,1.8977,1.9488,1.9991,2.0278,2.0501,2.0872,2.138,2.2037,2.2683,2.3199,2.3567,2.3889,2.4026,2.4072,2.4118,2.4118,2.4118,2.4118,2.4118,2.4118,2.4118,2.4118,2.4118,2.4118,2.4118,2.4118,2.4118,2.4118,2.4118,2.4118,2.4118,2.4118,2.4118,2.4118,2.4118,2.4118,2.4118,1.8176,1.8176,1.8176,1.8176,1.8176,1.8176,1.8176,1.8176,1.8176,1.8176,1.8176,1.8176,1.8176,1.8176,1.8176,1.8176,1.8176,1.8176,1.8176,1.8176,1.8176,1.8176,1.8176,1.8176,1.8176,1.8176,1.8176,1.8176,1.8176,1.8176,1.8176,1.8176,1.8176,1.8176,1.8176,1.8176,1.8176,1.8176,1.8176,1.8176,1.8176,1.8176,1.8176,1.8176,1.8176,1.8176,1.8176,1.8176,1.8176,1.8176,1.8176,1.8176,1.8176,1.8176,1.8176,1.8176,1.8176,1.8176,1.8176,1.8176,1.8176,1.8176,1.8176,1.8176,1.8176,1.8176,1.8176,1.8176,1.8176,1.8176,1.8176,1.8176,1.8176,1.8223,1.8316,1.8604,1.8883,1.9209,1.9666,2.0223,2.0779,2.1242,2.1473,2.1704,2.2119,2.2683,2.3189,2.3624,2.3853,2.4094,2.4072,2.4118,2.4118,2.4118,2.4118,2.4118,2.4118,2.4118,2.4118,2.4118,2.4118,2.4118,2.4118,2.4118,2.4118,2.4118,2.4118,2.4118,2.4118,2.4118,2.4118,2.4118,2.4118,2.4118,2.4118,1.8176,1.8176,1.8176,1.8176,1.8176,1.8176,1.8176,1.8176,1.8176,1.8176,1.8176,1.8176,1.8176,1.8176,1.8176,1.8176,1.8176,1.8176,1.8176,1.8176,1.8176,1.8176,1.8176,1.8176,1.8176,1.8176,1.8176,1.8176,1.8176,1.8176,1.8176,1.8176,1.8176,1.8176,1.8176,1.8176,1.8176,1.8176,1.8176,1.8176,1.8176,1.8176,1.8176,1.8176,1.8176,1.8176,1.8176,1.8176,1.8176,1.8176,1.8176,1.8176,1.8176,1.8176,1.8176,1.8176,1.8176,1.8176,1.8176,1.8176,1.8176,1.8176,1.8176,1.8176,1.8176,1.8176,1.8176,1.8176,1.8176,1.8176,1.8176,1.8176,1.8223,1.8363,1.8596,1.8883,1.9349,1.9944,2.0408,2.101,2.1604,2.2162,2.2556,2.2782,2.2711,2.3221,2.3561,2.3999,2.4031,2.4194,2.4151,2.4129,2.4118,2.4118,2.4118,2.4118,2.4118,2.4118,2.4118,2.4118,2.4118,2.4118,2.4118,2.4118,2.4118,2.4118,2.4118,2.4118,2.4118,2.4118,2.4118,2.4118,2.4118,2.4118,2.4118,1.8176,1.8176,1.8176,1.8176,1.8176,1.8176,1.8176,1.8176,1.8176,1.8176,1.8176,1.8176,1.8176,1.8176,1.8176,1.8176,1.8176,1.8176,1.8176,1.8176,1.8176,1.8176,1.8176,1.8176,1.8176,1.8176,1.8176,1.8176,1.8176,1.8176,1.8176,1.8176,1.8176,1.8176,1.8176,1.8176,1.8176,1.8176,1.8176,1.8176,1.8176,1.8176,1.8176,1.8176,1.8176,1.8176,1.8176,1.8176,1.8176,1.8176,1.8176,1.8176,1.8176,1.8176,1.8176,1.8176,1.8176,1.8176,1.8176,1.8176,1.8176,1.8176,1.8176,1.8176,1.8176,1.8176,1.8176,1.8176,1.8176,1.8176,1.8176,1.8223,1.8316,1.8549,1.8883,1.9256,1.9831,2.0491,2.1263,2.1878,2.2543,2.3199,2.3562,2.3915,2.3764,2.3727,2.4033,2.4262,2.4295,2.4312,2.429,2.4226,2.4204,2.4172,2.4161,2.4151,2.4118,2.4118,2.4118,2.4118,2.4118,2.4118,2.4118,2.4118,2.4118,2.4118,2.4118,2.4118,2.4118,2.4118,2.4118,2.4118,2.4118,2.4118,2.4118,1.8176,1.8176,1.8176,1.8176,1.8176,1.8176,1.8176,1.8176,1.8176,1.8176,1.8176,1.8176,1.8176,1.8176,1.8176,1.8176,1.8176,1.8176,1.8176,1.8176,1.8176,1.8176,1.8176,1.8176,1.8176,1.8176,1.8176,1.8176,1.8176,1.8176,1.8176,1.8176,1.8176,1.8176,1.8176,1.8176,1.8176,1.8176,1.8176,1.8176,1.8176,1.8176,1.8176,1.8176,1.8176,1.8176,1.8176,1.8176,1.8176,1.8176,1.8176,1.8176,1.8176,1.8176,1.8176,1.8176,1.8176,1.8176,1.8176,1.8176,1.8176,1.8176,1.8176,1.8176,1.8176,1.8176,1.8176,1.8176,1.8176,1.8176,1.8223,1.8363,1.8502,1.879,1.9387,1.9823,2.0518,2.1217,2.2032,2.2739,2.3353,2.3863,2.4229,2.4492,2.4413,2.426,2.4379,2.4563,2.4567,2.4549,2.4517,2.443,2.4334,2.428,2.4226,2.4172,2.4118,2.4118,2.4118,2.4118,2.4118,2.4118,2.4118,2.4118,2.4118,2.4118,2.4118,2.4118,2.4118,2.4118,2.4118,2.4118,2.4118,2.4118,2.4118,1.8176,1.8176,1.8176,1.8176,1.8176,1.8176,1.8176,1.8176,1.8176,1.8176,1.8176,1.8176,1.8176,1.8176,1.8176,1.8176,1.8176,1.8176,1.8176,1.8176,1.8176,1.8176,1.8176,1.8176,1.8176,1.8176,1.8176,1.8176,1.8176,1.8176,1.8176,1.8176,1.8176,1.8176,1.8176,1.8176,1.8176,1.8176,1.8176,1.8176,1.8176,1.8176,1.8176,1.8176,1.8176,1.8176,1.8176,1.8176,1.8176,1.8176,1.8176,1.8176,1.8176,1.8176,1.8176,1.8176,1.8176,1.8176,1.8176,1.8176,1.8176,1.8176,1.8176,1.8176,1.8176,1.8176,1.8176,1.8176,1.8269,1.8269,1.8363,1.8604,1.8883,1.9311,1.9916,2.0537,2.1245,2.2071,2.2893,2.3469,2.3831,2.4298,2.4667,2.4921,2.4932,2.4878,2.4829,2.4807,2.4807,2.4786,2.4753,2.4581,2.4463,2.4387,2.4312,2.4183,2.4118,2.4118,2.4118,2.4118,2.4118,2.4118,2.4118,2.4118,2.4118,2.4118,2.4118,2.4118,2.4118,2.4118,2.4118,2.4118,2.4118,2.4118,2.4118,1.8176,1.8176,1.8176,1.8176,1.8176,1.8176,1.8176,1.8176,1.8176,1.8176,1.8176,1.8176,1.8176,1.8176,1.8176,1.8176,1.8176,1.8176,1.8176,1.8176,1.8176,1.8176,1.8176,1.8176,1.8176,1.8176,1.8176,1.8176,1.8176,1.8176,1.8176,1.8176,1.8176,1.8176,1.8176,1.8176,1.8176,1.8176,1.8176,1.8176,1.8176,1.8176,1.8176,1.8176,1.8176,1.8176,1.8176,1.8176,1.8176,1.8176,1.8176,1.8176,1.8176,1.8176,1.8176,1.8176,1.8176,1.8176,1.8176,1.8176,1.8176,1.8176,1.8176,1.8176,1.8176,1.8176,1.8176,1.8316,1.8549,1.8596,1.8744,1.9163,1.9544,2.0035,2.063,2.1254,2.1977,2.2971,2.3773,2.414,2.452,2.4806,2.5179,2.5195,2.5184,2.5184,2.5098,2.5066,2.5066,2.5033,2.499,2.4753,2.4592,2.4552,2.4445,2.4237,2.4129,2.4118,2.4118,2.4118,2.4118,2.4118,2.4118,2.4118,2.4118,2.4118,2.4118,2.4118,2.4118,2.4118,2.4118,2.4118,2.4118,2.4118,2.4118,1.8176,1.8176,1.8176,1.8176,1.8176,1.8176,1.8176,1.8176,1.8176,1.8176,1.8176,1.8176,1.8176,1.8176,1.8176,1.8176,1.8176,1.8176,1.8176,1.8176,1.8176,1.8176,1.8176,1.8176,1.8176,1.8176,1.8176,1.8176,1.8176,1.8176,1.8176,1.8176,1.8176,1.8176,1.8176,1.8176,1.8176,1.8176,1.8176,1.8176,1.8176,1.8176,1.8176,1.8176,1.8176,1.8176,1.8176,1.8176,1.8176,1.8176,1.8176,1.8176,1.8176,1.8176,1.8176,1.8176,1.8176,1.8176,1.8176,1.8176,1.8176,1.8176,1.8176,1.8176,1.8269,1.8363,1.8456,1.8604,1.893,1.9116,1.9302,1.9721,2.0471,2.0965,2.1554,2.2196,2.2929,2.3887,2.4335,2.4705,2.4944,2.5255,2.5475,2.5453,2.5399,2.5389,2.5367,2.5313,2.526,2.5206,2.512,2.4904,2.4689,2.4628,2.4477,2.4247,2.4161,2.4118,2.4118,2.4118,2.4118,2.4118,2.4118,2.4118,2.4118,2.4118,2.4118,2.4118,2.4118,2.4118,2.4118,2.4118,2.4118,2.4118,2.4118,1.8176,1.8176,1.8176,1.8176,1.8176,1.8176,1.8176,1.8176,1.8176,1.8176,1.8176,1.8176,1.8176,1.8176,1.8176,1.8176,1.8176,1.8176,1.8176,1.8176,1.8176,1.8176,1.8176,1.8176,1.8176,1.8176,1.8176,1.8176,1.8176,1.8176,1.8176,1.8176,1.8176,1.8176,1.8176,1.8176,1.8176,1.8176,1.8176,1.8176,1.8176,1.8176,1.8176,1.8176,1.8176,1.8176,1.8176,1.8176,1.8176,1.8176,1.8176,1.8176,1.8176,1.8176,1.8176,1.8176,1.8176,1.8176,1.8223,1.8223,1.8316,1.8371,1.8442,1.8286,1.8363,1.8689,1.8875,1.9154,1.948,1.9666,1.986,2.0685,2.1517,2.2092,2.269,2.3324,2.3994,2.4561,2.4848,2.5088,2.5297,2.5507,2.5496,2.5486,2.5389,2.5303,2.5238,2.5195,2.5163,2.5227,2.5141,2.5012,2.4818,2.4693,2.4474,2.4258,2.4161,2.4118,2.4118,2.4118,2.4118,2.4118,2.4118,2.4118,2.4118,2.4118,2.4118,2.4118,2.4118,2.4118,2.4118,2.4118,2.4118,2.4118,2.4118,1.8176,1.8176,1.8176,1.8176,1.8176,1.8176,1.8176,1.8176,1.8176,1.8176,1.8176,1.8176,1.8176,1.8176,1.8176,1.8176,1.8176,1.8176,1.8176,1.8176,1.8176,1.8176,1.8176,1.8176,1.8176,1.8176,1.8176,1.8176,1.8176,1.8176,1.8176,1.8176,1.8176,1.8176,1.8176,1.8176,1.8176,1.8176,1.8176,1.8176,1.8176,1.8176,1.8176,1.8176,1.8176,1.8176,1.8176,1.8176,1.8176,1.8176,1.8176,1.8176,1.8176,1.8176,1.8176,1.8176,1.8176,1.8176,1.8269,1.8502,1.8697,1.8879,1.9134,1.907,1.9074,1.9235,1.9552,1.9814,2.0325,2.0649,2.1058,2.175,2.2364,2.2869,2.3466,2.4073,2.4672,2.489,2.5179,2.5308,2.5518,2.5486,2.5475,2.5367,2.526,2.5163,2.5076,2.5012,2.5023,2.5076,2.5055,2.4926,2.4786,2.4628,2.4488,2.4247,2.4172,2.4118,2.4118,2.4118,2.4118,2.4118,2.4118,2.4118,2.4118,2.4118,2.4118,2.4118,2.4118,2.4118,2.4118,2.4118,2.4118,2.4118,2.4118,1.8176,1.8176,1.8176,1.8176,1.8176,1.8176,1.8176,1.8176,1.8176,1.8176,1.8176,1.8176,1.8176,1.8176,1.8176,1.8176,1.8176,1.8176,1.8176,1.8176,1.8176,1.8176,1.8176,1.8176,1.8176,1.8176,1.8176,1.8176,1.8176,1.8176,1.8176,1.8176,1.8176,1.8176,1.8176,1.8176,1.8176,1.8176,1.8176,1.8176,1.8176,1.8176,1.8176,1.8176,1.8176,1.8176,1.8176,1.8176,1.8176,1.8176,1.8176,1.8176,1.8176,1.8176,1.8176,1.8223,1.8409,1.8511,1.8604,1.8977,1.9197,1.9461,1.9941,2.0165,2.0279,2.0393,2.0424,2.0528,2.1214,2.1882,2.2297,2.2716,2.3138,2.3574,2.4154,2.4752,2.504,2.5249,2.5378,2.5459,2.5496,2.5453,2.5378,2.5249,2.5113,2.4872,2.4721,2.4635,2.4689,2.4797,2.4775,2.4689,2.4581,2.4452,2.4334,2.4237,2.4172,2.4118,2.4118,2.4118,2.4118,2.4129,2.4151,2.414,2.4118,2.4118,2.4129,2.4118,2.4118,2.4118,2.4118,2.4118,2.4118,2.4118,2.4118,1.8176,1.8176,1.8176,1.8176,1.8176,1.8176,1.8176,1.8176,1.8176,1.8176,1.8176,1.8176,1.8176,1.8176,1.8176,1.8176,1.8176,1.8176,1.8176,1.8176,1.8176,1.8176,1.8176,1.8176,1.8176,1.8176,1.8176,1.8176,1.8176,1.8176,1.8176,1.8176,1.8176,1.8176,1.8176,1.8176,1.8176,1.8176,1.8176,1.8176,1.8176,1.8176,1.8176,1.8176,1.8176,1.8176,1.8176,1.8176,1.8176,1.8176,1.8176,1.8176,1.8316,1.8316,1.8316,1.8502,1.8837,1.893,1.9133,1.9485,1.99,2.0223,2.0604,2.1215,2.1508,2.1461,2.1339,2.16,2.231,2.2713,2.3104,2.3617,2.4104,2.4335,2.4774,2.5137,2.5308,2.5448,2.5448,2.5496,2.5421,2.5367,2.5249,2.5157,2.4898,2.465,2.4441,2.4344,2.4387,2.4517,2.4517,2.4474,2.4398,2.4312,2.4237,2.4161,2.414,2.4118,2.414,2.4194,2.4247,2.4226,2.4183,2.4215,2.4237,2.4161,2.414,2.4129,2.4118,2.4118,2.4118,2.4118,2.4118,2.4118,2.4118,1.8176,1.8176,1.8176,1.8176,1.8176,1.8176,1.8176,1.8176,1.8176,1.8176,1.8176,1.8176,1.8176,1.8176,1.8176,1.8176,1.8176,1.8176,1.8176,1.8176,1.8176,1.8176,1.8176,1.8176,1.8176,1.8176,1.8176,1.8176,1.8176,1.8176,1.8176,1.8176,1.8176,1.8176,1.8176,1.8176,1.8176,1.8176,1.8176,1.8176,1.8176,1.8176,1.8176,1.8176,1.8176,1.8176,1.8176,1.8176,1.8176,1.8176,1.8176,1.8363,1.8697,1.8744,1.8977,1.9256,1.9395,1.9497,1.9774,2.0171,2.071,2.1282,2.183,2.2392,2.2696,2.2495,2.2531,2.2859,2.3206,2.3566,2.3942,2.4462,2.4918,2.5105,2.5271,2.5394,2.5518,2.5518,2.5518,2.5432,2.5346,2.5238,2.512,2.4952,2.4693,2.4441,2.428,2.4183,2.4194,2.4269,2.4301,2.4269,2.4226,2.4161,2.4118,2.4118,2.4118,2.4194,2.4237,2.4301,2.4423,2.443,2.4463,2.4409,2.4423,2.429,2.4194,2.4129,2.4118,2.4118,2.4118,2.4118,2.4118,2.4118,2.4118,1.8176,1.8176,1.8176,1.8176,1.8176,1.8176,1.8176,1.8176,1.8176,1.8176,1.8176,1.8176,1.8176,1.8176,1.8176,1.8176,1.8176,1.8176,1.8176,1.8176,1.8176,1.8176,1.8176,1.8176,1.8176,1.8176,1.8176,1.8176,1.8176,1.8176,1.8176,1.8176,1.8176,1.8176,1.8176,1.8176,1.8176,1.8176,1.8176,1.8176,1.8176,1.8176,1.8176,1.8176,1.8176,1.8176,1.8176,1.8176,1.8176,1.8316,1.8409,1.8828,1.9116,1.9256,1.9395,1.9619,1.986,2.0166,2.0545,2.1039,2.1659,2.2372,2.2795,2.3267,2.3812,2.3645,2.3473,2.3792,2.4036,2.4329,2.4536,2.4965,2.5142,2.5319,2.5383,2.5496,2.5518,2.5518,2.5432,2.5303,2.5195,2.5055,2.4962,2.4757,2.452,2.4301,2.414,2.4129,2.4118,2.4118,2.4118,2.4118,2.4118,2.4118,2.4118,2.4118,2.4118,2.4204,2.4369,2.4474,2.4592,2.4689,2.4743,2.4657,2.4596,2.4455,2.4312,2.4215,2.4129,2.4118,2.4118,2.4118,2.4118,2.4118,2.4118,1.8176,1.8176,1.8176,1.8176,1.8176,1.8176,1.8176,1.8176,1.8176,1.8176,1.8176,1.8176,1.8176,1.8176,1.8176,1.8176,1.8176,1.8176,1.8176,1.8176,1.8176,1.8176,1.8176,1.8176,1.8176,1.8176,1.8176,1.8176,1.8176,1.8176,1.8176,1.8176,1.8176,1.8176,1.8176,1.8176,1.8176,1.8176,1.8176,1.8176,1.8176,1.8176,1.8176,1.8176,1.8176,1.8176,1.8176,1.8176,1.8176,1.8502,1.879,1.9247,1.9666,1.9898,2.0083,2.0325,2.0797,2.1207,2.1611,2.2121,2.2819,2.3458,2.3713,2.4077,2.457,2.4664,2.4534,2.4572,2.4768,2.4921,2.513,2.5238,2.5367,2.5443,2.5486,2.5507,2.5507,2.5486,2.5335,2.5173,2.5059,2.4919,2.4747,2.4542,2.4334,2.4172,2.4118,2.4118,2.4118,2.4118,2.4118,2.4118,2.4118,2.4118,2.4118,2.4118,2.4118,2.4226,2.4355,2.4603,2.4829,2.499,2.5023,2.4872,2.4743,2.4671,2.4488,2.4312,2.4237,2.4151,2.4118,2.4118,2.4118,2.4118,2.4118,1.8176,1.8176,1.8176,1.8176,1.8176,1.8176,1.8176,1.8176,1.8176,1.8176,1.8176,1.8176,1.8176,1.8176,1.8176,1.8176,1.8176,1.8176,1.8176,1.8176,1.8176,1.8176,1.8176,1.8176,1.8176,1.8176,1.8176,1.8176,1.8176,1.8176,1.8176,1.8176,1.8176,1.8176,1.8176,1.8176,1.8176,1.8176,1.8176,1.8176,1.8176,1.8176,1.8176,1.8176,1.8176,1.8176,1.8176,1.8176,1.8417,1.879,1.9302,1.9805,2.0269,2.0686,2.101,2.1289,2.1774,2.2246,2.2702,2.3084,2.3718,2.4166,2.4425,2.4684,2.506,2.5254,2.5147,2.5147,2.5303,2.5303,2.541,2.541,2.5486,2.5486,2.5518,2.5496,2.5486,2.5356,2.5206,2.5059,2.4854,2.4714,2.4563,2.4401,2.4226,2.4118,2.4118,2.4118,2.4118,2.4118,2.4118,2.4118,2.4118,2.4118,2.4118,2.4118,2.414,2.4247,2.4452,2.4775,2.5076,2.5335,2.5324,2.513,2.5012,2.4941,2.4747,2.452,2.4358,2.4226,2.4151,2.4118,2.4118,2.4118,2.4118]},{"header":{"parameterUnit":"m.s-1","parameterCategory":1,"la1":31.0,"la2":29.5877,"lo1":-88.7671,"lo2":-86.6584,"dy":0.0162,"dx":0.0185,"nx":115,"ny":88,"refTime":"2023-09-26T12:00:00:Z","depth":0,"parameterNumber":3,"parameterNumberName":"V-component_of_WINDS"},"data":[0.0,0.0,0.0,0.0,0.0,0.0,0.0,0.0,0.0,0.0,0.0,0.0,0.0,0.0,0.0,0.0,0.0,0.0,0.0,0.0,0.0,0.0,0.0,0.0,0.0,0.0,0.0,0.0,0.0,0.0,0.0,0.0,0.0,0.0,0.0,0.0,0.0,0.0,0.0,0.0,0.0,0.0,0.0,0.0,0.0,0.0,0.0,0.0,0.0,0.0,0.0,0.0,0.0,0.0,0.0,0.0,0.0,0.0,0.0,0.0,0.0,0.0,0.0,0.0,0.0,0.0,0.0,0.0,0.0,0.0,0.0,0.0,0.0,0.0,0.0,0.0,0.0,0.0,0.0,0.0,0.0,0.0,0.0,0.0,0.0,0.0,0.0,0.0,0.0,0.0,0.0,0.0,0.0,0.0,0.0,0.0,0.0,0.0,0.0,0.0,0.0,0.0,0.0,0.0,0.0,0.0,0.0,0.0,0.0,0.0,0.0,0.0,0.0,0.0,0.0,0.0,0.0,0.0,0.0,0.0,0.0,0.0,0.0,0.0,0.0,0.0,0.0,0.0,0.0,0.0,0.0,0.0,0.0,0.0,0.0,0.0,0.0,0.0,0.0,0.0,0.0,0.0,0.0,0.0,0.0,0.0,0.0,0.0,0.0,0.0,0.0,0.0,0.0,0.0,0.0,0.0,0.0,0.0,0.0,0.0,0.0,0.0,0.0,0.0,0.0,0.0,0.0,0.0,0.0,0.0,0.0,0.0,0.0,0.0,0.0,0.0,0.0,0.0,0.0,0.0,0.0,0.0,0.0,0.0,0.0,0.0,0.0,0.0,0.0,0.0,0.0,0.0,0.0,0.0,0.0,0.0,0.0,0.0,0.0,0.0,0.0,0.0,0.0,0.0,0.0,0.0,0.0,0.0,0.0,0.0,0.0,0.0,0.0,0.0,0.0,0.0,0.0,0.0,0.0,0.0,0.0,0.0,0.0,0.0,0.0,0.0,0.0,0.0,0.0,0.0,0.0,0.0,0.0,0.0,0.0,0.0,0.0,0.0,0.0,0.0,0.0,0.0,0.0,0.0,0.0,0.0,0.0,0.0,0.0,0.0,0.0,0.0,0.0,0.0,0.0,0.0,0.0,0.0,0.0,0.0,0.0,0.0,0.0,0.0,0.0,0.0,0.0,0.0,0.0,0.0,0.0,0.0,0.0,0.0,0.0,0.0,0.0,0.0,0.0,0.0,0.0,0.0,0.0,0.0,0.0,0.0,0.0,0.0,0.0,0.0,0.0,0.0,0.0,0.0,0.0,0.0,0.0,0.0,0.0,0.0,0.0,0.0,0.0,0.0,0.0,0.0,0.0,0.0,0.0,0.0,0.0,0.0,0.0,0.0,0.0,0.0,0.0,0.0,0.0,0.0,0.0,0.0,0.0,0.0,0.0,0.0,0.0,0.0,0.0,0.0,0.0,0.0,0.0,0.0,0.0,0.0,0.0,0.0,0.0,0.0,0.0,0.0,0.0,0.0,0.0,0.0,0.0,0.0,0.0,0.0,0.0,0.0,0.0,0.0,0.0,0.0,0.0,0.0,0.0,0.0,0.0,0.0,0.0,0.0,0.0,0.0,0.0,0.0,0.0,0.0,0.0,0.0,0.0,0.0,0.0,0.0,0.0,0.0,0.0,0.0,0.0,0.0,0.0,0.0,0.0,0.0,0.0,0.0,0.0,0.0,0.0,0.0,0.0,0.0,0.0,0.0,0.0,0.0,0.0,0.0,0.0,0.0,0.0,0.0,0.0,0.0,0.0,0.0,0.0,0.0,0.0,0.0,0.0,0.0,0.0,0.0,0.0,0.0,0.0,0.0,0.0,0.0,0.0,0.0,0.0,0.0,0.0,0.0,0.0,0.0,0.0,0.0,0.0,0.0,0.0,0.0,0.0,0.0,0.0,0.0,0.0,0.0,0.0,0.0,0.0,0.0,0.0,0.0,0.0,0.0,0.0,0.0,0.0,0.0,0.0,0.0,0.0,0.0,0.0,0.0,0.0,0.0,0.0,0.0,0.0,0.0,0.0,0.0,0.0,0.0,0.0,0.0,0.0,0.0,0.0,0.0,0.0,0.0,0.0,0.0,0.0,0.0,0.0,0.0,0.0,0.0,0.0,0.0,0.0,0.0,0.0,0.0,0.0,0.0,0.0,0.0,0.0,0.0,0.0,0.0,0.0,0.0,0.0,0.0,0.0,0.0,0.0,0.0,0.0,0.0,0.0,0.0,0.0,0.0,0.0,0.0,0.0,0.0,0.0,0.0,0.0,0.0,0.0,0.0,0.0,0.0,0.0,0.0,0.0,0.0,0.0,0.0,0.0,0.0,0.0,0.0,0.0,0.0,0.0,0.0,0.0,0.0,0.0,0.0,0.0,0.0,0.0,0.0,0.0,0.0,0.0,0.0,0.0,0.0,0.0,0.0,0.0,0.0,0.0,0.0,0.0,0.0,0.0,0.0,0.0,0.0,0.0,0.0,0.0,0.0,0.0,0.0,0.0,0.0,0.0,0.0,0.0,0.0,0.0,0.0,0.0,0.0,0.0,0.0,0.0,0.0,0.0,0.0,0.0,0.0,0.0,0.0,0.0,0.0,0.0,0.0,0.0,0.0,0.0,0.0,0.0,0.0,0.0,0.0,0.0,0.0,0.0,0.0,0.0,0.0,0.0,0.0,0.0,0.0,0.0,0.0,0.0,0.0,0.0,0.0,0.0,0.0,0.0,0.0,0.0,0.0,0.0,0.0,0.0,0.0,0.0,0.0,0.0,0.0,0.0,0.0,0.0,0.0,0.0,0.0,0.0,0.0,0.0,0.0,0.0,0.0,0.0,0.0,0.0,0.0,0.0,0.0,0.0,0.0,0.0,0.0,0.0,0.0,0.0,0.0,0.0,0.0,0.0,0.0,0.0,0.0,0.0,0.0,0.0,0.0,0.0,0.0,0.0,0.0,0.0,0.0,0.0,0.0,0.0,0.0,0.0,0.0,0.0,0.0,0.0,0.0,0.0,0.0,0.0,0.0,0.0,0.0,0.0,0.0,0.0,0.0,0.0,0.0,0.0,0.0,0.0,0.0,0.0,0.0,0.0,0.0,0.0,0.0,0.0,0.0,0.0,0.0,0.0,0.0,0.0,0.0,0.0,0.0,0.0,0.0,0.0,0.0,0.0,0.0,0.0,0.0,0.0,0.0,0.0,0.0,0.0,0.0,0.0,0.0,0.0,0.0,0.0,0.0,0.0,0.0,0.0,0.0,0.0,0.0,0.0,0.0,0.0,0.0,0.0,0.0,0.0,0.0,0.0,0.0,0.0,0.0,0.0,0.0,0.0,0.0,0.0,0.0,0.0,0.0,0.0,0.0,0.0,0.0,0.0,0.0,0.0,0.0,0.0,0.0,0.0,0.0,0.0,0.0,0.0,0.0,0.0,0.0,0.0,0.0,0.0,0.0,0.0,0.0,0.0,0.0,0.0,0.0,0.0,0.0,0.0,0.0,0.0,0.0,0.0,0.0,0.0,0.0,0.0,0.0,0.0,0.0,0.0,0.0,0.0,0.0,0.0,0.0,0.0,0.0,0.0,0.0,0.0,0.0,0.0,0.0,0.0,0.0,0.0,0.0,0.0,0.0,0.0,0.0,0.0,0.0,0.0,0.0,0.0,0.0,0.0,0.0,0.0,0.0,0.0,0.0,0.0,0.0,0.0,0.0,0.0,0.0,0.0,0.0,0.0,0.0,0.0,0.0,0.0,0.0,0.0,0.0,0.0,0.0,0.0,0.0,0.0,0.0,0.0,0.0,0.0,0.0,0.0,0.0,0.0,0.0,0.0,0.0,0.0,0.0,0.0,0.0,0.0,0.0,0.0,0.0,0.0,0.0,0.0,0.0,0.0,0.0,0.0,0.0,0.0,0.0,0.0,0.0,0.0,0.0,0.0,0.0,0.0,0.0,0.0,0.0,0.0,0.0,0.0,0.0,0.0,0.0,0.0,0.0,0.0,0.0,0.0,0.0,0.0,0.0,0.0,0.0,0.0,0.0,0.0,0.0,0.0,0.0,0.0,0.0,0.0,0.0,0.0,0.0,0.0,0.0,0.0,0.0,0.0,0.0,0.0,0.0,0.0,0.0,0.0,0.0,0.0,0.0,0.0,0.0,0.0,0.0,0.0,0.0,0.0,0.0,0.0,0.0,0.0,0.0,0.0,0.0,0.0,0.0,0.0,0.0,0.0,0.0,0.0,0.0,0.0,0.0,2.2171,0.0,0.0,0.0,0.0,0.0,0.0,0.0,0.0,0.0,0.0,0.0,0.0,0.0,0.0,0.0,0.0,0.0,0.0,0.0,0.0,0.0,0.0,0.0,0.0,0.0,0.0,0.0,0.0,0.0,0.0,0.0,0.0,0.0,0.0,0.0,0.0,0.0,0.0,0.0,0.0,0.0,0.0,0.0,0.0,0.0,0.0,0.0,0.0,0.0,0.0,0.0,0.0,0.0,0.0,0.0,0.0,0.0,0.0,0.0,0.0,0.0,0.0,0.0,0.0,0.0,0.0,0.0,0.0,0.0,0.0,0.0,0.0,0.0,0.0,0.0,0.0,0.0,0.0,0.0,0.0,0.0,0.0,0.0,0.0,0.0,0.0,0.0,0.0,0.0,0.0,0.0,0.0,0.0,0.0,0.0,0.0,0.0,0.0,0.0,0.0,0.0,0.0,0.0,0.0,0.0,0.0,0.0,0.0,0.0,0.0,2.3505,2.3505,2.3505,2.3327,2.2981,0.0,0.0,0.0,0.0,0.0,0.0,0.0,0.0,0.0,0.0,0.0,0.0,0.0,0.0,0.0,0.0,0.0,0.0,0.0,0.0,0.0,0.0,0.0,0.0,0.0,0.0,0.0,0.0,0.0,0.0,0.0,0.0,0.0,0.0,0.0,0.0,0.0,0.0,0.0,0.0,0.0,0.0,0.0,0.0,0.0,0.0,0.0,0.0,0.0,0.0,0.0,0.0,0.0,0.0,0.0,0.0,0.0,0.0,0.0,0.0,0.0,0.0,0.0,0.0,0.0,0.0,0.0,0.0,0.0,0.0,0.0,0.0,0.0,0.0,0.0,0.0,0.0,0.0,0.0,0.0,0.0,0.0,0.0,0.0,0.0,0.0,0.0,0.0,0.0,0.0,0.0,0.0,0.0,0.0,0.0,0.0,0.0,0.0,0.0,0.0,0.0,0.0,0.0,0.0,0.0,0.0,0.0,0.0,0.0,0.0,0.0,0.0,2.4005,2.3933,2.3755,0.0,0.0,0.0,0.0,0.0,0.0,0.0,0.0,0.0,0.0,0.0,0.0,0.0,0.0,0.0,0.0,0.0,0.0,0.0,0.0,0.0,0.0,0.0,0.0,0.0,0.0,0.0,0.0,0.0,0.0,0.0,0.0,0.0,0.0,0.0,0.0,0.0,0.0,0.0,0.0,0.0,0.0,0.0,0.0,0.0,0.0,0.0,0.0,0.0,0.0,0.0,0.0,0.0,0.0,0.0,0.0,0.0,0.0,0.0,0.0,0.0,0.0,0.0,0.0,0.0,0.0,0.0,0.0,0.0,0.0,0.0,0.0,0.0,0.0,0.0,0.0,0.0,0.0,0.0,0.0,0.0,0.0,0.0,0.0,0.0,0.0,0.0,0.0,0.0,0.0,0.0,0.0,0.0,0.0,0.0,0.0,0.0,0.0,0.0,0.0,0.0,0.0,0.0,0.0,0.0,0.0,0.0,0.0,0.0,0.0,2.4902,2.5551,2.558,0.0,2.4587,0.0,0.0,0.0,0.0,0.0,0.0,0.0,0.0,0.0,0.0,0.0,0.0,0.0,0.0,0.0,0.0,0.0,0.0,0.0,0.0,0.0,0.0,0.0,0.0,0.0,0.0,0.0,0.0,0.0,0.0,0.0,0.0,0.0,0.0,0.0,0.0,0.0,0.0,0.0,0.0,0.0,0.0,0.0,0.0,0.0,0.0,0.0,0.0,0.0,0.0,0.0,0.0,0.0,0.0,0.0,0.0,0.0,0.0,0.0,0.0,0.0,0.0,0.0,0.0,0.0,0.0,0.0,0.0,0.0,0.0,0.0,0.0,0.0,0.0,0.0,0.0,0.0,0.0,0.0,0.0,0.0,0.0,0.0,0.0,0.0,0.0,0.0,0.0,0.0,0.0,0.0,0.0,0.0,0.0,0.0,0.0,0.0,0.0,0.0,0.0,0.0,0.0,0.0,0.0,0.0,0.0,0.0,0.0,0.0,0.0,2.5509,2.5794,2.5794,2.5444,0.0,0.0,0.0,0.0,0.0,0.0,0.0,0.0,0.0,0.0,0.0,0.0,0.0,0.0,0.0,0.0,0.0,0.0,0.0,0.0,0.0,0.0,0.0,0.0,0.0,0.0,0.0,0.0,0.0,0.0,0.0,0.0,0.0,0.0,0.0,0.0,0.0,0.0,0.0,0.0,0.0,0.0,0.0,0.0,0.0,0.0,0.0,0.0,0.0,0.0,0.0,0.0,0.0,0.0,0.0,0.0,0.0,0.0,0.0,0.0,0.0,0.0,0.0,0.0,0.0,0.0,0.0,0.0,0.0,0.0,0.0,0.0,0.0,0.0,0.0,0.0,0.0,0.0,0.0,0.0,0.0,0.0,0.0,0.0,0.0,0.0,0.0,0.0,0.0,0.0,0.0,0.0,0.0,0.0,0.0,0.0,0.0,0.0,0.0,0.0,0.0,0.0,0.0,0.0,0.0,0.0,0.0,0.0,0.0,0.0,2.5979,2.6573,2.6757,2.6579,2.6008,2.5045,0.0,0.0,0.0,0.0,0.0,0.0,0.0,0.0,0.0,0.0,0.0,0.0,0.0,0.0,0.0,0.0,0.0,0.0,0.0,0.0,0.0,0.0,0.0,0.0,0.0,0.0,0.0,0.0,0.0,0.0,0.0,0.0,0.0,0.0,0.0,0.0,0.0,0.0,0.0,0.0,0.0,0.0,0.0,0.0,0.0,0.0,0.0,0.0,0.0,0.0,0.0,0.0,0.0,0.0,0.0,0.0,0.0,0.0,0.0,0.0,0.0,0.0,0.0,0.0,0.0,0.0,0.0,0.0,0.0,0.0,0.0,0.0,0.0,0.0,0.0,0.0,0.0,0.0,0.0,0.0,0.0,0.0,0.0,0.0,0.0,0.0,0.0,0.0,0.0,0.0,0.0,0.0,0.0,0.0,0.0,0.0,0.0,0.0,0.0,0.0,0.0,0.0,0.0,0.0,0.0,0.0,0.0,0.0,2.5759,2.7286,2.847,2.9148,2.8506,2.7357,0.0,0.0,0.0,0.0,0.0,0.0,0.0,0.0,0.0,0.0,0.0,0.0,0.0,0.0,0.0,0.0,0.0,0.0,0.0,0.0,0.0,0.0,0.0,0.0,0.0,0.0,0.0,0.0,0.0,0.0,0.0,0.0,0.0,0.0,0.0,0.0,0.0,0.0,0.0,0.0,0.0,0.0,0.0,0.0,0.0,0.0,0.0,0.0,0.0,0.0,0.0,0.0,0.0,0.0,0.0,0.0,0.0,0.0,0.0,0.0,0.0,0.0,0.0,0.0,0.0,0.0,0.0,0.0,0.0,0.0,0.0,0.0,0.0,0.0,0.0,0.0,0.0,0.0,0.0,0.0,0.0,0.0,0.0,0.0,0.0,0.0,0.0,0.0,0.0,0.0,0.0,0.0,0.0,0.0,0.0,0.0,0.0,0.0,0.0,0.0,0.0,0.0,0.0,0.0,0.0,0.0,0.0,0.0,0.0,2.6579,2.8156,2.9326,3.004,2.9362,2.847,0.0,0.0,0.0,0.0,0.0,0.0,0.0,0.0,0.0,0.0,0.0,0.0,0.0,0.0,0.0,0.0,0.0,0.0,0.0,0.0,0.0,0.0,0.0,0.0,0.0,0.0,0.0,0.0,0.0,0.0,0.0,0.0,0.0,0.0,0.0,0.0,0.0,0.0,0.0,0.0,0.0,0.0,0.0,0.0,0.0,0.0,0.0,0.0,0.0,0.0,0.0,0.0,0.0,0.0,0.0,0.0,0.0,0.0,0.0,0.0,0.0,0.0,0.0,0.0,0.0,0.0,0.0,0.0,0.0,0.0,0.0,0.0,0.0,0.0,0.0,0.0,0.0,0.0,0.0,0.0,0.0,0.0,0.0,0.0,0.0,0.0,0.0,0.0,0.0,0.0,0.0,0.0,0.0,0.0,0.0,0.0,0.0,0.0,0.0,0.0,0.0,0.0,0.0,0.0,0.0,0.0,0.0,0.0,0.0,2.8084,0.0,3.0404,3.0832,3.0154,2.9248,0.0,0.0,0.0,0.0,0.0,0.0,0.0,0.0,0.0,0.0,0.0,0.0,0.0,0.0,0.0,0.0,0.0,0.0,0.0,0.0,0.0,0.0,0.0,0.0,0.0,0.0,0.0,0.0,0.0,0.0,0.0,0.0,0.0,0.0,0.0,0.0,0.0,0.0,0.0,0.0,0.0,0.0,0.0,0.0,0.0,0.0,0.0,0.0,0.0,0.0,0.0,0.0,0.0,0.0,0.0,0.0,0.0,0.0,0.0,0.0,0.0,0.0,0.0,0.0,0.0,0.0,0.0,0.0,0.0,0.0,0.0,0.0,0.0,0.0,0.0,0.0,0.0,0.0,0.0,0.0,0.0,0.0,0.0,0.0,0.0,0.0,0.0,0.0,0.0,0.0,0.0,0.0,0.0,0.0,0.0,0.0,0.0,0.0,0.0,0.0,0.0,0.0,0.0,0.0,0.0,0.0,0.0,0.0,2.7363,3.0353,3.1268,3.1696,3.1689,3.0967,2.9826,0.0,0.0,0.0,0.0,0.0,0.0,0.0,0.0,0.0,0.0,0.0,0.0,0.0,0.0,0.0,0.0,0.0,0.0,0.0,0.0,0.0,0.0,0.0,0.0,0.0,0.0,0.0,0.0,0.0,0.0,0.0,0.0,0.0,0.0,0.0,0.0,0.0,0.0,0.0,0.0,0.0,0.0,0.0,0.0,0.0,0.0,0.0,0.0,0.0,0.0,0.0,0.0,0.0,0.0,0.0,0.0,0.0,0.0,0.0,0.0,0.0,0.0,0.0,0.0,0.0,0.0,0.0,0.0,0.0,0.0,0.0,0.0,0.0,0.0,0.0,0.0,0.0,0.0,0.0,0.0,0.0,0.0,0.0,0.0,0.0,0.0,0.0,0.0,0.0,0.0,0.0,0.0,0.0,0.0,0.0,0.0,0.0,0.0,0.0,0.0,0.0,0.0,0.0,0.0,0.0,0.0,0.0,0.0,0.0,3.1296,3.2125,3.2525,3.2517,3.2311,3.1403,0.0,0.0,0.0,0.0,0.0,0.0,0.0,0.0,0.0,0.0,0.0,0.0,0.0,0.0,0.0,0.0,0.0,0.0,0.0,0.0,0.0,0.0,0.0,0.0,0.0,0.0,0.0,0.0,0.0,0.0,0.0,0.0,0.0,0.0,0.0,0.0,0.0,0.0,0.0,0.0,0.0,0.0,0.0,0.0,0.0,0.0,0.0,0.0,0.0,0.0,0.0,0.0,0.0,0.0,0.0,0.0,0.0,0.0,0.0,0.0,0.0,0.0,0.0,0.0,0.0,0.0,0.0,0.0,0.0,0.0,0.0,0.0,0.0,0.0,0.0,0.0,0.0,0.0,0.0,0.0,0.0,0.0,0.0,0.0,0.0,0.0,0.0,0.0,0.0,0.0,0.0,0.0,0.0,0.0,0.0,0.0,0.0,0.0,0.0,0.0,0.0,0.0,0.0,0.0,0.0,0.0,0.0,0.0,0.0,3.3073,3.3533,3.3758,3.3766,3.3203,3.241,3.1403,0.0,0.0,0.0,0.0,0.0,0.0,0.0,0.0,0.0,0.0,0.0,0.0,0.0,0.0,0.0,0.0,0.0,0.0,0.0,0.0,0.0,0.0,0.0,0.0,0.0,0.0,0.0,0.0,0.0,0.0,0.0,0.0,0.0,0.0,0.0,0.0,0.0,0.0,0.0,0.0,0.0,0.0,0.0,0.0,0.0,0.0,0.0,0.0,0.0,0.0,0.0,0.0,0.0,0.0,0.0,0.0,0.0,0.0,0.0,0.0,0.0,0.0,0.0,0.0,0.0,0.0,0.0,0.0,0.0,0.0,0.0,0.0,0.0,0.0,0.0,0.0,0.0,0.0,0.0,0.0,0.0,0.0,0.0,0.0,0.0,0.0,0.0,0.0,0.0,0.0,0.0,0.0,0.0,0.0,0.0,0.0,0.0,0.0,0.0,0.0,0.0,0.0,0.0,0.0,0.0,0.0,0.0,0.0,3.5506,3.5504,3.5444,3.5266,3.3953,3.3077,0.0,0.0,0.0,0.0,0.0,0.0,0.0,0.0,0.0,0.0,0.0,0.0,0.0,0.0,0.0,0.0,0.0,0.0,0.0,0.0,0.0,0.0,0.0,0.0,0.0,0.0,0.0,0.0,0.0,0.0,0.0,0.0,0.0,0.0,0.0,0.0,0.0,0.0,0.0,0.0,0.0,0.0,0.0,0.0,0.0,0.0,0.0,0.0,0.0,0.0,0.0,0.0,0.0,0.0,0.0,0.0,0.0,0.0,0.0,0.0,0.0,0.0,0.0,0.0,0.0,0.0,0.0,0.0,0.0,0.0,0.0,0.0,0.0,0.0,0.0,0.0,0.0,0.0,0.0,0.0,0.0,0.0,0.0,0.0,0.0,0.0,0.0,0.0,0.0,0.0,0.0,0.0,0.0,0.0,0.0,0.0,0.0,0.0,0.0,0.0,0.0,0.0,0.0,0.0,0.0,0.0,0.0,0.0,0.0,3.7207,3.8376,3.8106,3.6324,3.6414,3.5403,0.0,0.0,0.0,0.0,0.0,0.0,0.0,0.0,0.0,0.0,0.0,0.0,0.0,0.0,0.0,0.0,0.0,0.0,0.0,0.0,0.0,0.0,0.0,0.0,0.0,0.0,0.0,0.0,0.0,0.0,0.0,0.0,0.0,0.0,0.0,0.0,0.0,0.0,0.0,0.0,0.0,0.0,0.0,0.0,0.0,0.0,0.0,0.0,0.0,0.0,0.0,0.0,0.0,0.0,0.0,0.0,0.0,0.0,0.0,0.0,0.0,0.0,0.0,0.0,0.0,0.0,0.0,0.0,0.0,0.0,0.0,0.0,0.0,0.0,0.0,0.0,0.0,0.0,0.0,0.0,0.0,0.0,0.0,0.0,0.0,0.0,0.0,0.0,0.0,0.0,0.0,0.0,0.0,0.0,0.0,0.0,0.0,0.0,0.0,0.0,0.0,0.0,0.0,0.0,0.0,0.0,0.0,0.0,3.7288,3.8914,4.0184,4.0157,3.8744,3.8151,3.6976,0.0,0.0,0.0,0.0,0.0,0.0,0.0,0.0,0.0,0.0,0.0,0.0,0.0,0.0,0.0,0.0,0.0,0.0,0.0,0.0,0.0,0.0,0.0,0.0,0.0,0.0,0.0,0.0,0.0,0.0,0.0,0.0,0.0,0.0,0.0,0.0,0.0,0.0,0.0,0.0,0.0,0.0,0.0,0.0,0.0,0.0,0.0,0.0,0.0,0.0,0.0,0.0,0.0,0.0,0.0,0.0,0.0,0.0,0.0,0.0,0.0,0.0,0.0,0.0,0.0,0.0,0.0,0.0,0.0,0.0,0.0,0.0,0.0,0.0,0.0,0.0,0.0,0.0,0.0,0.0,0.0,0.0,0.0,0.0,0.0,0.0,0.0,0.0,0.0,0.0,0.0,0.0,0.0,0.0,0.0,0.0,0.0,0.0,0.0,0.0,0.0,0.0,0.0,0.0,0.0,0.0,0.0,0.0,3.895,4.0628,4.153,4.1964,4.1783,3.9536,3.8159,0.0,0.0,0.0,0.0,0.0,0.0,0.0,0.0,0.0,0.0,0.0,0.0,0.0,0.0,0.0,0.0,0.0,0.0,0.0,0.0,0.0,0.0,0.0,0.0,0.0,0.0,0.0,0.0,0.0,0.0,0.0,0.0,0.0,0.0,0.0,0.0,0.0,0.0,0.0,0.0,0.0,0.0,0.0,0.0,0.0,0.0,0.0,0.0,0.0,0.0,0.0,0.0,0.0,0.0,0.0,0.0,0.0,0.0,0.0,0.0,0.0,0.0,0.0,0.0,0.0,0.0,0.0,0.0,0.0,0.0,0.0,0.0,0.0,0.0,0.0,0.0,0.0,0.0,0.0,0.0,0.0,0.0,0.0,0.0,0.0,0.0,0.0,0.0,0.0,0.0,0.0,0.0,0.0,0.0,0.0,0.0,0.0,0.0,0.0,0.0,0.0,0.0,0.0,0.0,0.0,0.0,0.0,0.0,4.0673,4.232,4.3768,4.4193,4.3578,4.1793,3.9896,0.0,0.0,0.0,0.0,0.0,0.0,0.0,0.0,0.0,0.0,0.0,0.0,0.0,0.0,0.0,0.0,0.0,0.0,0.0,0.0,0.0,0.0,0.0,0.0,0.0,0.0,0.0,0.0,0.0,0.0,0.0,0.0,0.0,0.0,0.0,0.0,0.0,0.0,0.0,0.0,0.0,0.0,0.0,0.0,0.0,0.0,0.0,0.0,3.3298,0.0,0.0,0.0,0.0,0.0,0.0,0.0,0.0,0.0,0.0,0.0,0.0,0.0,0.0,0.0,0.0,0.0,0.0,0.0,0.0,0.0,0.0,0.0,0.0,0.0,0.0,0.0,0.0,0.0,0.0,0.0,0.0,0.0,0.0,0.0,0.0,0.0,0.0,0.0,0.0,0.0,0.0,0.0,0.0,0.0,0.0,0.0,0.0,0.0,0.0,0.0,0.0,0.0,0.0,0.0,0.0,0.0,0.0,0.0,4.2193,4.3435,4.4667,4.5091,4.4621,4.3459,4.1613,0.0,0.0,0.0,0.0,0.0,0.0,0.0,0.0,0.0,0.0,0.0,0.0,0.0,0.0,0.0,0.0,0.0,0.0,0.0,0.0,0.0,0.0,0.0,0.0,0.0,0.0,0.0,0.0,0.0,0.0,0.0,0.0,0.0,0.0,0.0,0.0,0.0,0.0,0.0,0.0,0.0,0.0,0.0,0.0,0.0,0.0,0.0,0.0,0.0,0.0,0.0,0.0,0.0,0.0,0.0,0.0,0.0,0.0,0.0,0.0,0.0,0.0,0.0,0.0,0.0,0.0,0.0,0.0,0.0,0.0,0.0,0.0,0.0,0.0,0.0,0.0,0.0,0.0,0.0,0.0,0.0,0.0,0.0,0.0,0.0,0.0,0.0,0.0,0.0,0.0,0.0,0.0,0.0,0.0,0.0,0.0,0.0,0.0,0.0,0.0,0.0,0.0,0.0,0.0,0.0,0.0,0.0,4.1831,4.3544,4.444,4.5236,4.5599,4.549,4.4703,4.3136,4.0764,0.0,0.0,0.0,0.0,0.0,0.0,0.0,0.0,0.0,0.0,0.0,0.0,0.0,0.0,0.0,0.0,0.0,0.0,0.0,0.0,0.0,0.0,0.0,0.0,0.0,0.0,0.0,0.0,0.0,0.0,0.0,0.0,0.0,0.0,0.0,0.0,0.0,0.0,3.1348,3.4016,0.0,0.0,0.0,0.0,0.0,0.0,0.0,0.0,3.6162,0.0,0.0,0.0,0.0,0.0,0.0,0.0,0.0,0.0,0.0,0.0,0.0,0.0,0.0,0.0,0.0,0.0,0.0,0.0,0.0,0.0,0.0,0.0,0.0,0.0,0.0,0.0,0.0,0.0,0.0,0.0,0.0,0.0,0.0,0.0,0.0,0.0,0.0,0.0,0.0,0.0,0.0,0.0,0.0,0.0,0.0,0.0,0.0,0.0,0.0,0.0,0.0,0.0,0.0,0.0,0.0,4.0185,4.2627,4.4621,4.6069,4.6902,4.6964,4.6323,4.5526,4.3959,4.1605,0.0,0.0,0.0,0.0,0.0,0.0,0.0,0.0,0.0,0.0,0.0,0.0,0.0,0.0,0.0,0.0,0.0,0.0,0.0,0.0,0.0,0.0,0.0,0.0,0.0,0.0,0.0,0.0,0.0,0.0,0.0,0.0,0.0,0.0,0.0,0.0,0.0,0.0,0.0,3.5086,3.6264,0.0,0.0,0.0,0.0,0.0,0.0,0.0,0.0,3.7604,0.0,0.0,0.0,0.0,0.0,0.0,0.0,0.0,0.0,0.0,0.0,0.0,0.0,0.0,0.0,0.0,0.0,0.0,0.0,0.0,0.0,0.0,0.0,0.0,0.0,0.0,0.0,0.0,0.0,0.0,0.0,0.0,0.0,0.0,0.0,0.0,0.0,0.0,0.0,0.0,0.0,0.0,0.0,0.0,0.0,0.0,0.0,0.0,0.0,0.0,0.0,0.0,0.0,0.0,0.0,4.1062,4.3479,4.5309,4.6457,4.729,4.7508,4.7109,4.5961,4.4367,0.0,0.0,0.0,0.0,0.0,0.0,0.0,0.0,0.0,0.0,0.0,0.0,0.0,0.0,0.0,0.0,0.0,0.0,0.0,0.0,0.0,0.0,0.0,0.0,0.0,0.0,0.0,0.0,0.0,0.0,0.0,0.0,0.0,0.0,0.0,0.0,0.0,0.0,0.0,0.0,3.6431,3.7556,3.8357,0.0,0.0,0.0,0.0,0.0,0.0,3.8984,3.8962,0.0,0.0,0.0,0.0,0.0,0.0,0.0,0.0,0.0,0.0,0.0,0.0,0.0,0.0,0.0,0.0,0.0,0.0,0.0,0.0,0.0,0.0,0.0,0.0,0.0,0.0,0.0,0.0,0.0,0.0,0.0,0.0,0.0,0.0,0.0,0.0,0.0,0.0,0.0,0.0,0.0,0.0,0.0,0.0,0.0,0.0,0.0,0.0,0.0,0.0,0.0,0.0,0.0,0.0,0.0,4.1922,4.415,4.578,4.6711,4.7363,4.7689,4.7652,4.6132,4.4548,0.0,0.0,0.0,0.0,0.0,0.0,0.0,0.0,0.0,0.0,0.0,0.0,0.0,0.0,0.0,0.0,0.0,0.0,0.0,0.0,0.0,0.0,0.0,0.0,0.0,0.0,0.0,0.0,0.0,0.0,0.0,0.0,0.0,0.0,0.0,0.0,0.0,0.0,0.0,0.0,0.0,3.9157,3.9398,4.0237,0.0,0.0,0.0,0.0,4.0101,4.0476,0.0,0.0,0.0,0.0,0.0,0.0,0.0,0.0,0.0,0.0,0.0,0.0,0.0,0.0,0.0,0.0,0.0,0.0,0.0,0.0,0.0,0.0,0.0,0.0,0.0,0.0,0.0,0.0,0.0,0.0,0.0,0.0,0.0,0.0,0.0,0.0,0.0,0.0,0.0,0.0,0.0,0.0,0.0,0.0,0.0,0.0,0.0,0.0,0.0,0.0,0.0,0.0,0.0,0.0,0.0,0.0,4.2665,4.444,4.6033,4.7471,4.7652,4.7689,4.7689,4.6142,4.4558,0.0,0.0,0.0,0.0,0.0,0.0,0.0,0.0,0.0,0.0,0.0,0.0,0.0,0.0,0.0,0.0,0.0,0.0,0.0,0.0,0.0,0.0,0.0,0.0,0.0,0.0,0.0,0.0,0.0,0.0,0.0,0.0,0.0,0.0,0.0,0.0,0.0,0.0,0.0,0.0,0.0,4.1012,4.1998,4.2777,4.3302,0.0,0.0,4.3569,4.3348,4.3499,0.0,0.0,0.0,0.0,0.0,0.0,0.0,0.0,0.0,0.0,0.0,0.0,0.0,0.0,0.0,0.0,0.0,0.0,0.0,0.0,0.0,0.0,0.0,0.0,0.0,0.0,0.0,0.0,0.0,0.0,0.0,0.0,0.0,0.0,0.0,0.0,0.0,0.0,0.0,0.0,0.0,0.0,0.0,0.0,0.0,0.0,0.0,0.0,0.0,0.0,0.0,0.0,0.0,0.0,0.0,3.9616,4.2819,4.4476,4.6287,4.8268,4.8377,4.8366,4.8377,4.683,4.5236,0.0,0.0,0.0,0.0,0.0,0.0,0.0,0.0,0.0,0.0,0.0,0.0,0.0,0.0,0.0,0.0,0.0,0.0,0.0,0.0,0.0,0.0,0.0,0.0,0.0,0.0,0.0,0.0,0.0,0.0,0.0,0.0,0.0,0.0,0.0,0.0,0.0,0.0,0.0,0.0,0.0,0.0,4.3851,4.4472,0.0,0.0,0.0,4.6141,4.5634,0.0,0.0,0.0,0.0,0.0,0.0,0.0,0.0,0.0,0.0,0.0,0.0,0.0,0.0,0.0,0.0,0.0,0.0,0.0,0.0,0.0,0.0,0.0,0.0,0.0,0.0,0.0,0.0,0.0,0.0,0.0,0.0,0.0,0.0,0.0,0.0,0.0,0.0,0.0,0.0,0.0,0.0,0.0,0.0,0.0,0.0,0.0,0.0,0.0,0.0,0.0,0.0,0.0,0.0,0.0,0.0,0.0,4.2855,4.4693,4.6685,4.8811,4.9101,4.9209,4.9173,4.7652,0.0,0.0,0.0,0.0,0.0,0.0,0.0,0.0,0.0,0.0,0.0,0.0,0.0,0.0,0.0,0.0,0.0,0.0,0.0,0.0,0.0,0.0,0.0,0.0,0.0,0.0,0.0,3.0777,0.0,0.0,0.0,0.0,0.0,0.0,0.0,0.0,0.0,0.0,0.0,0.0,0.0,0.0,4.3624,4.5717,4.6306,4.6707,0.0,0.0,4.8223,4.7628,4.7602,4.7348,0.0,0.0,0.0,0.0,0.0,0.0,0.0,0.0,0.0,0.0,0.0,0.0,0.0,0.0,0.0,0.0,0.0,0.0,0.0,0.0,0.0,0.0,0.0,0.0,0.0,0.0,0.0,0.0,0.0,0.0,0.0,0.0,0.0,0.0,0.0,0.0,0.0,0.0,0.0,0.0,0.0,0.0,0.0,0.0,0.0,0.0,0.0,0.0,0.0,0.0,0.0,0.0,0.0,0.0,4.0492,4.2892,4.52,4.7254,4.8847,4.9619,5.0028,4.9992,4.846,4.6856,0.0,0.0,0.0,0.0,0.0,0.0,0.0,0.0,0.0,0.0,0.0,0.0,0.0,0.0,0.0,0.0,0.0,0.0,0.0,0.0,0.0,0.0,0.0,0.0,0.0,0.0,0.0,0.0,0.0,0.0,0.0,0.0,0.0,0.0,0.0,0.0,0.0,0.0,0.0,0.0,0.0,4.6696,4.7843,4.8697,4.9304,0.0,4.9539,4.955,4.9514,4.9526,4.9023,4.7524,0.0,0.0,0.0,0.0,0.0,0.0,0.0,0.0,0.0,0.0,0.0,0.0,0.0,0.0,0.0,0.0,0.0,0.0,0.0,0.0,0.0,0.0,0.0,0.0,0.0,0.0,0.0,0.0,0.0,0.0,0.0,0.0,0.0,0.0,0.0,0.0,0.0,0.0,0.0,0.0,0.0,0.0,0.0,0.0,0.0,0.0,0.0,0.0,0.0,0.0,0.0,0.0,0.0,4.1506,4.4341,4.6287,4.8242,5.0271,5.068,5.0825,5.0861,4.9293,4.7906,0.0,0.0,0.0,0.0,0.0,0.0,0.0,0.0,0.0,0.0,0.0,0.0,0.0,0.0,0.0,0.0,0.0,0.0,0.0,0.0,0.0,0.0,0.0,0.0,0.0,0.0,0.0,0.0,3.6145,3.6785,3.7865,0.0,0.0,0.0,0.0,0.0,0.0,0.0,0.0,0.0,0.0,4.8972,5.0402,5.1311,0.0,0.0,5.2726,5.2594,5.2125,5.1679,5.104,4.9967,4.8981,0.0,0.0,0.0,0.0,0.0,0.0,0.0,0.0,0.0,0.0,0.0,0.0,0.0,0.0,0.0,0.0,0.0,0.0,0.0,0.0,0.0,0.0,0.0,0.0,0.0,0.0,0.0,0.0,0.0,0.0,0.0,0.0,0.0,0.0,0.0,0.0,0.0,0.0,0.0,0.0,0.0,0.0,0.0,0.0,0.0,0.0,0.0,0.0,0.0,0.0,0.0,0.0,4.2556,4.5273,4.712,4.9101,5.126,5.155,5.1647,5.1622,5.0343,4.9246,0.0,0.0,0.0,0.0,0.0,0.0,0.0,0.0,0.0,0.0,0.0,0.0,0.0,0.0,0.0,0.0,0.0,0.0,0.0,0.0,0.0,0.0,0.0,0.0,0.0,0.0,0.0,0.0,3.8206,3.87,3.9976,0.0,0.0,0.0,0.0,0.0,0.0,0.0,0.0,0.0,0.0,5.0987,5.263,5.3399,5.3964,5.4528,5.4687,5.4568,5.399,5.3507,5.2951,5.2129,0.0,0.0,0.0,0.0,0.0,0.0,0.0,0.0,0.0,0.0,0.0,0.0,0.0,0.0,0.0,0.0,0.0,0.0,0.0,0.0,0.0,0.0,0.0,0.0,0.0,0.0,0.0,0.0,0.0,0.0,3.2196,0.0,0.0,0.0,0.0,0.0,0.0,0.0,0.0,0.0,0.0,0.0,0.0,0.0,0.0,0.0,0.0,0.0,0.0,0.0,0.0,0.0,0.0,4.3679,4.5309,4.7761,4.9716,5.1285,5.2082,5.248,5.248,5.1683,5.0861,5.0028,0.0,0.0,0.0,0.0,0.0,0.0,0.0,0.0,0.0,0.0,0.0,0.0,0.0,0.0,0.0,0.0,0.0,0.0,0.0,0.0,0.0,0.0,0.0,0.0,0.0,0.0,4.0101,4.0255,4.0291,0.0,0.0,0.0,0.0,0.0,0.0,0.0,0.0,0.0,0.0,5.1657,5.2846,5.4447,5.4821,5.4991,5.4991,5.4967,5.4967,5.4931,5.4907,5.4581,0.0,0.0,0.0,0.0,0.0,0.0,0.0,0.0,0.0,0.0,0.0,0.0,0.0,0.0,0.0,0.0,0.0,0.0,0.0,0.0,0.0,0.0,0.0,0.0,0.0,0.0,0.0,3.5286,3.5333,0.0,0.0,0.0,0.0,0.0,0.0,0.0,0.0,0.0,0.0,0.0,4.4382,4.5111,0.0,0.0,0.0,0.0,0.0,0.0,0.0,0.0,0.0,0.0,0.0,0.0,4.5562,4.7689,5.0053,5.1828,5.2878,5.3675,5.411,5.4074,5.3313,5.2021,5.0137,0.0,0.0,0.0,0.0,0.0,0.0,0.0,0.0,0.0,0.0,0.0,0.0,0.0,0.0,0.0,0.0,0.0,0.0,0.0,0.0,0.0,0.0,0.0,0.0,0.0,4.0921,0.0,0.0,0.0,0.0,0.0,0.0,0.0,0.0,0.0,0.0,0.0,5.0665,5.252,5.4363,5.5763,5.6293,5.7308,5.8021,0.0,0.0,0.0,0.0,0.0,0.0,0.0,0.0,0.0,0.0,0.0,0.0,0.0,0.0,5.3337,5.1203,5.0805,5.083,5.0796,0.0,0.0,0.0,0.0,0.0,0.0,0.0,0.0,0.0,0.0,0.0,0.0,0.0,0.0,3.9509,0.0,3.9449,0.0,0.0,0.0,0.0,0.0,0.0,0.0,0.0,4.5501,4.7065,4.7977,4.8748,4.9164,0.0,4.8822,4.6949,0.0,0.0,0.0,0.0,0.0,0.0,0.0,0.0,4.7327,4.9691,5.1538,5.3023,5.4074,5.4617,5.4907,5.4907,5.4399,5.3241,5.1405,4.9293,4.7808,0.0,0.0,0.0,0.0,0.0,0.0,0.0,0.0,0.0,0.0,0.0,0.0,0.0,0.0,0.0,0.0,0.0,0.0,0.0,0.0,0.0,0.0,0.0,4.3215,0.0,0.0,0.0,0.0,0.0,0.0,0.0,0.0,0.0,5.0384,5.1617,5.3309,5.5232,5.6794,5.7847,5.8137,0.0,0.0,0.0,0.0,0.0,0.0,0.0,5.8791,5.8246,5.8173,5.8173,5.8173,5.8173,5.8173,5.8173,0.0,0.0,5.4641,5.411,5.411,5.4158,5.4146,5.4122,5.4026,5.4219,5.4712,0.0,0.0,0.0,0.0,0.0,0.0,0.0,0.0,4.4457,4.4367,0.0,4.3755,0.0,0.0,0.0,0.0,0.0,4.466,0.0,0.0,4.9119,5.0707,5.1606,5.2381,5.2837,5.2985,5.2901,5.2061,5.0373,4.6418,0.0,0.0,0.0,0.0,0.0,0.0,4.8978,5.1319,5.2249,5.3397,5.4882,5.4991,5.5027,5.5015,5.4979,5.4593,5.3748,5.219,5.097,5.0173,4.7156,0.0,0.0,0.0,0.0,0.0,0.0,0.0,0.0,0.0,0.0,0.0,0.0,0.0,0.0,0.0,0.0,0.0,0.0,0.0,0.0,4.4522,0.0,0.0,0.0,0.0,0.0,0.0,0.0,0.0,0.0,0.0,5.3301,5.4297,5.609,5.8458,0.0,0.0,0.0,0.0,6.0148,6.0148,6.0148,6.0185,6.0172,6.0185,6.0172,6.0172,0.0,0.0,6.0172,6.0148,6.0172,6.0136,6.0208,5.9586,5.7844,5.7335,5.7213,5.7213,5.719,5.7286,5.7358,5.777,5.8373,4.9162,0.0,0.0,0.0,0.0,4.6518,4.6943,4.7013,4.7961,4.7964,4.7295,4.7345,0.0,0.0,0.0,0.0,0.0,0.0,4.9742,5.11,5.2327,5.3333,5.4146,5.4364,5.4497,5.452,5.4531,5.402,5.2999,5.1777,4.9643,4.6676,0.0,0.0,0.0,0.0,5.1406,5.319,5.4573,5.552,5.5957,5.6527,5.677,5.6685,5.614,5.5704,5.5353,5.382,5.2625,5.1828,4.9847,0.0,0.0,0.0,0.0,0.0,0.0,0.0,0.0,0.0,0.0,0.0,0.0,0.0,0.0,0.0,0.0,0.0,0.0,0.0,4.7098,4.826,4.9101,0.0,0.0,0.0,0.0,0.0,0.0,0.0,0.0,0.0,5.8872,5.8239,5.8227,0.0,0.0,6.0586,6.0828,6.1813,6.2579,6.2579,6.303,0.0,6.3444,6.3408,6.3444,6.3444,6.3444,6.3431,6.3444,6.3444,6.3408,6.3394,6.3444,6.3222,6.2646,6.069,5.9343,5.9197,5.9197,5.9379,5.9938,6.0265,6.0762,5.4541,5.2185,4.9817,4.8911,4.9193,5.0099,5.0528,5.061,5.1567,5.1525,5.0867,5.0886,5.0515,4.9883,4.9935,0.0,0.0,0.0,5.2999,5.4041,5.5409,5.6312,5.6776,5.7116,5.7263,5.7263,5.7263,5.6861,5.6056,5.6056,5.4725,5.204,0.0,0.0,5.1879,5.2682,5.3838,5.5406,5.6683,5.7485,5.7814,5.8324,5.8506,5.8432,5.7947,5.751,5.7096,5.5849,5.4809,5.3975,5.2406,5.0572,0.0,0.0,0.0,0.0,0.0,0.0,0.0,0.0,0.0,0.0,0.0,4.2266,4.309,0.0,0.0,0.0,4.6662,4.825,5.0423,5.1308,0.0,0.0,0.0,0.0,0.0,0.0,0.0,5.7298,5.92,6.1031,6.2451,6.1948,6.1616,6.2029,6.2528,6.2821,6.2821,0.0,6.4283,6.4283,6.4686,6.5015,6.4978,6.5028,6.4978,6.4978,6.4978,6.4978,6.5028,6.4992,6.5028,6.4978,6.5015,6.4978,6.4978,6.3382,6.2051,6.1925,6.1899,6.2094,6.2532,6.2605,6.2933,5.8745,5.8555,5.4326,5.2606,5.2809,5.3723,5.4192,5.437,5.5202,5.5151,5.4396,5.4396,5.4006,5.331,5.3321,0.0,5.3562,5.5038,5.5837,5.6095,5.8313,5.933,5.9366,6.0076,6.0443,6.0406,6.0431,6.0027,5.9281,5.9281,5.8926,5.8155,5.5077,5.3832,5.4419,5.5197,5.6365,5.7801,5.8543,5.9273,5.9991,6.0027,6.0027,6.0015,6.0015,5.9637,5.892,5.8056,5.7194,5.6322,5.4821,5.3264,5.1597,0.0,0.0,0.0,0.0,0.0,0.0,0.0,0.0,0.0,0.0,0.0,0.0,0.0,0.0,0.0,4.9977,0.0,5.3164,5.3989,0.0,0.0,0.0,5.6875,5.6912,5.8432,5.9797,6.0699,0.0,0.0,6.4573,6.5238,6.5591,6.5524,6.5411,6.5325,6.5325,6.5325,6.5362,6.5349,6.5472,6.5508,6.5592,6.5605,6.5605,6.5642,6.5508,6.5582,6.5569,6.5569,6.5508,6.5569,6.5508,6.5545,6.5508,6.5459,6.5406,6.5021,6.4835,6.4762,6.4811,6.4848,6.4861,6.0231,5.9625,5.8541,5.7437,5.6515,5.7267,5.7607,5.7704,5.8495,5.8483,5.7836,5.7799,5.7419,5.6791,5.6881,5.7268,5.789,5.8385,5.8957,5.957,6.016,6.0418,6.0418,6.064,6.0713,6.0713,6.0584,6.0426,6.0279,6.0279,6.0169,5.996,5.9269,5.8589,5.7977,5.816,5.8747,5.9736,5.9932,6.0115,6.0286,6.0323,6.0237,6.0139,6.0151,6.0029,5.9747,5.9491,5.8749,5.7352,5.6794,5.5523,5.3392,5.2447,0.0,0.0,0.0,0.0,0.0,0.0,0.0,0.0,0.0,4.8286,4.9206,0.0,5.1967,0.0,5.4205,5.5671,5.6692,5.7051,0.0,0.0,5.9181,5.9992,6.0644,6.2153,6.3295,6.3516,6.4439,6.5386,6.6236,6.6469,6.6801,6.7316,6.6202,6.5325,6.5325,6.5852,6.6219,6.6256,6.6709,6.71,6.7076,6.7136,6.7113,6.71,6.71,6.715,6.7136,6.715,6.715,6.7136,6.7136,6.71,6.715,6.715,6.7086,6.696,6.6053,6.5393,6.5943,6.609,6.6273,6.2761,6.2371,6.2371,6.1873,6.1092,5.9932,5.9444,5.9481,5.9969,5.9993,5.971,5.9757,5.9607,5.9272,5.9352,5.9817,6.0566,6.0992,6.1655,6.2479,6.28,6.2985,6.2985,6.2985,6.2985,6.2973,6.2925,6.289,6.289,6.289,6.2853,6.289,6.2949,6.2692,6.207,6.099,6.0659,6.1112,6.1421,6.1532,6.1471,6.1471,6.1447,6.1373,6.1373,6.1153,6.0725,6.0675,6.0053,5.8848,5.8652,5.7813,5.6187,5.5265,5.4148,0.0,0.0,0.0,0.0,0.0,0.0,0.0,0.0,0.0,0.0,0.0,5.5536,5.6455,5.7746,5.8869,5.97,6.0506,6.1228,6.1729,6.2479,6.3144,6.3613,6.4462,6.5201,6.5631,6.6371,6.7161,6.8025,6.8394,6.8739,6.917,6.8325,6.7334,6.6708,6.6929,6.7224,6.7224,6.7592,6.7873,6.7807,6.8075,6.8319,6.8288,6.8531,6.8765,6.8765,6.8765,6.8752,6.8765,6.8765,6.8765,6.8752,6.8802,6.8765,6.8655,6.8091,6.743,6.71,6.7026,6.726,6.5327,6.5314,6.534,6.5417,6.5298,6.2205,6.0897,6.0897,6.1006,6.1163,6.1245,6.1387,6.1433,6.1433,6.1445,6.1826,6.254,6.3217,6.3968,6.4707,6.5435,6.5767,6.5755,6.5767,6.5755,6.5767,6.5743,6.5743,6.5743,6.5743,6.5694,6.5706,6.5755,6.5767,6.5644,6.3586,6.2466,6.232,6.2903,6.3076,6.2842,6.283,6.2818,6.2818,6.2805,6.2462,6.1777,6.1642,6.1214,6.0432,6.0248,5.9808,5.9018,5.8215,5.7205,0.0,5.5023,0.0,0.0,0.0,0.0,0.0,0.0,0.0,0.0,5.7742,5.9246,6.0151,6.0973,6.1761,6.2463,6.3867,6.473,6.4767,6.5446,6.6001,6.6075,6.6186,6.6605,6.753,6.8235,6.8977,6.9719,7.0387,7.0718,7.0594,7.043,6.9797,6.8762,6.8428,6.8476,6.8415,6.8415,6.8535,6.8444,6.8897,6.9249,6.9201,6.9605,7.0142,7.0083,7.0055,7.0078,7.0078,6.9991,7.0036,7.011,7.0036,7.0073,6.9963,6.9889,6.9449,6.8398,6.8068,6.8238,6.5468,6.5468,6.5582,6.5607,6.5595,6.4931,6.4648,6.4685,6.4672,6.4697,6.4758,6.4783,6.4746,6.4758,6.4866,6.5025,6.5185,6.5416,6.5649,6.5798,6.5946,6.602,6.6057,6.602,6.6008,6.6008,6.5925,6.5877,6.5877,6.5877,6.5877,6.584,6.5973,6.602,6.5983,0.0,0.0,0.0,6.4094,6.3799,6.3148,6.3014,6.2966,6.2966,6.2855,0.0,6.2572,6.256,6.2144,6.1374,6.1189,0.0,0.0,0.0,0.0,0.0,0.0,0.0,0.0,0.0,0.0,0.0,6.1567,6.1777,6.0013,6.1917,6.3366,6.3667,6.4501,6.5125,6.5365,6.5754,6.6071,6.6071,6.6769,6.7514,6.8197,6.8868,6.9588,7.0383,7.056,7.0611,7.0809,7.0884,7.087,7.0944,7.0845,7.0721,7.0424,7.0147,7.0017,7.0054,6.9956,7.0017,7.0014,7.0112,7.0246,7.022,7.0293,7.0441,7.0501,7.0407,7.0289,7.0326,7.0156,7.016,7.0146,7.011,7.0234,7.011,7.0146,7.0,6.9706,6.9646,6.9669,6.7722,0.0,6.7466,6.7295,0.0,6.6988,6.7025,6.7,6.61,6.5755,6.5816,6.5877,6.5901,6.5901,6.5973,6.6219,6.6602,6.665,6.6896,6.7268,6.7268,6.7268,6.7305,6.7268,6.7305,6.7305,6.722,6.7184,6.7184,6.7184,6.7184,6.7184,6.7244,6.7268,6.7268,6.7268,6.659,6.5138,6.5138,6.4929,6.445,6.4353,6.4144,6.3726,6.3616,0.0,0.0,0.0,0.0,0.0,0.0,0.0,0.0,6.1591,0.0,6.1774,6.1202,6.0825,6.0918,6.2048,6.2809,6.2877,6.4874,6.5331,6.3594,6.4622,6.5411,6.5488,6.629,6.6832,6.6926,6.7692,6.8211,6.8249,6.8958,6.9631,7.0053,7.0464,7.0864,7.1237,7.1588,7.185,7.185,7.2162,7.2336,7.2336,7.2336,7.2299,7.2199,7.1365,7.0717,7.068,7.068,7.0667,7.0676,7.0996,7.1178,7.1125,7.1444,7.1703,7.174,7.1672,7.1631,7.1618,7.1563,7.1531,7.1411,7.1397,7.1369,7.1298,7.1284,7.1284,7.1248,7.066,7.022,7.0167,6.9575,6.9588,6.9282,6.8778,6.8778,6.8729,6.8593,0.0,0.0,0.0,6.6489,6.6525,6.6525,6.6525,6.6908,6.7526,6.7526,6.791,6.8554,6.8566,6.8591,6.8554,6.8566,6.8554,6.853,6.853,6.8518,6.8531,6.8531,6.8531,6.8531,6.8531,6.8531,6.8531,6.8531,6.7777,6.6431,6.6245,6.6,6.578,6.5755,6.5373,6.4696,6.4647,6.429,6.3663,6.3626,6.3663,6.3626,6.3626,6.3933,6.4561,6.4006,6.4005,6.4657,6.4163,6.3826,6.3942,6.4776,6.5497,6.5941,6.7472,6.7872,6.6754,6.6829,6.7046,6.7333,6.7965,6.8388,6.841,6.9619,7.0442,7.0442,7.1041,7.1453,7.1603,7.1666,7.1764,7.1879,7.2491,7.2854,7.288,7.3329,7.3802,7.3765,7.3628,7.3877,7.3778,7.2547,7.1527,7.1527,7.1576,7.1427,7.1535,7.1978,7.2333,7.2587,7.3091,7.3471,7.3471,7.3457,7.348,7.3443,7.3467,7.3333,7.3221,7.3193,7.3114,7.3051,7.2994,7.2979,7.2869,7.1923,7.1211,7.063,7.0494,7.0621,7.0597,7.0536,7.0536,7.014,6.9447,6.8531,6.8123,6.8135,6.8159,6.8159,6.8159,6.8159,6.8257,6.8513,6.8513,6.8646,6.8852,6.8826,6.8863,6.8863,6.8863,6.8768,6.8699,6.8662,6.8602,6.8543,6.8531,6.8531,6.8531,6.8531,6.8531,6.8531,6.8531,6.837,6.8135,6.7467,6.6749,6.6069,6.5937,6.5815,6.5692,6.5583,6.5447,6.5374,6.5312,6.5337,6.5374,6.5337,6.5411,6.5497,6.5532,6.5603,6.5784,6.5766,6.5843,6.6004,6.6736,6.7958,6.9566,7.0712,7.0495,6.8731,6.9263,7.005,7.0848,7.1012,7.1347,7.1471,7.1621,7.1761,7.181,7.1896,7.2235,7.2902,7.3005,7.3235,7.3812,7.3946,7.3942,7.3908,7.3912,7.4001,7.3864,7.415,7.4138,7.4549,7.3914,7.3292,7.3204,7.3115,7.3348,7.3731,7.4089,7.4336,7.5153,7.5163,7.5187,7.5187,7.5092,7.5023,7.5171,7.4977,7.4931,7.4889,7.5036,7.486,7.4744,7.4695,7.466,7.4609,7.4213,7.3685,7.1921,7.1525,7.1564,7.1316,7.0908,7.0995,7.0797,7.0437,7.0175,6.9493,6.8639,6.8602,6.8638,6.8697,6.8709,6.877,6.8791,6.8791,6.8852,6.891,6.8921,6.9134,6.9519,6.9556,6.9745,7.0097,7.0097,7.0073,7.0013,6.9941,6.9916,6.9904,6.9831,6.9794,6.9794,6.9794,6.9781,6.9756,6.8568,6.7751,6.7416,6.7331,6.7084,6.6676,6.6616,6.6358,6.5913,6.5913,6.5912,6.5983,6.5946,6.6204,6.6672,6.6767,6.7049,6.7517,6.8059,6.8398,6.8626,6.9508,7.0417,7.1304,7.1783,7.1826,7.1335,7.1293,7.1449,7.188,7.1971,7.2014,7.2105,7.2493,7.2746,7.2757,7.3123,7.3538,7.3878,7.3954,7.4271,7.497,7.5114,7.5208,7.5576,7.5582,7.5547,7.5547,7.5547,7.5673,7.594,7.5569,7.5172,7.5072,7.502,7.5068,7.5325,7.5336,7.5509,7.5814,7.5801,7.5801,7.5801,7.5757,7.5743,7.5693,7.5675,7.5606,7.5537,7.5509,7.5481,7.5397,7.5354,7.5297,7.5269,7.5168,7.4765,7.3141,7.2546,7.2546,7.2174,7.1566,7.1678,7.1615,7.1441,7.1537,7.0753,6.9451,6.9304,6.9339,6.9432,6.9432,6.9456,6.9479,6.9479,6.9539,6.9513,6.9525,6.9861,7.0396,7.0471,7.0784,7.1284,7.1359,7.1298,7.1263,7.1216,7.1155,7.1082,7.1008,7.0933,7.0895,7.0933,7.0958,7.0884,6.9756,6.9112,6.9051,6.9051,6.8716,6.8159,6.8158,6.7848,6.729,6.7239,6.7298,6.7353,6.7353,6.7698,6.8387,6.8424,6.8734,6.9479,7.0111,7.0574,7.0895,7.1804,7.2421,7.2453,7.2625,7.3023,7.3584,7.3168,7.2748,7.2696,7.2803,7.2797,7.2958,7.3556,7.401,7.4048,7.4756,7.5269,7.5248,7.5178,7.541,7.6052,7.6133,7.6364,7.6832,7.6983,7.6923,7.6874,7.6983,7.7014,7.7073,7.7055,7.695,7.6942,7.6643,7.6316,7.6275,7.6336,7.6409,7.6378,7.6526,7.6601,7.6587,7.6486,7.6422,7.6507,7.6456,7.6439,7.6282,7.6255,7.6287,7.6291,7.6235,7.6105,7.6085,7.5998,7.5573,7.3728,7.3653,7.3678,7.3616,7.3504,7.3529,7.3118,7.2495,7.247,7.2044,7.1254,7.1123,7.1038,7.1088,7.1025,7.1084,7.1177,7.1252,7.1272,7.1362,7.1449,7.1486,7.1513,7.1561,7.1542,7.1563,7.1589,7.1579,7.1485,7.1386,7.1277,7.1094,7.1069,7.107,7.097,7.1082,7.1107,7.1069,7.1067,7.0932,7.0698,7.0685,7.0648,7.0574,7.0661,7.0697,7.0436,7.0768,7.0802,7.084,7.074,7.0826,7.0913,7.0938,7.1034,7.1214,7.1441,7.1695,7.1987,7.283,7.3398,7.35,7.4235,7.4769,7.5009,7.4942,7.4797,7.4568,7.4639,7.4654,7.4787,7.5502,7.5997,7.5978,7.672,7.7406,7.7252,7.7316,7.7214,7.7244,7.716,7.7079,7.7212,7.7266,7.7168,7.7363,7.7412,7.7568,7.8051,7.8142,7.8322,7.8556,7.7678,7.6867,7.7177,7.735,7.7549,7.812,7.8344,7.8179,7.8,7.8035,7.8194,7.768,7.7923,7.7835,7.7881,7.8053,7.7928,7.7636,7.7552,7.7624,7.7605,7.7451,7.6898,7.5271,7.5271,7.5271,7.4973,7.4537,7.4599,7.4149,7.345,7.3522,7.3356,7.3091,7.3056,7.2459,7.156,7.1522,7.1557,7.1602,7.164,7.1625,7.1708,7.1708,7.1944,7.2395,7.2432,7.2624,7.3077,7.3103,7.3079,7.2984,7.2925,7.2817,7.2695,7.2683,7.2659,7.2609,7.2696,7.2683,7.2683,7.2732,7.2708,7.2497,7.1628,7.1106,7.1155,7.1167,7.1203,7.124,7.1288,7.1383,7.1522,7.1545,7.1602,7.1775,7.1748,7.1808,7.1901,7.2423,7.3053,7.3728,7.4182,7.4444,7.4542,7.5351,7.5856,7.5932,7.6351,7.6597,7.648,7.6092,7.5988,7.6521,7.695,7.716,7.7198,7.7502,7.7731,7.7683,7.7654,7.7756,7.8172,7.8245,7.8394,7.877,7.8873,7.8873,7.8911,7.8862,7.8923,7.9155,7.9198,7.9282,7.9323,7.8671,7.8315,7.8429,7.8353,7.8476,7.8609,7.8695,7.8655,7.8642,7.8616,7.8602,7.8536,7.8522,7.8482,7.8353,7.8414,7.84,7.8332,7.8262,7.8165,7.8108,7.8023,7.753,7.6481,7.6418,7.6419,7.602,7.5471,7.5557,7.5256,7.478,7.4826,7.4824,7.4861,7.4861,7.4223,7.3097,7.2609,7.2384,7.2384,7.2384,7.2384,7.2384,7.2384,7.2733,7.3221,7.3258,7.3596,7.4111,7.4148,7.4148,7.4186,7.4115,7.3959,7.3888,7.3864,7.3839,7.3815,7.3839,7.3876,7.3912,7.3949,7.3985,7.3833,7.2784,7.2089,7.2008,7.2056,7.2091,7.2091,7.2162,7.2278,7.2458,7.2469,7.2536,7.2735,7.2746,7.2816,7.2916,7.3481,7.4303,7.5241,7.5358,7.556,7.5923,7.6475,7.6799,7.6932,7.7427,7.7894,7.8085,7.7551,7.7475,7.7627,7.7989,7.8123,7.8161,7.8313,7.8466,7.8504,7.8446,7.8722,7.9217,7.9282,7.9472,8.0005,8.0109,8.005,8.005,8.0099,8.0154,7.9961,7.987,7.9843,7.9645,7.9589,7.9439,7.9227,7.9016,7.8966,7.8864,7.8825,7.8825,7.8774,7.876,7.8708,7.8655,7.8695,7.8669,7.8589,7.8549,7.8573,7.8441,7.8447,7.8457,7.8332,7.8221,7.8099,7.6919,7.6829,7.6711,7.6689,7.6539,7.6539,7.6513,7.6401,7.6438,7.6438,7.6363,7.6401,7.6401,7.61,7.4674,7.4085,7.4073,7.4085,7.4073,7.4073,7.4073,7.4111,7.4148,7.4148,7.4186,7.4411,7.4411,7.4373,7.4298,7.4261,7.4127,7.4046,7.4121,7.4024,7.4025,7.4123,7.4106,7.4362,7.4466,7.4478,7.4518,7.4416,7.4128,7.3812,7.3895,7.3986,7.4047,7.4241,7.4363,7.4385,7.4385,7.4395,7.4417,7.4417,7.4562,7.474,7.4846,7.5327,7.615,7.6351,7.6665,7.7436,7.7655,7.7798,7.79,7.8091,7.8482,7.9121,7.9103,7.877,7.8208,7.8742,7.9179,7.9217,7.9876,8.0172,8.0296,8.0011,8.0249,8.0268,8.0123,8.0093,8.0215,8.0195,8.0225,8.0225,8.0215,8.0195,8.0185,8.0175,8.0113,7.9961,7.9843,7.9652,7.9357,7.9239,7.919,7.9104,7.9029,7.9029,7.8953,7.889,7.8812,7.876,7.8774,7.8747,7.8708,7.8719,7.8781,7.8802,7.8871,7.8844,7.9129,7.8596,7.849,7.8571,7.8525,7.8516,7.8165,7.7713,7.7594,7.7246,7.6757,7.6624,7.6626,7.6663,7.6626,7.6588,7.6551,7.5988,7.5762,7.5812,7.5762,7.5725,7.5725,7.5774,7.5774,7.5725,7.5774,7.5812,7.5774,7.5762,7.5774,7.5774,7.5762,7.5713,7.5739,7.5798,7.5772,7.5749,7.5854,7.5946,7.5981,7.6075,7.6071,7.604,7.6104,7.6015,7.5828,7.5445,7.5227,7.5227,7.5758,7.6182,7.6333,7.6343,7.6407,7.6531,7.6551,7.6582,7.669,7.67,7.6883,7.7237,7.7294,7.7455,7.7882,7.8435,7.875,7.8901,7.9283,7.9742,7.998,8.0057,7.9838,7.9714,7.9885,8.0057,8.0133,8.0315,8.0506,8.0506,8.0478,8.0459,8.045,8.0421,8.0402,8.0459,8.0402,8.0402,8.0402,8.0402,8.044,8.0353,8.0333,8.0379,8.0154,8.0003,7.9865,7.9679,7.9442,7.9287,7.9239,7.914,7.9104,7.9041,7.9016,7.8966,7.8953,7.8928,7.8965,7.8976,7.931,7.9334,7.9556,7.9602,7.985,8.021,7.9752,7.9497,7.9577,7.9566,7.9535,7.921,7.8708,7.8601,7.8215,7.7664,7.7546,7.7487,7.7512,7.7439,7.7414,7.7414,7.7414,7.7426,7.7389,7.6889,7.6588,7.6588,7.6626,7.6663,7.6588,7.6675,7.6713,7.6675,7.6626,7.665,7.6735,7.6698,7.6721,7.6768,7.685,7.6847,7.687,7.7021,7.705,7.7094,7.7138,7.7171,7.7203,7.7241,7.7203,7.7176,7.6938,7.6641,7.6349,7.6906,7.7316,7.7452,7.7483,7.7554,7.7673,7.7693,7.7712,7.7741,7.7703,7.7942,7.8217,7.8284,7.8455,7.8816,7.9321,7.9675,7.9713,8.0171,8.0477,8.0506,8.0506,8.0506,8.0544,8.0735,8.0812,8.0582,8.0506,8.0506,8.0506,8.0506,8.0659,8.0888,8.0955,8.1031,8.1232,8.1308,8.1347,8.1308,8.1308,8.128,8.127,8.1251,8.1174,8.1075,8.1067,8.0811,8.0477,8.0182,7.9597,7.94,7.919,7.9129,7.9116,7.9116,7.9116,7.9116,7.9129,7.9204,7.9441,7.9764,8.0099,8.0372,8.057,8.0768,8.0953,8.1021,8.0654,7.9898,7.9914,7.9604,7.9709,7.9671,7.9648,7.9549,7.9413,7.9284,7.9123,7.8998,7.9027,7.8828,7.8966,7.8778,7.8966,7.8628,7.7489,7.6889,7.6851,7.6814,7.6814,7.6851,7.6926,7.6988,7.6962,7.6763,7.6785,7.7053,7.709,7.7111,7.71,7.7236,7.7345,7.7096,7.7441,7.7435,7.7607,7.7728,7.7716,7.7711,7.7872,7.79,7.792,7.8453,7.8372,7.7552,7.7716,7.7872,7.7863,7.7873,7.7769,7.795,7.795,7.7865,7.8027,7.7922,7.8351,7.9159,7.9283,7.958,8.0086,8.0391,8.0362,8.0362,8.043,8.0544,8.0659,8.0659,8.0621,8.0812,8.1347,8.1499,8.0697,8.0735,8.0812,8.0697,8.0582,8.085,8.1576,8.1805,8.2149,8.2693,8.2732,8.2617,8.2655,8.2693,8.2646,8.2588,8.255,8.2788,8.2738,8.2292,8.1825,8.1388,8.0923,8.0214,7.9624,7.9315,7.9116,7.9116,7.9116,7.9116,7.9116,7.9116,7.9229,7.9955,8.0329,8.0904,8.1179,8.144,8.1762,8.1947,8.2005,8.1547,8.1786,8.1776,8.175,8.1626,8.1576,8.146,8.1105,8.0496,8.033,7.9932,7.9494,7.9311,7.9251,7.9227,7.9153,7.9116,7.9041,7.8553,7.8328,7.829,7.829,7.829,7.829,7.8328,7.8414,7.8499,7.8594,7.8603,7.8612,7.8612,7.8673,7.8731,7.8851,7.8917,7.889,7.9149,7.9312,7.9343,7.9335,7.9376,7.9396,7.9406,7.9396,7.9444,7.977,7.9742,7.9502,7.9444,7.9474,7.9504,7.9552,7.9581,7.96,7.961,7.9629,7.9657,7.9666,7.9752,8.0047,8.0086,8.021,8.0439,8.0506,8.0506,8.0506,8.0544,8.0773,8.1232,8.1385,8.1576,8.212,8.2426,8.2264,8.1499,8.1881,8.2111,8.2082,8.212,8.2311,8.2531,8.2607,8.277,8.2961,8.3076,8.3152,8.3152,8.3114,8.3114,8.3076,8.3181,8.2989,8.2891,8.2731,8.2699,8.2162,8.1684,8.1122,8.0302,7.9728,7.9191,7.9154,7.9116,7.9116,7.9229,7.9229,7.9642,8.033,8.0969,8.1557,8.227,8.2693,8.298,8.3168,8.2939,8.2468,8.279,8.2779,8.271,8.2648,8.2564,8.2489,8.2098,8.1521,8.1358,8.0975,8.054,8.0384,8.0099,7.9861,7.9751,7.9526,7.9301,7.9251,7.9213,7.9213,7.9202,7.9214,7.9251,7.9263,7.9299,7.9383,7.9465,7.9558,7.96,7.96,7.9645,7.9756,7.9876,7.9912,7.9961,8.0165,8.0255,8.0303,8.0257,8.0314,8.0276,8.0314,8.0314,8.0324,8.0383,8.045,8.0411,8.0344,8.0344,8.0402,8.0411,8.045,8.0506,8.0468,8.0506,8.0506,8.0506,8.0468,8.0506,8.0468,8.0506,8.0506,8.0506,8.0506,8.0582,8.0735,8.127,8.169,8.2073,8.2464,8.2884,8.3343,8.3181,8.2798,8.2798,8.3037,8.2999,8.2999,8.319,8.3343,8.3496,8.3611,8.383,8.3945,8.3954,8.3907,8.3907,8.3945,8.3907,8.3954,8.3846,8.3766,8.3821,8.3558,8.2914,8.2444,8.203,8.1142,8.0255,7.9629,7.9229,7.9154,7.9154,7.9642,7.9792,8.0543,8.1256,8.1745,8.2295,8.3046,8.3697,8.3722,8.3695,8.3757,8.3388,8.3053,8.3033,8.2904,8.3015,8.3005,8.2994,8.2845,8.2575,8.2439,8.2252,8.21,8.1833,8.146,8.092,8.0771,8.0408,7.979,7.9805,7.9877,7.979,7.9656,7.9569,7.9491,7.9488,7.9535,7.9535,7.9581,7.9694,7.9833,7.9843,7.995,8.0134,8.0165,8.0205,8.0215,8.0353,8.0411,8.0421,8.045,8.0487,8.0487,8.0497,8.0497,8.0497,8.0497,8.0497,8.0487,8.0487,8.0497,8.0506,8.0497,8.0497,8.0506,8.0506,8.0506,8.0506,8.0506,8.0592,8.0582,8.0735,8.0773,8.0888,8.0926,8.0659,8.0964,8.1538,8.1958,8.2225,8.2722,8.3152,8.3419,8.3916,8.4289,8.425,8.3792,8.3458,8.3228,8.3305,8.3687,8.4212,8.4403,8.4594,8.5167,8.5282,8.5282,8.5282,8.5234,8.5158,8.5166,8.5001,8.5256,8.5065,8.4611,8.4245,8.3584,8.3332,8.2849,8.2009,8.1194,8.0606,7.9905,7.9754,7.9754,8.0168,8.0556,8.1369,8.1957,8.237,8.2896,8.3622,8.396,8.4073,8.4097,8.4046,8.3832,8.4822,8.4822,8.4792,8.4742,8.467,8.4708,8.4265,8.3654,8.3584,8.3118,8.2553,8.229,8.2149,8.1804,8.1722,8.1512,8.1321,8.1309,8.144,8.1415,8.0885,8.0155,7.9645,7.9645,7.9734,7.9745,7.9914,8.0013,8.0103,8.0103,8.0144,8.0195,8.0285,8.0353,8.0372,8.0421,8.0468,8.0468,8.0487,8.0506,8.0506,8.0506,8.0506,8.0506,8.0506,8.0506,8.0506,8.0506,8.0506,8.0506,8.0506,8.0506,8.0544,8.0544,8.0621,8.0659,8.0621,8.085,8.1308,8.1461,8.169,8.2273,8.2149,8.235,8.235,8.2541,8.299,8.3448,8.3868,8.4174,8.4671,8.4976,8.5167,8.5167,8.4824,8.4709,8.4747,8.4862,8.4976,8.5167,8.5167,8.5282,8.5397,8.5511,8.5511,8.5511,8.5501,8.5481,8.5459,8.5349,8.5325,8.5116,8.4798,8.4615,8.4362,8.4142,8.364,8.2836,8.2246,8.1945,8.1332,8.0956,8.1031,8.1256,8.1256,8.1844,8.2295,8.2708,8.3397,8.4035,8.4073,8.411,8.411,8.4059,8.3722,8.5511,8.5511,8.5511,8.5471,8.5459,8.5459,8.5131,8.4656,8.457,8.4278,8.3715,8.3574,8.3318,8.2975,8.2881,8.2581,8.2328,8.2316,8.233,8.2342,8.1984,8.1084,8.0136,7.9929,7.9971,7.9971,8.0134,8.0215,8.0255,8.0265,8.0285,8.0344,8.0392,8.0459,8.0459,8.0478,8.0506,8.0506,8.0506,8.0506,8.0506,8.0506,8.0506,8.0506,8.0506,8.0506,8.0506,8.0506,8.0506,8.0506,8.0506,8.0659,8.1003,8.1041,8.1194,8.1461,8.1547,8.1843,8.2149,8.2302,8.2493,8.2884,8.2999,8.2999,8.3037,8.3267,8.384,8.4146,8.4556,8.5015,8.5358,8.5511,8.5511,8.5473,8.5511,8.5511,8.5511,8.5435,8.5511,8.5511,8.5511,8.5511,8.5511,8.5511,8.5511,8.5501,8.5461,8.5459,8.5408,8.5325,8.516,8.4984,8.4813,8.4599,8.4442,8.4243,8.4129,8.3361,8.3096,8.2858,8.2295,8.1895,8.1932,8.197,8.2032,8.2257,8.2821,8.3234,8.3622,8.4035,8.4073,8.411,8.411,8.411,8.3735,8.5511,8.5511,8.5511,8.5511,8.5501,8.5501,8.5451,8.5391,8.5332,8.5221,8.5099,8.5154,8.4627,8.4115,8.403,8.3676,8.3039,8.3139,8.2963,8.2946,8.2738,8.2081,8.0852,8.0756,8.0738,8.0738,8.053,8.0676,8.0897,8.0831,8.0688,8.0764,8.0726,8.0582,8.0535,8.0506,8.0506,8.0506,8.0506,8.0506,8.0506,8.0506,8.0506,8.0506,8.0506,8.0621,8.0697,8.0735,8.0735,8.0821,8.0697,8.1117,8.1805,8.192,8.2187,8.2693,8.2732,8.2846,8.3114,8.3152,8.3228,8.3419,8.3458,8.3267,8.3572,8.4069,8.448,8.4556,8.5081,8.5397,8.5473,8.5511,8.5511,8.5511,8.5511,8.5511,8.5511,8.5511,8.5511,8.5511,8.5511,8.5511,8.5511,8.5511,8.5501,8.5451,8.5411,8.5349,8.5283,8.5116,8.4995,8.4836,8.4699,8.458,8.4406,8.4267,8.419,8.3911,8.3823,8.3547,8.2834,8.2496,8.2558,8.2633,8.2871,8.3209,8.3622,8.396,8.4035,8.4035,8.411,8.411,8.411,8.411,8.3885,8.5511,8.5511,8.5511,8.5511,8.5511,8.5511,8.5491,8.5471,8.5471,8.5411,8.5377,8.5356,8.519,8.4915,8.4898,8.48,8.4555,8.4479,8.4386,8.3832,8.3923,8.338,8.253,8.2318,8.2279,8.2212,8.2329,8.2368,8.2388,8.2187,8.2092,8.1566,8.1461,8.1156,8.0621,8.0621,8.0506,8.0506,8.0506,8.0506,8.0506,8.0506,8.0544,8.0582,8.0582,8.0888,8.1385,8.1538,8.1843,8.2149,8.1958,8.1996,8.2579,8.277,8.2913,8.3076,8.3152,8.3343,8.383,8.4021,8.4289,8.4709,8.4747,8.4976,8.4976,8.5015,8.5206,8.5244,8.5387,8.5511,8.5511,8.5511,8.5511,8.5511,8.5511,8.5511,8.5511,8.5511,8.5511,8.5511,8.5511,8.5511,8.5511,8.5501,8.5471,8.5449,8.5367,8.5266,8.5127,8.4961,8.4813,8.4661,8.4554,8.4444,8.4356,8.424,8.4189,8.4136,8.4123,8.4073,8.3359,8.3171,8.3247,8.3509,8.3772,8.4035,8.411,8.411,8.4073,8.411,8.411,8.411,8.411,8.411,8.4035,8.5511,8.5511,8.5511,8.5511,8.5511,8.5511,8.5511,8.5511,8.5511,8.5481,8.5479,8.5469,8.5391,8.5329,8.5339,8.5339,8.5329,8.5339,8.5131,8.481,8.4794,8.4594,8.4289,8.402,8.3828,8.316,8.297,8.2999,8.2999,8.3037,8.2722,8.2416,8.234,8.192,8.1232,8.1117,8.0888,8.0544,8.0506,8.0506,8.0506,8.0506,8.0773,8.1041,8.1156,8.1499,8.2264,8.2378,8.2798,8.3267,8.3219,8.3142,8.3496,8.3611,8.3763,8.4098,8.4174,8.4327,8.4747,8.4862,8.5053,8.5425,8.5511,8.5511,8.5511,8.5511,8.5511,8.5511,8.5511,8.5511,8.5511,8.5511,8.5511,8.5511,8.5511,8.5511,8.5511,8.5511,8.5511,8.5511,8.5511,8.5511,8.5501,8.5471,8.5421,8.5398,8.5181,8.5105,8.4984,8.4813,8.4675,8.4518,8.4431,8.4317,8.424,8.4176,8.415,8.4123,8.4123,8.411,8.3847,8.3847,8.3998,8.4073,8.4035,8.4073,8.411,8.411,8.411,8.411,8.411,8.411,8.411,8.411,8.4035,8.5511,8.5511,8.5511,8.5511,8.5511,8.5511,8.5511,8.5511,8.5511,8.5501,8.5511,8.5511,8.5481,8.5501,8.5491,8.5501,8.5501,8.5491,8.5367,8.5377,8.5349,8.532,8.5234,8.5119,8.4727,8.3458,8.3572,8.3563,8.3534,8.3381,8.3524,8.3267,8.319,8.277,8.2149,8.1958,8.1729,8.1241,8.1165,8.1127,8.1088,8.1088,8.1423,8.1805,8.1996,8.2378,8.3037,8.3267,8.3611,8.4403,8.448,8.448,8.448,8.4518,8.4709,8.5425,8.5282,8.5282,8.532,8.5397,8.5473,8.5511,8.5511,8.5511,8.5511,8.5511,8.5511,8.5511,8.5511,8.5511,8.5511,8.5511,8.5511,8.5511,8.5511,8.5511,8.5511,8.5511,8.5511,8.5511,8.5501,8.5501,8.5461,8.5421,8.5408,8.5325,8.5105,8.4928,8.4802,8.4699,8.4518,8.4394,8.4317,8.424,8.4176,8.415,8.4123,8.411,8.411,8.411,8.411,8.411,8.411,8.411,8.411,8.411,8.411,8.411,8.411,8.411,8.411,8.411,8.411,8.411,8.4035,8.5511,8.5511,8.5511,8.5511,8.5511,8.5511,8.5511,8.5511,8.5511,8.5511,8.5511,8.5511,8.5511,8.5511,8.5511,8.5511,8.5511,8.5511,8.5511,8.5511,8.5511,8.5511,8.5511,8.5511,8.5282,8.5196,8.4976,8.4862,8.49,8.5053,8.4518,8.4184,8.4069,8.3639,8.3037,8.2808,8.2693,8.2311,8.2311,8.2311,8.235,8.235,8.2502,8.277,8.2798,8.3257,8.3878,8.4146,8.448,8.5206,8.5272,8.5282,8.5206,8.5206,8.531,8.5425,8.5511,8.5511,8.5511,8.5511,8.5511,8.5511,8.5511,8.5511,8.5511,8.5511,8.5511,8.5511,8.5511,8.5511,8.5511,8.5511,8.5511,8.5511,8.5511,8.5511,8.5511,8.5511,8.5511,8.5511,8.5501,8.5481,8.5421,8.5377,8.5283,8.5176,8.4961,8.479,8.4675,8.453,8.4356,8.4305,8.4177,8.4163,8.4123,8.4123,8.411,8.411,8.411,8.411,8.411,8.411,8.411,8.411,8.411,8.411,8.411,8.411,8.411,8.411,8.411,8.411,8.411,8.411,8.411,8.5511,8.5511,8.5511,8.5511,8.5511,8.5511,8.5511,8.5511,8.5511,8.5511,8.5511,8.5511,8.5511,8.5511,8.5511,8.5511,8.5511,8.5511,8.5511,8.5511,8.5511,8.5511,8.5511,8.5511,8.5511,8.5473,8.5511,8.5511,8.5511,8.5473,8.5244,8.5053,8.4938,8.4518,8.3878,8.3649,8.3419,8.3228,8.3076,8.3076,8.3037,8.3037,8.319,8.3572,8.3725,8.4098,8.4747,8.4938,8.5091,8.5425,8.5511,8.5511,8.5511,8.5511,8.5511,8.5511,8.5511,8.5511,8.5511,8.5511,8.5511,8.5511,8.5511,8.5511,8.5511,8.5511,8.5511,8.5511,8.5511,8.5511,8.5511,8.5511,8.5511,8.5511,8.5511,8.5511,8.5511,8.5511,8.5501,8.5501,8.5491,8.5451,8.5408,8.5315,8.5176,8.4984,8.4813,8.4687,8.453,8.4381,8.4279,8.4215,8.4163,8.415,8.411,8.411,8.411,8.411,8.411,8.411,8.411,8.411,8.411,8.411,8.411,8.411,8.411,8.411,8.411,8.411,8.411,8.411,8.411,8.411,8.411,8.5511,8.5511,8.5511,8.5511,8.5511,8.5511,8.5511,8.5511,8.5511,8.5511,8.5511,8.5511,8.5511,8.5511,8.5511,8.5511,8.5511,8.5511,8.5511,8.5511,8.5511,8.5511,8.5511,8.5511,8.5511,8.5511,8.5511,8.5511,8.5511,8.5511,8.5511,8.5435,8.5473,8.5244,8.4632,8.4518,8.4021,8.3754,8.3496,8.3496,8.3496,8.3534,8.3802,8.4441,8.4556,8.4824,8.532,8.5397,8.5397,8.5511,8.5511,8.5511,8.5511,8.5511,8.5511,8.5511,8.5511,8.5511,8.5511,8.5511,8.5511,8.5511,8.5511,8.5511,8.5511,8.5511,8.5511,8.5511,8.5511,8.5511,8.5511,8.5511,8.5511,8.5511,8.5511,8.5501,8.5491,8.5481,8.5461,8.5461,8.5461,8.5391,8.5325,8.523,8.5051,8.4897,8.4711,8.4566,8.4444,8.4343,8.4215,8.4163,8.4123,8.4123,8.411,8.411,8.411,8.411,8.411,8.411,8.411,8.411,8.411,8.411,8.411,8.411,8.411,8.411,8.411,8.411,8.411,8.411,8.411,8.411,8.411,8.5511,8.5511,8.5511,8.5511,8.5511,8.5511,8.5511,8.5511,8.5511,8.5511,8.5511,8.5511,8.5511,8.5511,8.5511,8.5511,8.5511,8.5511,8.5511,8.5511,8.5511,8.5511,8.5511,8.5511,8.5511,8.5511,8.5511,8.5511,8.5511,8.5511,8.5511,8.5511,8.5511,8.5397,8.5244,8.5167,8.532,8.5167,8.5129,8.5091,8.5053,8.5015,8.5129,8.5244,8.5282,8.532,8.5473,8.5511,8.5511,8.5511,8.5511,8.5511,8.5511,8.5511,8.5511,8.5511,8.5511,8.5511,8.5511,8.5511,8.5511,8.5511,8.5511,8.5511,8.5511,8.5511,8.5511,8.5511,8.5511,8.5511,8.5511,8.5511,8.5511,8.5511,8.5511,8.5501,8.5491,8.5441,8.5449,8.5318,8.5287,8.5245,8.5198,8.5062,8.4939,8.4781,8.4591,8.4443,8.4343,8.424,8.4189,8.4136,8.411,8.411,8.411,8.411,8.411,8.411,8.411,8.411,8.411,8.411,8.411,8.411,8.411,8.411,8.411,8.411,8.411,8.411,8.411,8.411,8.411,8.411,8.411,8.5511,8.5511,8.5511,8.5511,8.5511,8.5511,8.5511,8.5511,8.5511,8.5511,8.5511,8.5511,8.5511,8.5511,8.5511,8.5511,8.5511,8.5511,8.5511,8.5511,8.5511,8.5511,8.5511,8.5511,8.5511,8.5511,8.5511,8.5511,8.5511,8.5511,8.5511,8.5511,8.5511,8.5511,8.5511,8.5511,8.5511,8.5473,8.5473,8.5511,8.5511,8.5511,8.5511,8.5511,8.5511,8.5511,8.5511,8.5511,8.5511,8.5511,8.5511,8.5511,8.5511,8.5511,8.5511,8.5511,8.5511,8.5511,8.5511,8.5511,8.5511,8.5511,8.5511,8.5511,8.5511,8.5511,8.5511,8.5511,8.5511,8.5511,8.5511,8.5511,8.5511,8.5511,8.5501,8.5461,8.5441,8.5439,8.5377,8.5262,8.5105,8.5077,8.4984,8.4894,8.4767,8.4639,8.4468,8.4368,8.4266,8.4176,8.4136,8.4123,8.411,8.411,8.411,8.411,8.411,8.411,8.411,8.411,8.411,8.411,8.411,8.411,8.411,8.411,8.411,8.411,8.411,8.411,8.411,8.411,8.411,8.411,8.411,8.5511,8.5511,8.5511,8.5511,8.5511,8.5511,8.5511,8.5511,8.5511,8.5511,8.5511,8.5511,8.5511,8.5511,8.5511,8.5511,8.5511,8.5511,8.5511,8.5511,8.5511,8.5511,8.5511,8.5511,8.5511,8.5511,8.5511,8.5511,8.5511,8.5511,8.5511,8.5511,8.5511,8.5511,8.5511,8.5511,8.5511,8.5511,8.5511,8.5511,8.5511,8.5511,8.5511,8.5511,8.5511,8.5511,8.5511,8.5511,8.5511,8.5511,8.5511,8.5511,8.5511,8.5511,8.5511,8.5511,8.5511,8.5511,8.5511,8.5511,8.5511,8.5511,8.5511,8.5511,8.5511,8.5511,8.5511,8.5511,8.5511,8.5511,8.5511,8.5511,8.5511,8.5501,8.5481,8.5459,8.5398,8.5325,8.5181,8.5051,8.4916,8.4802,8.4744,8.4685,8.4577,8.4468,8.4331,8.4291,8.4226,8.4198,8.4123,8.411,8.411,8.411,8.411,8.411,8.411,8.411,8.411,8.411,8.411,8.411,8.411,8.411,8.411,8.411,8.411,8.411,8.411,8.411,8.411,8.411,8.411,8.411,8.411,8.5511,8.5511,8.5511,8.5511,8.5511,8.5511,8.5511,8.5511,8.5511,8.5511,8.5511,8.5511,8.5511,8.5511,8.5511,8.5511,8.5511,8.5511,8.5511,8.5511,8.5511,8.5511,8.5511,8.5511,8.5511,8.5511,8.5511,8.5511,8.5511,8.5511,8.5511,8.5511,8.5511,8.5511,8.5511,8.5511,8.5511,8.5511,8.5511,8.5511,8.5511,8.5511,8.5511,8.5511,8.5511,8.5511,8.5511,8.5511,8.5511,8.5511,8.5511,8.5511,8.5511,8.5511,8.5511,8.5511,8.5511,8.5511,8.5511,8.5511,8.5511,8.5511,8.5511,8.5511,8.5511,8.5511,8.5511,8.5511,8.5511,8.5511,8.5511,8.5511,8.5501,8.5471,8.5421,8.5398,8.5294,8.5116,8.5006,8.4859,8.4871,8.4929,8.5108,8.521,8.4946,8.4808,8.4957,8.4916,8.4501,8.4373,8.4223,8.4148,8.411,8.411,8.411,8.411,8.411,8.411,8.411,8.411,8.411,8.411,8.411,8.411,8.411,8.411,8.411,8.411,8.411,8.411,8.411,8.411,8.411,8.411,8.411,8.5511,8.5511,8.5511,8.5511,8.5511,8.5511,8.5511,8.5511,8.5511,8.5511,8.5511,8.5511,8.5511,8.5511,8.5511,8.5511,8.5511,8.5511,8.5511,8.5511,8.5511,8.5511,8.5511,8.5511,8.5511,8.5511,8.5511,8.5511,8.5511,8.5511,8.5511,8.5511,8.5511,8.5511,8.5511,8.5511,8.5511,8.5511,8.5511,8.5511,8.5511,8.5511,8.5511,8.5511,8.5511,8.5511,8.5511,8.5511,8.5511,8.5511,8.5511,8.5511,8.5511,8.5511,8.5511,8.5511,8.5511,8.5511,8.5511,8.5511,8.5511,8.5511,8.5511,8.5511,8.5511,8.5511,8.5511,8.5511,8.5511,8.5511,8.5511,8.5501,8.5481,8.5431,8.5398,8.5315,8.5263,8.5147,8.528,8.5366,8.5435,8.5462,8.5687,8.5872,8.5509,8.5195,8.5393,8.5491,8.5075,8.4786,8.4711,8.4486,8.4411,8.4298,8.426,8.4223,8.411,8.411,8.411,8.411,8.411,8.411,8.411,8.411,8.411,8.411,8.411,8.411,8.411,8.411,8.411,8.411,8.411,8.411,8.411,8.5511,8.5511,8.5511,8.5511,8.5511,8.5511,8.5511,8.5511,8.5511,8.5511,8.5511,8.5511,8.5511,8.5511,8.5511,8.5511,8.5511,8.5511,8.5511,8.5511,8.5511,8.5511,8.5511,8.5511,8.5511,8.5511,8.5511,8.5511,8.5511,8.5511,8.5511,8.5511,8.5511,8.5511,8.5511,8.5511,8.5511,8.5511,8.5511,8.5511,8.5511,8.5511,8.5511,8.5511,8.5511,8.5511,8.5511,8.5511,8.5511,8.5511,8.5511,8.5511,8.5511,8.5511,8.5511,8.5511,8.5511,8.5511,8.5511,8.5511,8.5511,8.5511,8.5511,8.5511,8.5511,8.5511,8.5511,8.5511,8.5511,8.5511,8.5501,8.5471,8.5441,8.5418,8.5245,8.5225,8.5462,8.5492,8.577,8.5989,8.6027,8.6049,8.6271,8.6481,8.6382,8.6019,8.5904,8.6015,8.5851,8.5612,8.55,8.5199,8.4861,8.4673,8.4486,8.4298,8.411,8.411,8.411,8.411,8.411,8.411,8.411,8.411,8.411,8.411,8.411,8.411,8.411,8.411,8.411,8.411,8.411,8.411,8.411,8.5511,8.5511,8.5511,8.5511,8.5511,8.5511,8.5511,8.5511,8.5511,8.5511,8.5511,8.5511,8.5511,8.5511,8.5511,8.5511,8.5511,8.5511,8.5511,8.5511,8.5511,8.5511,8.5511,8.5511,8.5511,8.5511,8.5511,8.5511,8.5511,8.5511,8.5511,8.5511,8.5511,8.5511,8.5511,8.5511,8.5511,8.5511,8.5511,8.5511,8.5511,8.5511,8.5511,8.5511,8.5511,8.5511,8.5511,8.5511,8.5511,8.5511,8.5511,8.5511,8.5511,8.5511,8.5511,8.5511,8.5511,8.5511,8.5511,8.5511,8.5511,8.5511,8.5511,8.5511,8.5511,8.5511,8.5511,8.5511,8.5491,8.5491,8.5471,8.5459,8.5398,8.5342,8.5203,8.5337,8.5606,8.5921,8.6191,8.6643,8.6666,8.6698,8.6919,8.709,8.7128,8.694,8.6588,8.6513,8.6513,8.6438,8.6326,8.5725,8.5312,8.5049,8.4786,8.4335,8.411,8.411,8.411,8.411,8.411,8.411,8.411,8.411,8.411,8.411,8.411,8.411,8.411,8.411,8.411,8.411,8.411,8.411,8.411,8.5511,8.5511,8.5511,8.5511,8.5511,8.5511,8.5511,8.5511,8.5511,8.5511,8.5511,8.5511,8.5511,8.5511,8.5511,8.5511,8.5511,8.5511,8.5511,8.5511,8.5511,8.5511,8.5511,8.5511,8.5511,8.5511,8.5511,8.5511,8.5511,8.5511,8.5511,8.5511,8.5511,8.5511,8.5511,8.5511,8.5511,8.5511,8.5511,8.5511,8.5511,8.5511,8.5511,8.5511,8.5511,8.5511,8.5511,8.5511,8.5511,8.5511,8.5511,8.5511,8.5511,8.5511,8.5511,8.5511,8.5511,8.5511,8.5511,8.5511,8.5511,8.5511,8.5511,8.5511,8.5511,8.5511,8.5511,8.5481,8.5431,8.5421,8.5429,8.5336,8.5289,8.5295,8.5314,8.5644,8.5945,8.6292,8.6641,8.7229,8.7488,8.7773,8.7992,8.7865,8.7828,8.7828,8.7527,8.7415,8.7415,8.7302,8.7152,8.6326,8.5762,8.5449,8.5073,8.4523,8.4148,8.411,8.411,8.411,8.411,8.411,8.411,8.411,8.411,8.411,8.411,8.411,8.411,8.411,8.411,8.411,8.411,8.411,8.411,8.5511,8.5511,8.5511,8.5511,8.5511,8.5511,8.5511,8.5511,8.5511,8.5511,8.5511,8.5511,8.5511,8.5511,8.5511,8.5511,8.5511,8.5511,8.5511,8.5511,8.5511,8.5511,8.5511,8.5511,8.5511,8.5511,8.5511,8.5511,8.5511,8.5511,8.5511,8.5511,8.5511,8.5511,8.5511,8.5511,8.5511,8.5511,8.5511,8.5511,8.5511,8.5511,8.5511,8.5511,8.5511,8.5511,8.5511,8.5511,8.5511,8.5511,8.5511,8.5511,8.5511,8.5511,8.5511,8.5511,8.5511,8.5511,8.5511,8.5511,8.5511,8.5511,8.5511,8.5511,8.5491,8.5471,8.5451,8.5459,8.5388,8.5346,8.5304,8.5208,8.5473,8.5474,8.5851,8.6212,8.6707,8.7055,8.7378,8.7964,8.8261,8.862,8.8841,8.8766,8.8579,8.8541,8.8466,8.8278,8.809,8.7903,8.7602,8.6851,8.61,8.5711,8.5186,8.4561,8.426,8.411,8.411,8.411,8.411,8.411,8.411,8.411,8.411,8.411,8.411,8.411,8.411,8.411,8.411,8.411,8.411,8.411,8.411,8.5511,8.5511,8.5511,8.5511,8.5511,8.5511,8.5511,8.5511,8.5511,8.5511,8.5511,8.5511,8.5511,8.5511,8.5511,8.5511,8.5511,8.5511,8.5511,8.5511,8.5511,8.5511,8.5511,8.5511,8.5511,8.5511,8.5511,8.5511,8.5511,8.5511,8.5511,8.5511,8.5511,8.5511,8.5511,8.5511,8.5511,8.5511,8.5511,8.5511,8.5511,8.5511,8.5511,8.5511,8.5511,8.5511,8.5511,8.5511,8.5511,8.5511,8.5511,8.5511,8.5511,8.5511,8.5511,8.5511,8.5511,8.5511,8.5501,8.5501,8.5481,8.551,8.5614,8.5568,8.5471,8.5401,8.536,8.5298,8.5224,8.5181,8.5176,8.5542,8.5901,8.6198,8.6568,8.7046,8.7634,8.8004,8.8289,8.8586,8.877,8.8954,8.8917,8.8879,8.8541,8.8241,8.8015,8.7865,8.7752,8.7978,8.7677,8.7227,8.6551,8.5937,8.5349,8.4598,8.426,8.411,8.411,8.411,8.411,8.411,8.411,8.411,8.411,8.411,8.411,8.411,8.411,8.411,8.411,8.411,8.411,8.411,8.411,8.5511,8.5511,8.5511,8.5511,8.5511,8.5511,8.5511,8.5511,8.5511,8.5511,8.5511,8.5511,8.5511,8.5511,8.5511,8.5511,8.5511,8.5511,8.5511,8.5511,8.5511,8.5511,8.5511,8.5511,8.5511,8.5511,8.5511,8.5511,8.5511,8.5511,8.5511,8.5511,8.5511,8.5511,8.5511,8.5511,8.5511,8.5511,8.5511,8.5511,8.5511,8.5511,8.5511,8.5511,8.5511,8.5511,8.5511,8.5511,8.5511,8.5511,8.5511,8.5511,8.5511,8.5511,8.5511,8.5511,8.5511,8.5511,8.5491,8.5441,8.5439,8.5599,8.5863,8.5797,8.5596,8.5439,8.5327,8.5187,8.5066,8.4988,8.525,8.564,8.6088,8.648,8.7008,8.7734,8.8216,8.8439,8.8723,8.8808,8.8992,8.8879,8.8841,8.8466,8.809,8.7752,8.7452,8.7227,8.7264,8.7452,8.7377,8.6926,8.6438,8.5711,8.5223,8.4561,8.4298,8.411,8.411,8.411,8.411,8.411,8.411,8.411,8.411,8.411,8.411,8.411,8.411,8.411,8.411,8.411,8.411,8.411,8.411,8.5511,8.5511,8.5511,8.5511,8.5511,8.5511,8.5511,8.5511,8.5511,8.5511,8.5511,8.5511,8.5511,8.5511,8.5511,8.5511,8.5511,8.5511,8.5511,8.5511,8.5511,8.5511,8.5511,8.5511,8.5511,8.5511,8.5511,8.5511,8.5511,8.5511,8.5511,8.5511,8.5511,8.5511,8.5511,8.5511,8.5511,8.5511,8.5511,8.5511,8.5511,8.5511,8.5511,8.5511,8.5511,8.5511,8.5511,8.5511,8.5511,8.5511,8.5511,8.5511,8.5511,8.5511,8.5511,8.5501,8.5461,8.5479,8.5459,8.5377,8.5488,8.5789,8.616,8.6268,8.6121,8.5974,8.5484,8.5098,8.4889,8.48,8.5257,8.5713,8.6166,8.6655,8.7468,8.8316,8.86,8.8784,8.8869,8.8968,8.8917,8.8766,8.8503,8.8053,8.7401,8.6739,8.6213,8.5913,8.61,8.6476,8.6401,8.61,8.5725,8.5274,8.4861,8.4523,8.4298,8.411,8.411,8.411,8.411,8.4148,8.4223,8.4185,8.411,8.411,8.4148,8.411,8.411,8.411,8.411,8.411,8.411,8.411,8.411,8.5511,8.5511,8.5511,8.5511,8.5511,8.5511,8.5511,8.5511,8.5511,8.5511,8.5511,8.5511,8.5511,8.5511,8.5511,8.5511,8.5511,8.5511,8.5511,8.5511,8.5511,8.5511,8.5511,8.5511,8.5511,8.5511,8.5511,8.5511,8.5511,8.5511,8.5511,8.5511,8.5511,8.5511,8.5511,8.5511,8.5511,8.5511,8.5511,8.5511,8.5511,8.5511,8.5511,8.5511,8.5511,8.5511,8.5511,8.5511,8.5511,8.5511,8.5511,8.5511,8.5481,8.5481,8.5481,8.5441,8.5408,8.5388,8.5422,8.5463,8.5768,8.6094,8.6445,8.67,8.6668,8.6478,8.5985,8.5638,8.5496,8.5511,8.5851,8.6441,8.6915,8.7378,8.8025,8.8572,8.8808,8.893,8.893,8.8917,8.8654,8.8466,8.8053,8.7551,8.665,8.5786,8.5237,8.4899,8.5049,8.55,8.55,8.5349,8.5086,8.4786,8.4523,8.426,8.4185,8.411,8.4185,8.4373,8.4561,8.4486,8.4335,8.4448,8.4523,8.426,8.4185,8.4148,8.411,8.411,8.411,8.411,8.411,8.411,8.411,8.5511,8.5511,8.5511,8.5511,8.5511,8.5511,8.5511,8.5511,8.5511,8.5511,8.5511,8.5511,8.5511,8.5511,8.5511,8.5511,8.5511,8.5511,8.5511,8.5511,8.5511,8.5511,8.5511,8.5511,8.5511,8.5511,8.5511,8.5511,8.5511,8.5511,8.5511,8.5511,8.5511,8.5511,8.5511,8.5511,8.5511,8.5511,8.5511,8.5511,8.5511,8.5511,8.5511,8.5511,8.5511,8.5511,8.5511,8.5511,8.5511,8.5511,8.5511,8.5471,8.5439,8.5429,8.5377,8.5315,8.5283,8.53,8.5437,8.5665,8.6058,8.6563,8.695,8.717,8.7172,8.6982,8.673,8.6442,8.6229,8.6253,8.6514,8.7099,8.7619,8.8094,8.8494,8.8743,8.8992,8.8992,8.8992,8.8691,8.8391,8.8015,8.7602,8.6838,8.5937,8.5237,8.4673,8.4335,8.4373,8.4636,8.4749,8.4636,8.4486,8.426,8.411,8.411,8.411,8.4373,8.4523,8.4749,8.4998,8.5199,8.5312,8.5124,8.4998,8.4711,8.4373,8.4148,8.411,8.411,8.411,8.411,8.411,8.411,8.411,8.5511,8.5511,8.5511,8.5511,8.5511,8.5511,8.5511,8.5511,8.5511,8.5511,8.5511,8.5511,8.5511,8.5511,8.5511,8.5511,8.5511,8.5511,8.5511,8.5511,8.5511,8.5511,8.5511,8.5511,8.5511,8.5511,8.5511,8.5511,8.5511,8.5511,8.5511,8.5511,8.5511,8.5511,8.5511,8.5511,8.5511,8.5511,8.5511,8.5511,8.5511,8.5511,8.5511,8.5511,8.5511,8.5511,8.5511,8.5511,8.5511,8.5481,8.5461,8.537,8.5346,8.5315,8.5283,8.5192,8.5176,8.5225,8.5576,8.5979,8.6469,8.7094,8.755,8.7789,8.829,8.8052,8.7411,8.7082,8.6488,8.6446,8.6997,8.7606,8.8043,8.848,8.8705,8.8917,8.8992,8.8992,8.8691,8.8241,8.7865,8.7377,8.6875,8.6162,8.5336,8.4749,8.4185,8.4148,8.411,8.411,8.411,8.411,8.411,8.411,8.411,8.411,8.411,8.4411,8.481,8.5349,8.5762,8.61,8.6288,8.5988,8.5599,8.5111,8.4786,8.4448,8.4148,8.411,8.411,8.411,8.411,8.411,8.411,8.5511,8.5511,8.5511,8.5511,8.5511,8.5511,8.5511,8.5511,8.5511,8.5511,8.5511,8.5511,8.5511,8.5511,8.5511,8.5511,8.5511,8.5511,8.5511,8.5511,8.5511,8.5511,8.5511,8.5511,8.5511,8.5511,8.5511,8.5511,8.5511,8.5511,8.5511,8.5511,8.5511,8.5511,8.5511,8.5511,8.5511,8.5511,8.5511,8.5511,8.5511,8.5511,8.5511,8.5511,8.5511,8.5511,8.5511,8.5511,8.5511,8.5441,8.5418,8.5277,8.5181,8.5127,8.5084,8.5066,8.5193,8.5454,8.5877,8.6312,8.7059,8.7738,8.8115,8.8502,8.8974,8.8746,8.8093,8.7676,8.7093,8.709,8.764,8.8015,8.8466,8.8729,8.8879,8.8954,8.8954,8.8879,8.8353,8.779,8.7213,8.6725,8.6124,8.5411,8.4861,8.4298,8.411,8.411,8.411,8.411,8.411,8.411,8.411,8.411,8.411,8.411,8.411,8.4486,8.4936,8.58,8.6588,8.7152,8.7264,8.6739,8.6288,8.5862,8.5223,8.4786,8.4523,8.4223,8.411,8.411,8.411,8.411,8.411,8.5511,8.5511,8.5511,8.5511,8.5511,8.5511,8.5511,8.5511,8.5511,8.5511,8.5511,8.5511,8.5511,8.5511,8.5511,8.5511,8.5511,8.5511,8.5511,8.5511,8.5511,8.5511,8.5511,8.5511,8.5511,8.5511,8.5511,8.5511,8.5511,8.5511,8.5511,8.5511,8.5511,8.5511,8.5511,8.5511,8.5511,8.5511,8.5511,8.5511,8.5511,8.5511,8.5511,8.5511,8.5511,8.5511,8.5511,8.5511,8.55,8.5418,8.5304,8.5149,8.5039,8.4939,8.4859,8.4991,8.5151,8.5634,8.6039,8.6908,8.7749,8.8073,8.8447,8.8821,8.9041,8.8986,8.861,8.861,8.8241,8.8241,8.8616,8.8616,8.8879,8.8879,8.8992,8.8917,8.8879,8.8428,8.7903,8.7213,8.65,8.6012,8.5486,8.4923,8.4486,8.411,8.411,8.411,8.411,8.411,8.411,8.411,8.411,8.411,8.411,8.411,8.4185,8.4561,8.5274,8.6401,8.7452,8.8353,8.8316,8.764,8.7227,8.68,8.6124,8.5336,8.4773,8.4486,8.4223,8.411,8.411,8.411,8.411]}]]